<?xml version="1.0" encoding="UTF-8" standalone="no" ?>
<gpx xmlns="http://www.topografix.com/GPX/1/1" xmlns:xsi="http://www.w3.org/2001/XMLSchema-instance" xsi:schemaLocation="http://www.topografix.com/GPX/1/1 http://www.topografix.com/GPX/1/1/gpx.xsd" version="1.1" creator="VisuGPX - https://www.visugpx.com">
  <metadata>
    <name>Limoges nord - départ Beaublanc</name>
    <desc><![CDATA[ Ça roule.......sauf le dernier km...]]></desc>
  </metadata>
  <trk>
    <name><![CDATA[SSSSS03-23 13:22:56]]></name>
    <trkseg>
      <trkpt lat="45.84625" lon="1.23842">
        <ele>341.41</ele>
        <time>2018-03-23T08:45:37Z</time>
      </trkpt>
      <trkpt lat="45.84622" lon="1.23842">
        <ele>341.41</ele>
        <time>2018-03-23T08:46:10Z</time>
      </trkpt>
      <trkpt lat="45.84618" lon="1.2384">
        <ele>340.92</ele>
        <time>2018-03-23T08:46:31Z</time>
      </trkpt>
      <trkpt lat="45.84618" lon="1.23837">
        <ele>340.92</ele>
        <time>2018-03-23T08:46:49Z</time>
      </trkpt>
      <trkpt lat="45.84623" lon="1.23832">
        <ele>339.48</ele>
        <time>2018-03-23T08:46:54Z</time>
      </trkpt>
      <trkpt lat="45.8463" lon="1.23819">
        <ele>339.48</ele>
        <time>2018-03-23T08:47:01Z</time>
      </trkpt>
      <trkpt lat="45.84633" lon="1.23818">
        <ele>339</ele>
        <time>2018-03-23T08:47:02Z</time>
      </trkpt>
      <trkpt lat="45.84635" lon="1.23817">
        <ele>339</ele>
        <time>2018-03-23T08:47:03Z</time>
      </trkpt>
      <trkpt lat="45.84639" lon="1.23815">
        <ele>339</ele>
        <time>2018-03-23T08:47:04Z</time>
      </trkpt>
      <trkpt lat="45.84642" lon="1.23812">
        <ele>339</ele>
        <time>2018-03-23T08:47:05Z</time>
      </trkpt>
      <trkpt lat="45.84645" lon="1.23809">
        <ele>338.52</ele>
        <time>2018-03-23T08:47:06Z</time>
      </trkpt>
      <trkpt lat="45.84649" lon="1.23805">
        <ele>338.52</ele>
        <time>2018-03-23T08:47:07Z</time>
      </trkpt>
      <trkpt lat="45.84652" lon="1.23801">
        <ele>337.56</ele>
        <time>2018-03-23T08:47:08Z</time>
      </trkpt>
      <trkpt lat="45.84656" lon="1.23796">
        <ele>337.56</ele>
        <time>2018-03-23T08:47:09Z</time>
      </trkpt>
      <trkpt lat="45.84659" lon="1.23791">
        <ele>337.08</ele>
        <time>2018-03-23T08:47:10Z</time>
      </trkpt>
      <trkpt lat="45.84662" lon="1.23784">
        <ele>337.08</ele>
        <time>2018-03-23T08:47:11Z</time>
      </trkpt>
      <trkpt lat="45.84666" lon="1.23779">
        <ele>337.08</ele>
        <time>2018-03-23T08:47:12Z</time>
      </trkpt>
      <trkpt lat="45.84699" lon="1.23731">
        <ele>335.64</ele>
        <time>2018-03-23T08:47:21Z</time>
      </trkpt>
      <trkpt lat="45.84748" lon="1.23698">
        <ele>334.68</ele>
        <time>2018-03-23T08:47:32Z</time>
      </trkpt>
      <trkpt lat="45.84752" lon="1.237">
        <ele>334.68</ele>
        <time>2018-03-23T08:47:33Z</time>
      </trkpt>
      <trkpt lat="45.84764" lon="1.23704">
        <ele>334.68</ele>
        <time>2018-03-23T08:47:36Z</time>
      </trkpt>
      <trkpt lat="45.84768" lon="1.23702">
        <ele>334.68</ele>
        <time>2018-03-23T08:47:37Z</time>
      </trkpt>
      <trkpt lat="45.84772" lon="1.237">
        <ele>334.68</ele>
        <time>2018-03-23T08:47:38Z</time>
      </trkpt>
      <trkpt lat="45.84774" lon="1.23695">
        <ele>334.68</ele>
        <time>2018-03-23T08:47:39Z</time>
      </trkpt>
      <trkpt lat="45.84776" lon="1.2369">
        <ele>334.2</ele>
        <time>2018-03-23T08:47:40Z</time>
      </trkpt>
      <trkpt lat="45.84777" lon="1.23684">
        <ele>334.2</ele>
        <time>2018-03-23T08:47:41Z</time>
      </trkpt>
      <trkpt lat="45.84777" lon="1.23677">
        <ele>333.71</ele>
        <time>2018-03-23T08:47:42Z</time>
      </trkpt>
      <trkpt lat="45.84778" lon="1.23663">
        <ele>333.71</ele>
        <time>2018-03-23T08:47:44Z</time>
      </trkpt>
      <trkpt lat="45.84781" lon="1.23657">
        <ele>333.23</ele>
        <time>2018-03-23T08:47:45Z</time>
      </trkpt>
      <trkpt lat="45.84785" lon="1.23652">
        <ele>332.75</ele>
        <time>2018-03-23T08:47:46Z</time>
      </trkpt>
      <trkpt lat="45.8479" lon="1.23648">
        <ele>332.75</ele>
        <time>2018-03-23T08:47:47Z</time>
      </trkpt>
      <trkpt lat="45.84796" lon="1.23645">
        <ele>331.79</ele>
        <time>2018-03-23T08:47:48Z</time>
      </trkpt>
      <trkpt lat="45.84827" lon="1.23626">
        <ele>327.95</ele>
        <time>2018-03-23T08:47:53Z</time>
      </trkpt>
      <trkpt lat="45.8484" lon="1.23617">
        <ele>326.99</ele>
        <time>2018-03-23T08:47:55Z</time>
      </trkpt>
      <trkpt lat="45.84845" lon="1.23611">
        <ele>326.02</ele>
        <time>2018-03-23T08:47:56Z</time>
      </trkpt>
      <trkpt lat="45.8485" lon="1.23605">
        <ele>325.06</ele>
        <time>2018-03-23T08:47:57Z</time>
      </trkpt>
      <trkpt lat="45.84854" lon="1.23597">
        <ele>324.58</ele>
        <time>2018-03-23T08:47:58Z</time>
      </trkpt>
      <trkpt lat="45.84857" lon="1.2359">
        <ele>323.62</ele>
        <time>2018-03-23T08:47:59Z</time>
      </trkpt>
      <trkpt lat="45.84862" lon="1.23573">
        <ele>322.18</ele>
        <time>2018-03-23T08:48:01Z</time>
      </trkpt>
      <trkpt lat="45.84863" lon="1.23563">
        <ele>321.22</ele>
        <time>2018-03-23T08:48:02Z</time>
      </trkpt>
      <trkpt lat="45.84862" lon="1.23552">
        <ele>320.26</ele>
        <time>2018-03-23T08:48:03Z</time>
      </trkpt>
      <trkpt lat="45.84859" lon="1.2353">
        <ele>318.33</ele>
        <time>2018-03-23T08:48:05Z</time>
      </trkpt>
      <trkpt lat="45.8485" lon="1.23482">
        <ele>314.97</ele>
        <time>2018-03-23T08:48:09Z</time>
      </trkpt>
      <trkpt lat="45.84842" lon="1.23444">
        <ele>311.6</ele>
        <time>2018-03-23T08:48:12Z</time>
      </trkpt>
      <trkpt lat="45.84832" lon="1.23402">
        <ele>308.72</ele>
        <time>2018-03-23T08:48:15Z</time>
      </trkpt>
      <trkpt lat="45.84819" lon="1.23358">
        <ele>305.36</ele>
        <time>2018-03-23T08:48:18Z</time>
      </trkpt>
      <trkpt lat="45.84802" lon="1.23313">
        <ele>301.51</ele>
        <time>2018-03-23T08:48:21Z</time>
      </trkpt>
      <trkpt lat="45.84781" lon="1.23261">
        <ele>298.15</ele>
        <time>2018-03-23T08:48:25Z</time>
      </trkpt>
      <trkpt lat="45.84779" lon="1.23252">
        <ele>298.15</ele>
        <time>2018-03-23T08:48:26Z</time>
      </trkpt>
      <trkpt lat="45.84781" lon="1.23244">
        <ele>298.15</ele>
        <time>2018-03-23T08:48:27Z</time>
      </trkpt>
      <trkpt lat="45.84784" lon="1.23238">
        <ele>297.18</ele>
        <time>2018-03-23T08:48:28Z</time>
      </trkpt>
      <trkpt lat="45.84789" lon="1.23234">
        <ele>297.18</ele>
        <time>2018-03-23T08:48:29Z</time>
      </trkpt>
      <trkpt lat="45.84794" lon="1.23229">
        <ele>297.18</ele>
        <time>2018-03-23T08:48:30Z</time>
      </trkpt>
      <trkpt lat="45.848" lon="1.23224">
        <ele>296.7</ele>
        <time>2018-03-23T08:48:31Z</time>
      </trkpt>
      <trkpt lat="45.84804" lon="1.23219">
        <ele>296.7</ele>
        <time>2018-03-23T08:48:32Z</time>
      </trkpt>
      <trkpt lat="45.8481" lon="1.23218">
        <ele>296.7</ele>
        <time>2018-03-23T08:48:33Z</time>
      </trkpt>
      <trkpt lat="45.84816" lon="1.2322">
        <ele>296.7</ele>
        <time>2018-03-23T08:48:34Z</time>
      </trkpt>
      <trkpt lat="45.84819" lon="1.23223">
        <ele>296.7</ele>
        <time>2018-03-23T08:48:35Z</time>
      </trkpt>
      <trkpt lat="45.84822" lon="1.23228">
        <ele>296.22</ele>
        <time>2018-03-23T08:48:36Z</time>
      </trkpt>
      <trkpt lat="45.84825" lon="1.23234">
        <ele>296.7</ele>
        <time>2018-03-23T08:48:37Z</time>
      </trkpt>
      <trkpt lat="45.84827" lon="1.23239">
        <ele>296.22</ele>
        <time>2018-03-23T08:48:38Z</time>
      </trkpt>
      <trkpt lat="45.84831" lon="1.23245">
        <ele>296.22</ele>
        <time>2018-03-23T08:48:39Z</time>
      </trkpt>
      <trkpt lat="45.84834" lon="1.23248">
        <ele>296.22</ele>
        <time>2018-03-23T08:48:40Z</time>
      </trkpt>
      <trkpt lat="45.8486" lon="1.23273">
        <ele>299.59</ele>
        <time>2018-03-23T08:48:51Z</time>
      </trkpt>
      <trkpt lat="45.84886" lon="1.23294">
        <ele>302.95</ele>
        <time>2018-03-23T08:49:05Z</time>
      </trkpt>
      <trkpt lat="45.84914" lon="1.23314">
        <ele>306.32</ele>
        <time>2018-03-23T08:49:21Z</time>
      </trkpt>
      <trkpt lat="45.84945" lon="1.23323">
        <ele>309.2</ele>
        <time>2018-03-23T08:49:38Z</time>
      </trkpt>
      <trkpt lat="45.84983" lon="1.23337">
        <ele>311.6</ele>
        <time>2018-03-23T08:49:58Z</time>
      </trkpt>
      <trkpt lat="45.85016" lon="1.23377">
        <ele>313.53</ele>
        <time>2018-03-23T08:50:17Z</time>
      </trkpt>
      <trkpt lat="45.85044" lon="1.23412">
        <ele>314.01</ele>
        <time>2018-03-23T08:50:33Z</time>
      </trkpt>
      <trkpt lat="45.85074" lon="1.2345">
        <ele>315.45</ele>
        <time>2018-03-23T08:50:48Z</time>
      </trkpt>
      <trkpt lat="45.85108" lon="1.23487">
        <ele>316.41</ele>
        <time>2018-03-23T08:51:03Z</time>
      </trkpt>
      <trkpt lat="45.85134" lon="1.23514">
        <ele>316.89</ele>
        <time>2018-03-23T08:51:14Z</time>
      </trkpt>
      <trkpt lat="45.8516" lon="1.23507">
        <ele>318.81</ele>
        <time>2018-03-23T08:51:26Z</time>
      </trkpt>
      <trkpt lat="45.85162" lon="1.23506">
        <ele>318.81</ele>
        <time>2018-03-23T08:51:27Z</time>
      </trkpt>
      <trkpt lat="45.85164" lon="1.23505">
        <ele>318.81</ele>
        <time>2018-03-23T08:51:28Z</time>
      </trkpt>
      <trkpt lat="45.85165" lon="1.23503">
        <ele>318.81</ele>
        <time>2018-03-23T08:51:29Z</time>
      </trkpt>
      <trkpt lat="45.85168" lon="1.235">
        <ele>318.81</ele>
        <time>2018-03-23T08:51:31Z</time>
      </trkpt>
      <trkpt lat="45.8517" lon="1.23499">
        <ele>318.33</ele>
        <time>2018-03-23T08:51:32Z</time>
      </trkpt>
      <trkpt lat="45.85172" lon="1.23498">
        <ele>318.33</ele>
        <time>2018-03-23T08:51:33Z</time>
      </trkpt>
      <trkpt lat="45.85174" lon="1.23496">
        <ele>318.81</ele>
        <time>2018-03-23T08:51:34Z</time>
      </trkpt>
      <trkpt lat="45.85176" lon="1.23495">
        <ele>318.81</ele>
        <time>2018-03-23T08:51:35Z</time>
      </trkpt>
      <trkpt lat="45.85179" lon="1.23494">
        <ele>319.3</ele>
        <time>2018-03-23T08:51:36Z</time>
      </trkpt>
      <trkpt lat="45.8518" lon="1.23493">
        <ele>319.3</ele>
        <time>2018-03-23T08:51:37Z</time>
      </trkpt>
      <trkpt lat="45.85183" lon="1.23493">
        <ele>319.3</ele>
        <time>2018-03-23T08:51:38Z</time>
      </trkpt>
      <trkpt lat="45.85191" lon="1.23489">
        <ele>319.78</ele>
        <time>2018-03-23T08:51:45Z</time>
      </trkpt>
      <trkpt lat="45.85199" lon="1.23488">
        <ele>320.74</ele>
        <time>2018-03-23T08:51:49Z</time>
      </trkpt>
      <trkpt lat="45.85224" lon="1.23483">
        <ele>322.18</ele>
        <time>2018-03-23T08:52:02Z</time>
      </trkpt>
      <trkpt lat="45.85261" lon="1.2348">
        <ele>323.14</ele>
        <time>2018-03-23T08:52:20Z</time>
      </trkpt>
      <trkpt lat="45.85284" lon="1.23493">
        <ele>324.1</ele>
        <time>2018-03-23T08:52:33Z</time>
      </trkpt>
      <trkpt lat="45.85289" lon="1.23501">
        <ele>325.06</ele>
        <time>2018-03-23T08:52:37Z</time>
      </trkpt>
      <trkpt lat="45.8529" lon="1.23503">
        <ele>325.06</ele>
        <time>2018-03-23T08:52:38Z</time>
      </trkpt>
      <trkpt lat="45.85291" lon="1.23505">
        <ele>325.54</ele>
        <time>2018-03-23T08:52:39Z</time>
      </trkpt>
      <trkpt lat="45.85291" lon="1.23507">
        <ele>325.54</ele>
        <time>2018-03-23T08:52:40Z</time>
      </trkpt>
      <trkpt lat="45.85292" lon="1.2351">
        <ele>325.54</ele>
        <time>2018-03-23T08:52:41Z</time>
      </trkpt>
      <trkpt lat="45.85293" lon="1.23512">
        <ele>325.54</ele>
        <time>2018-03-23T08:52:42Z</time>
      </trkpt>
      <trkpt lat="45.85293" lon="1.23514">
        <ele>325.06</ele>
        <time>2018-03-23T08:52:43Z</time>
      </trkpt>
      <trkpt lat="45.85294" lon="1.23516">
        <ele>325.06</ele>
        <time>2018-03-23T08:52:44Z</time>
      </trkpt>
      <trkpt lat="45.85306" lon="1.23542">
        <ele>325.54</ele>
        <time>2018-03-23T08:52:53Z</time>
      </trkpt>
      <trkpt lat="45.85307" lon="1.23544">
        <ele>325.54</ele>
        <time>2018-03-23T08:52:54Z</time>
      </trkpt>
      <trkpt lat="45.85309" lon="1.23546">
        <ele>325.54</ele>
        <time>2018-03-23T08:52:55Z</time>
      </trkpt>
      <trkpt lat="45.8531" lon="1.23549">
        <ele>325.54</ele>
        <time>2018-03-23T08:52:56Z</time>
      </trkpt>
      <trkpt lat="45.85312" lon="1.23552">
        <ele>325.54</ele>
        <time>2018-03-23T08:52:57Z</time>
      </trkpt>
      <trkpt lat="45.85324" lon="1.23593">
        <ele>325.54</ele>
        <time>2018-03-23T08:53:10Z</time>
      </trkpt>
      <trkpt lat="45.85343" lon="1.23631">
        <ele>326.5</ele>
        <time>2018-03-23T08:53:23Z</time>
      </trkpt>
      <trkpt lat="45.85358" lon="1.2366">
        <ele>326.99</ele>
        <time>2018-03-23T08:53:32Z</time>
      </trkpt>
      <trkpt lat="45.85359" lon="1.23663">
        <ele>326.99</ele>
        <time>2018-03-23T08:53:33Z</time>
      </trkpt>
      <trkpt lat="45.8536" lon="1.23664">
        <ele>328.43</ele>
        <time>2018-03-23T08:53:34Z</time>
      </trkpt>
      <trkpt lat="45.85362" lon="1.23671">
        <ele>328.43</ele>
        <time>2018-03-23T08:53:37Z</time>
      </trkpt>
      <trkpt lat="45.85363" lon="1.23673">
        <ele>328.43</ele>
        <time>2018-03-23T08:53:38Z</time>
      </trkpt>
      <trkpt lat="45.85363" lon="1.23675">
        <ele>328.43</ele>
        <time>2018-03-23T08:53:39Z</time>
      </trkpt>
      <trkpt lat="45.85364" lon="1.23678">
        <ele>328.43</ele>
        <time>2018-03-23T08:53:40Z</time>
      </trkpt>
      <trkpt lat="45.85364" lon="1.2368">
        <ele>328.91</ele>
        <time>2018-03-23T08:53:41Z</time>
      </trkpt>
      <trkpt lat="45.85364" lon="1.23682">
        <ele>328.91</ele>
        <time>2018-03-23T08:53:42Z</time>
      </trkpt>
      <trkpt lat="45.85364" lon="1.23684">
        <ele>329.39</ele>
        <time>2018-03-23T08:53:43Z</time>
      </trkpt>
      <trkpt lat="45.85365" lon="1.23687">
        <ele>329.39</ele>
        <time>2018-03-23T08:53:44Z</time>
      </trkpt>
      <trkpt lat="45.85365" lon="1.23689">
        <ele>330.35</ele>
        <time>2018-03-23T08:53:45Z</time>
      </trkpt>
      <trkpt lat="45.85371" lon="1.237">
        <ele>330.83</ele>
        <time>2018-03-23T08:53:50Z</time>
      </trkpt>
      <trkpt lat="45.85372" lon="1.23702">
        <ele>330.35</ele>
        <time>2018-03-23T08:53:51Z</time>
      </trkpt>
      <trkpt lat="45.85373" lon="1.23704">
        <ele>330.35</ele>
        <time>2018-03-23T08:53:52Z</time>
      </trkpt>
      <trkpt lat="45.85374" lon="1.23706">
        <ele>331.31</ele>
        <time>2018-03-23T08:53:53Z</time>
      </trkpt>
      <trkpt lat="45.85375" lon="1.23709">
        <ele>330.83</ele>
        <time>2018-03-23T08:53:54Z</time>
      </trkpt>
      <trkpt lat="45.8538" lon="1.23722">
        <ele>331.31</ele>
        <time>2018-03-23T08:53:59Z</time>
      </trkpt>
      <trkpt lat="45.85381" lon="1.23723">
        <ele>331.31</ele>
        <time>2018-03-23T08:54:00Z</time>
      </trkpt>
      <trkpt lat="45.85383" lon="1.23726">
        <ele>331.31</ele>
        <time>2018-03-23T08:54:01Z</time>
      </trkpt>
      <trkpt lat="45.85384" lon="1.23729">
        <ele>331.31</ele>
        <time>2018-03-23T08:54:02Z</time>
      </trkpt>
      <trkpt lat="45.85385" lon="1.23733">
        <ele>331.31</ele>
        <time>2018-03-23T08:54:03Z</time>
      </trkpt>
      <trkpt lat="45.85388" lon="1.23736">
        <ele>331.31</ele>
        <time>2018-03-23T08:54:04Z</time>
      </trkpt>
      <trkpt lat="45.8539" lon="1.2374">
        <ele>331.31</ele>
        <time>2018-03-23T08:54:05Z</time>
      </trkpt>
      <trkpt lat="45.85392" lon="1.23743">
        <ele>331.31</ele>
        <time>2018-03-23T08:54:06Z</time>
      </trkpt>
      <trkpt lat="45.85393" lon="1.23746">
        <ele>331.31</ele>
        <time>2018-03-23T08:54:07Z</time>
      </trkpt>
      <trkpt lat="45.85403" lon="1.23774">
        <ele>327.95</ele>
        <time>2018-03-23T08:54:14Z</time>
      </trkpt>
      <trkpt lat="45.85408" lon="1.2378">
        <ele>327.95</ele>
        <time>2018-03-23T08:54:15Z</time>
      </trkpt>
      <trkpt lat="45.85412" lon="1.23783">
        <ele>327.95</ele>
        <time>2018-03-23T08:54:16Z</time>
      </trkpt>
      <trkpt lat="45.85416" lon="1.23785">
        <ele>327.95</ele>
        <time>2018-03-23T08:54:17Z</time>
      </trkpt>
      <trkpt lat="45.85421" lon="1.23786">
        <ele>327.95</ele>
        <time>2018-03-23T08:54:18Z</time>
      </trkpt>
      <trkpt lat="45.85425" lon="1.23786">
        <ele>327.95</ele>
        <time>2018-03-23T08:54:19Z</time>
      </trkpt>
      <trkpt lat="45.85429" lon="1.23787">
        <ele>327.95</ele>
        <time>2018-03-23T08:54:20Z</time>
      </trkpt>
      <trkpt lat="45.85476" lon="1.23783">
        <ele>329.87</ele>
        <time>2018-03-23T08:54:36Z</time>
      </trkpt>
      <trkpt lat="45.8548" lon="1.23782">
        <ele>330.35</ele>
        <time>2018-03-23T08:54:38Z</time>
      </trkpt>
      <trkpt lat="45.85482" lon="1.23783">
        <ele>330.35</ele>
        <time>2018-03-23T08:54:39Z</time>
      </trkpt>
      <trkpt lat="45.85485" lon="1.23783">
        <ele>330.35</ele>
        <time>2018-03-23T08:54:40Z</time>
      </trkpt>
      <trkpt lat="45.85488" lon="1.23783">
        <ele>330.35</ele>
        <time>2018-03-23T08:54:41Z</time>
      </trkpt>
      <trkpt lat="45.8549" lon="1.23783">
        <ele>330.83</ele>
        <time>2018-03-23T08:54:42Z</time>
      </trkpt>
      <trkpt lat="45.85492" lon="1.23782">
        <ele>330.83</ele>
        <time>2018-03-23T08:54:43Z</time>
      </trkpt>
      <trkpt lat="45.85495" lon="1.23782">
        <ele>330.83</ele>
        <time>2018-03-23T08:54:44Z</time>
      </trkpt>
      <trkpt lat="45.85516" lon="1.23773">
        <ele>331.31</ele>
        <time>2018-03-23T08:54:53Z</time>
      </trkpt>
      <trkpt lat="45.85517" lon="1.23772">
        <ele>332.27</ele>
        <time>2018-03-23T08:54:54Z</time>
      </trkpt>
      <trkpt lat="45.8555" lon="1.23745">
        <ele>333.23</ele>
        <time>2018-03-23T08:55:12Z</time>
      </trkpt>
      <trkpt lat="45.85593" lon="1.23723">
        <ele>334.68</ele>
        <time>2018-03-23T08:55:32Z</time>
      </trkpt>
      <trkpt lat="45.85625" lon="1.23709">
        <ele>336.12</ele>
        <time>2018-03-23T08:55:49Z</time>
      </trkpt>
      <trkpt lat="45.85652" lon="1.2369">
        <ele>336.6</ele>
        <time>2018-03-23T08:56:03Z</time>
      </trkpt>
      <trkpt lat="45.85679" lon="1.23674">
        <ele>338.52</ele>
        <time>2018-03-23T08:56:18Z</time>
      </trkpt>
      <trkpt lat="45.85701" lon="1.23658">
        <ele>339.48</ele>
        <time>2018-03-23T08:56:31Z</time>
      </trkpt>
      <trkpt lat="45.85703" lon="1.23657">
        <ele>339</ele>
        <time>2018-03-23T08:56:32Z</time>
      </trkpt>
      <trkpt lat="45.85706" lon="1.23656">
        <ele>339.96</ele>
        <time>2018-03-23T08:56:33Z</time>
      </trkpt>
      <trkpt lat="45.85708" lon="1.23655">
        <ele>339.96</ele>
        <time>2018-03-23T08:56:34Z</time>
      </trkpt>
      <trkpt lat="45.8571" lon="1.23653">
        <ele>339.96</ele>
        <time>2018-03-23T08:56:35Z</time>
      </trkpt>
      <trkpt lat="45.85711" lon="1.23652">
        <ele>339.96</ele>
        <time>2018-03-23T08:56:36Z</time>
      </trkpt>
      <trkpt lat="45.85713" lon="1.2365">
        <ele>339.96</ele>
        <time>2018-03-23T08:56:37Z</time>
      </trkpt>
      <trkpt lat="45.85715" lon="1.2365">
        <ele>340.92</ele>
        <time>2018-03-23T08:56:38Z</time>
      </trkpt>
      <trkpt lat="45.85717" lon="1.23649">
        <ele>340.92</ele>
        <time>2018-03-23T08:56:39Z</time>
      </trkpt>
      <trkpt lat="45.85719" lon="1.23649">
        <ele>340.92</ele>
        <time>2018-03-23T08:56:40Z</time>
      </trkpt>
      <trkpt lat="45.8572" lon="1.2365">
        <ele>340.92</ele>
        <time>2018-03-23T08:56:41Z</time>
      </trkpt>
      <trkpt lat="45.85721" lon="1.23649">
        <ele>341.89</ele>
        <time>2018-03-23T08:56:42Z</time>
      </trkpt>
      <trkpt lat="45.85723" lon="1.23649">
        <ele>341.41</ele>
        <time>2018-03-23T08:56:43Z</time>
      </trkpt>
      <trkpt lat="45.85724" lon="1.23649">
        <ele>341.41</ele>
        <time>2018-03-23T08:56:44Z</time>
      </trkpt>
      <trkpt lat="45.85762" lon="1.2363">
        <ele>343.33</ele>
        <time>2018-03-23T08:57:02Z</time>
      </trkpt>
      <trkpt lat="45.85805" lon="1.23601">
        <ele>345.73</ele>
        <time>2018-03-23T08:57:24Z</time>
      </trkpt>
      <trkpt lat="45.85842" lon="1.23574">
        <ele>347.65</ele>
        <time>2018-03-23T08:57:43Z</time>
      </trkpt>
      <trkpt lat="45.85884" lon="1.23555">
        <ele>349.58</ele>
        <time>2018-03-23T08:58:02Z</time>
      </trkpt>
      <trkpt lat="45.85916" lon="1.23565">
        <ele>349.1</ele>
        <time>2018-03-23T08:58:17Z</time>
      </trkpt>
      <trkpt lat="45.8592" lon="1.2357">
        <ele>349.58</ele>
        <time>2018-03-23T08:58:23Z</time>
      </trkpt>
      <trkpt lat="45.85921" lon="1.23571">
        <ele>349.58</ele>
        <time>2018-03-23T08:58:24Z</time>
      </trkpt>
      <trkpt lat="45.85923" lon="1.23573">
        <ele>349.58</ele>
        <time>2018-03-23T08:58:25Z</time>
      </trkpt>
      <trkpt lat="45.85925" lon="1.23575">
        <ele>349.58</ele>
        <time>2018-03-23T08:58:26Z</time>
      </trkpt>
      <trkpt lat="45.85929" lon="1.23576">
        <ele>349.58</ele>
        <time>2018-03-23T08:58:27Z</time>
      </trkpt>
      <trkpt lat="45.85931" lon="1.23577">
        <ele>349.58</ele>
        <time>2018-03-23T08:58:28Z</time>
      </trkpt>
      <trkpt lat="45.85973" lon="1.23592">
        <ele>350.06</ele>
        <time>2018-03-23T08:58:43Z</time>
      </trkpt>
      <trkpt lat="45.86027" lon="1.23618">
        <ele>351.02</ele>
        <time>2018-03-23T08:59:01Z</time>
      </trkpt>
      <trkpt lat="45.86088" lon="1.2365">
        <ele>351.98</ele>
        <time>2018-03-23T08:59:21Z</time>
      </trkpt>
      <trkpt lat="45.86149" lon="1.2368">
        <ele>354.38</ele>
        <time>2018-03-23T08:59:41Z</time>
      </trkpt>
      <trkpt lat="45.86194" lon="1.23699">
        <ele>356.79</ele>
        <time>2018-03-23T08:59:57Z</time>
      </trkpt>
      <trkpt lat="45.86239" lon="1.23723">
        <ele>357.27</ele>
        <time>2018-03-23T09:00:12Z</time>
      </trkpt>
      <trkpt lat="45.86322" lon="1.23765">
        <ele>357.75</ele>
        <time>2018-03-23T09:00:35Z</time>
      </trkpt>
      <trkpt lat="45.86326" lon="1.23768">
        <ele>357.75</ele>
        <time>2018-03-23T09:00:36Z</time>
      </trkpt>
      <trkpt lat="45.8633" lon="1.2377">
        <ele>357.75</ele>
        <time>2018-03-23T09:00:37Z</time>
      </trkpt>
      <trkpt lat="45.86364" lon="1.23765">
        <ele>357.27</ele>
        <time>2018-03-23T09:00:48Z</time>
      </trkpt>
      <trkpt lat="45.86387" lon="1.23764">
        <ele>357.27</ele>
        <time>2018-03-23T09:00:56Z</time>
      </trkpt>
      <trkpt lat="45.86391" lon="1.2376">
        <ele>355.83</ele>
        <time>2018-03-23T09:00:57Z</time>
      </trkpt>
      <trkpt lat="45.86395" lon="1.23756">
        <ele>355.83</ele>
        <time>2018-03-23T09:00:58Z</time>
      </trkpt>
      <trkpt lat="45.86412" lon="1.23739">
        <ele>354.86</ele>
        <time>2018-03-23T09:01:02Z</time>
      </trkpt>
      <trkpt lat="45.86431" lon="1.23719">
        <ele>354.86</ele>
        <time>2018-03-23T09:01:07Z</time>
      </trkpt>
      <trkpt lat="45.86515" lon="1.23628">
        <ele>355.83</ele>
        <time>2018-03-23T09:01:27Z</time>
      </trkpt>
      <trkpt lat="45.86562" lon="1.23578">
        <ele>358.71</ele>
        <time>2018-03-23T09:01:45Z</time>
      </trkpt>
      <trkpt lat="45.86577" lon="1.23561">
        <ele>358.71</ele>
        <time>2018-03-23T09:01:50Z</time>
      </trkpt>
      <trkpt lat="45.86588" lon="1.23547">
        <ele>357.27</ele>
        <time>2018-03-23T09:01:53Z</time>
      </trkpt>
      <trkpt lat="45.86592" lon="1.23542">
        <ele>357.27</ele>
        <time>2018-03-23T09:01:54Z</time>
      </trkpt>
      <trkpt lat="45.86655" lon="1.2345">
        <ele>354.38</ele>
        <time>2018-03-23T09:02:10Z</time>
      </trkpt>
      <trkpt lat="45.86687" lon="1.23396">
        <ele>353.9</ele>
        <time>2018-03-23T09:02:20Z</time>
      </trkpt>
      <trkpt lat="45.86737" lon="1.23314">
        <ele>356.31</ele>
        <time>2018-03-23T09:02:38Z</time>
      </trkpt>
      <trkpt lat="45.86763" lon="1.23255">
        <ele>358.23</ele>
        <time>2018-03-23T09:02:54Z</time>
      </trkpt>
      <trkpt lat="45.86774" lon="1.23176">
        <ele>360.63</ele>
        <time>2018-03-23T09:03:13Z</time>
      </trkpt>
      <trkpt lat="45.8678" lon="1.23116">
        <ele>361.59</ele>
        <time>2018-03-23T09:03:28Z</time>
      </trkpt>
      <trkpt lat="45.86789" lon="1.23058">
        <ele>364</ele>
        <time>2018-03-23T09:03:45Z</time>
      </trkpt>
      <trkpt lat="45.86819" lon="1.23005">
        <ele>364.96</ele>
        <time>2018-03-23T09:04:01Z</time>
      </trkpt>
      <trkpt lat="45.86863" lon="1.22972">
        <ele>364.96</ele>
        <time>2018-03-23T09:04:16Z</time>
      </trkpt>
      <trkpt lat="45.86875" lon="1.22972">
        <ele>364</ele>
        <time>2018-03-23T09:04:20Z</time>
      </trkpt>
      <trkpt lat="45.86894" lon="1.22988">
        <ele>363.52</ele>
        <time>2018-03-23T09:04:26Z</time>
      </trkpt>
      <trkpt lat="45.86896" lon="1.22994">
        <ele>362.55</ele>
        <time>2018-03-23T09:04:27Z</time>
      </trkpt>
      <trkpt lat="45.86907" lon="1.23017">
        <ele>362.07</ele>
        <time>2018-03-23T09:04:31Z</time>
      </trkpt>
      <trkpt lat="45.86911" lon="1.23022">
        <ele>362.07</ele>
        <time>2018-03-23T09:04:32Z</time>
      </trkpt>
      <trkpt lat="45.86916" lon="1.23027">
        <ele>362.07</ele>
        <time>2018-03-23T09:04:33Z</time>
      </trkpt>
      <trkpt lat="45.86919" lon="1.23029">
        <ele>362.07</ele>
        <time>2018-03-23T09:04:34Z</time>
      </trkpt>
      <trkpt lat="45.86923" lon="1.23033">
        <ele>362.07</ele>
        <time>2018-03-23T09:04:35Z</time>
      </trkpt>
      <trkpt lat="45.86929" lon="1.23036">
        <ele>362.07</ele>
        <time>2018-03-23T09:04:36Z</time>
      </trkpt>
      <trkpt lat="45.86939" lon="1.23042">
        <ele>361.59</ele>
        <time>2018-03-23T09:04:38Z</time>
      </trkpt>
      <trkpt lat="45.86951" lon="1.23046">
        <ele>361.59</ele>
        <time>2018-03-23T09:04:40Z</time>
      </trkpt>
      <trkpt lat="45.86957" lon="1.23047">
        <ele>361.59</ele>
        <time>2018-03-23T09:04:41Z</time>
      </trkpt>
      <trkpt lat="45.86964" lon="1.23046">
        <ele>361.59</ele>
        <time>2018-03-23T09:04:42Z</time>
      </trkpt>
      <trkpt lat="45.8697" lon="1.23045">
        <ele>361.59</ele>
        <time>2018-03-23T09:04:43Z</time>
      </trkpt>
      <trkpt lat="45.86976" lon="1.23043">
        <ele>361.59</ele>
        <time>2018-03-23T09:04:44Z</time>
      </trkpt>
      <trkpt lat="45.86982" lon="1.2304">
        <ele>361.59</ele>
        <time>2018-03-23T09:04:45Z</time>
      </trkpt>
      <trkpt lat="45.86991" lon="1.23035">
        <ele>361.59</ele>
        <time>2018-03-23T09:04:47Z</time>
      </trkpt>
      <trkpt lat="45.87005" lon="1.23026">
        <ele>361.59</ele>
        <time>2018-03-23T09:04:50Z</time>
      </trkpt>
      <trkpt lat="45.8701" lon="1.23023">
        <ele>361.11</ele>
        <time>2018-03-23T09:04:51Z</time>
      </trkpt>
      <trkpt lat="45.87014" lon="1.23021">
        <ele>361.59</ele>
        <time>2018-03-23T09:04:52Z</time>
      </trkpt>
      <trkpt lat="45.87018" lon="1.23019">
        <ele>361.59</ele>
        <time>2018-03-23T09:04:53Z</time>
      </trkpt>
      <trkpt lat="45.87022" lon="1.23016">
        <ele>361.59</ele>
        <time>2018-03-23T09:04:54Z</time>
      </trkpt>
      <trkpt lat="45.87073" lon="1.22958">
        <ele>361.11</ele>
        <time>2018-03-23T09:05:09Z</time>
      </trkpt>
      <trkpt lat="45.871" lon="1.2291">
        <ele>359.67</ele>
        <time>2018-03-23T09:05:21Z</time>
      </trkpt>
      <trkpt lat="45.87106" lon="1.22901">
        <ele>359.67</ele>
        <time>2018-03-23T09:05:23Z</time>
      </trkpt>
      <trkpt lat="45.8711" lon="1.22897">
        <ele>359.19</ele>
        <time>2018-03-23T09:05:24Z</time>
      </trkpt>
      <trkpt lat="45.87113" lon="1.22892">
        <ele>359.19</ele>
        <time>2018-03-23T09:05:25Z</time>
      </trkpt>
      <trkpt lat="45.87121" lon="1.22883">
        <ele>358.71</ele>
        <time>2018-03-23T09:05:27Z</time>
      </trkpt>
      <trkpt lat="45.87131" lon="1.22873">
        <ele>357.75</ele>
        <time>2018-03-23T09:05:29Z</time>
      </trkpt>
      <trkpt lat="45.87141" lon="1.22858">
        <ele>356.31</ele>
        <time>2018-03-23T09:05:31Z</time>
      </trkpt>
      <trkpt lat="45.87146" lon="1.22849">
        <ele>354.86</ele>
        <time>2018-03-23T09:05:32Z</time>
      </trkpt>
      <trkpt lat="45.87152" lon="1.22838">
        <ele>353.9</ele>
        <time>2018-03-23T09:05:33Z</time>
      </trkpt>
      <trkpt lat="45.87158" lon="1.22825">
        <ele>352.46</ele>
        <time>2018-03-23T09:05:34Z</time>
      </trkpt>
      <trkpt lat="45.87163" lon="1.22812">
        <ele>351.98</ele>
        <time>2018-03-23T09:05:35Z</time>
      </trkpt>
      <trkpt lat="45.87168" lon="1.22799">
        <ele>350.54</ele>
        <time>2018-03-23T09:05:36Z</time>
      </trkpt>
      <trkpt lat="45.87183" lon="1.22758">
        <ele>349.58</ele>
        <time>2018-03-23T09:05:39Z</time>
      </trkpt>
      <trkpt lat="45.87255" lon="1.22657">
        <ele>346.69</ele>
        <time>2018-03-23T09:05:50Z</time>
      </trkpt>
      <trkpt lat="45.87273" lon="1.22634">
        <ele>345.73</ele>
        <time>2018-03-23T09:05:53Z</time>
      </trkpt>
      <trkpt lat="45.87278" lon="1.22626">
        <ele>345.73</ele>
        <time>2018-03-23T09:05:54Z</time>
      </trkpt>
      <trkpt lat="45.87307" lon="1.22593">
        <ele>345.25</ele>
        <time>2018-03-23T09:05:59Z</time>
      </trkpt>
      <trkpt lat="45.87312" lon="1.22588">
        <ele>345.25</ele>
        <time>2018-03-23T09:06:00Z</time>
      </trkpt>
      <trkpt lat="45.87315" lon="1.22581">
        <ele>345.25</ele>
        <time>2018-03-23T09:06:01Z</time>
      </trkpt>
      <trkpt lat="45.87318" lon="1.22574">
        <ele>345.25</ele>
        <time>2018-03-23T09:06:02Z</time>
      </trkpt>
      <trkpt lat="45.87319" lon="1.2257">
        <ele>345.25</ele>
        <time>2018-03-23T09:06:03Z</time>
      </trkpt>
      <trkpt lat="45.87322" lon="1.22566">
        <ele>345.25</ele>
        <time>2018-03-23T09:06:04Z</time>
      </trkpt>
      <trkpt lat="45.87325" lon="1.22563">
        <ele>345.25</ele>
        <time>2018-03-23T09:06:05Z</time>
      </trkpt>
      <trkpt lat="45.87328" lon="1.22561">
        <ele>345.25</ele>
        <time>2018-03-23T09:06:06Z</time>
      </trkpt>
      <trkpt lat="45.87329" lon="1.22559">
        <ele>345.25</ele>
        <time>2018-03-23T09:06:07Z</time>
      </trkpt>
      <trkpt lat="45.87331" lon="1.22558">
        <ele>345.25</ele>
        <time>2018-03-23T09:06:08Z</time>
      </trkpt>
      <trkpt lat="45.87335" lon="1.22557">
        <ele>346.21</ele>
        <time>2018-03-23T09:06:10Z</time>
      </trkpt>
      <trkpt lat="45.87341" lon="1.22555">
        <ele>346.21</ele>
        <time>2018-03-23T09:06:13Z</time>
      </trkpt>
      <trkpt lat="45.87343" lon="1.22554">
        <ele>346.21</ele>
        <time>2018-03-23T09:06:14Z</time>
      </trkpt>
      <trkpt lat="45.87345" lon="1.22554">
        <ele>346.69</ele>
        <time>2018-03-23T09:06:15Z</time>
      </trkpt>
      <trkpt lat="45.87383" lon="1.22547">
        <ele>348.13</ele>
        <time>2018-03-23T09:06:31Z</time>
      </trkpt>
      <trkpt lat="45.87391" lon="1.2254">
        <ele>348.62</ele>
        <time>2018-03-23T09:06:35Z</time>
      </trkpt>
      <trkpt lat="45.87393" lon="1.22539">
        <ele>349.1</ele>
        <time>2018-03-23T09:06:36Z</time>
      </trkpt>
      <trkpt lat="45.87395" lon="1.22538">
        <ele>349.1</ele>
        <time>2018-03-23T09:06:37Z</time>
      </trkpt>
      <trkpt lat="45.87399" lon="1.22533">
        <ele>349.58</ele>
        <time>2018-03-23T09:06:40Z</time>
      </trkpt>
      <trkpt lat="45.87401" lon="1.22531">
        <ele>349.58</ele>
        <time>2018-03-23T09:06:41Z</time>
      </trkpt>
      <trkpt lat="45.87406" lon="1.22525">
        <ele>350.54</ele>
        <time>2018-03-23T09:06:44Z</time>
      </trkpt>
      <trkpt lat="45.87428" lon="1.22504">
        <ele>352.94</ele>
        <time>2018-03-23T09:06:59Z</time>
      </trkpt>
      <trkpt lat="45.87438" lon="1.22491">
        <ele>354.38</ele>
        <time>2018-03-23T09:07:07Z</time>
      </trkpt>
      <trkpt lat="45.87449" lon="1.22472">
        <ele>355.34</ele>
        <time>2018-03-23T09:07:19Z</time>
      </trkpt>
      <trkpt lat="45.87452" lon="1.2247">
        <ele>355.34</ele>
        <time>2018-03-23T09:07:20Z</time>
      </trkpt>
      <trkpt lat="45.87454" lon="1.22468">
        <ele>355.34</ele>
        <time>2018-03-23T09:07:21Z</time>
      </trkpt>
      <trkpt lat="45.87497" lon="1.22443">
        <ele>356.31</ele>
        <time>2018-03-23T09:07:36Z</time>
      </trkpt>
      <trkpt lat="45.87526" lon="1.2243">
        <ele>357.27</ele>
        <time>2018-03-23T09:07:52Z</time>
      </trkpt>
      <trkpt lat="45.87552" lon="1.22416">
        <ele>359.19</ele>
        <time>2018-03-23T09:08:10Z</time>
      </trkpt>
      <trkpt lat="45.87574" lon="1.22401">
        <ele>361.59</ele>
        <time>2018-03-23T09:08:29Z</time>
      </trkpt>
      <trkpt lat="45.87588" lon="1.22393">
        <ele>364</ele>
        <time>2018-03-23T09:08:46Z</time>
      </trkpt>
      <trkpt lat="45.87602" lon="1.22384">
        <ele>366.88</ele>
        <time>2018-03-23T09:09:01Z</time>
      </trkpt>
      <trkpt lat="45.87615" lon="1.22377">
        <ele>368.8</ele>
        <time>2018-03-23T09:09:16Z</time>
      </trkpt>
      <trkpt lat="45.87618" lon="1.22371">
        <ele>369.76</ele>
        <time>2018-03-23T09:09:29Z</time>
      </trkpt>
      <trkpt lat="45.87631" lon="1.22364">
        <ele>371.21</ele>
        <time>2018-03-23T09:09:49Z</time>
      </trkpt>
      <trkpt lat="45.87643" lon="1.22358">
        <ele>373.13</ele>
        <time>2018-03-23T09:10:08Z</time>
      </trkpt>
      <trkpt lat="45.87658" lon="1.22349">
        <ele>374.09</ele>
        <time>2018-03-23T09:10:26Z</time>
      </trkpt>
      <trkpt lat="45.87654" lon="1.22339">
        <ele>374.57</ele>
        <time>2018-03-23T09:10:39Z</time>
      </trkpt>
      <trkpt lat="45.87653" lon="1.22338">
        <ele>374.57</ele>
        <time>2018-03-23T09:10:40Z</time>
      </trkpt>
      <trkpt lat="45.87652" lon="1.22335">
        <ele>374.09</ele>
        <time>2018-03-23T09:10:43Z</time>
      </trkpt>
      <trkpt lat="45.8765" lon="1.22328">
        <ele>374.09</ele>
        <time>2018-03-23T09:10:50Z</time>
      </trkpt>
      <trkpt lat="45.87648" lon="1.22326">
        <ele>374.09</ele>
        <time>2018-03-23T09:10:51Z</time>
      </trkpt>
      <trkpt lat="45.87647" lon="1.22325">
        <ele>374.09</ele>
        <time>2018-03-23T09:10:52Z</time>
      </trkpt>
      <trkpt lat="45.8762" lon="1.22306">
        <ele>374.09</ele>
        <time>2018-03-23T09:11:06Z</time>
      </trkpt>
      <trkpt lat="45.87614" lon="1.22303">
        <ele>372.17</ele>
        <time>2018-03-23T09:11:08Z</time>
      </trkpt>
      <trkpt lat="45.87589" lon="1.22283">
        <ele>371.69</ele>
        <time>2018-03-23T09:11:18Z</time>
      </trkpt>
      <trkpt lat="45.87575" lon="1.22269">
        <ele>369.76</ele>
        <time>2018-03-23T09:11:24Z</time>
      </trkpt>
      <trkpt lat="45.87572" lon="1.22266">
        <ele>369.76</ele>
        <time>2018-03-23T09:11:25Z</time>
      </trkpt>
      <trkpt lat="45.87568" lon="1.22264">
        <ele>369.76</ele>
        <time>2018-03-23T09:11:26Z</time>
      </trkpt>
      <trkpt lat="45.87565" lon="1.22263">
        <ele>369.76</ele>
        <time>2018-03-23T09:11:27Z</time>
      </trkpt>
      <trkpt lat="45.8756" lon="1.2226">
        <ele>369.76</ele>
        <time>2018-03-23T09:11:28Z</time>
      </trkpt>
      <trkpt lat="45.87556" lon="1.22258">
        <ele>369.28</ele>
        <time>2018-03-23T09:11:29Z</time>
      </trkpt>
      <trkpt lat="45.87533" lon="1.22224">
        <ele>367.84</ele>
        <time>2018-03-23T09:11:39Z</time>
      </trkpt>
      <trkpt lat="45.87537" lon="1.22191">
        <ele>366.4</ele>
        <time>2018-03-23T09:11:50Z</time>
      </trkpt>
      <trkpt lat="45.87548" lon="1.2217">
        <ele>365.92</ele>
        <time>2018-03-23T09:11:59Z</time>
      </trkpt>
      <trkpt lat="45.87549" lon="1.22167">
        <ele>365.92</ele>
        <time>2018-03-23T09:12:00Z</time>
      </trkpt>
      <trkpt lat="45.8755" lon="1.22165">
        <ele>365.92</ele>
        <time>2018-03-23T09:12:01Z</time>
      </trkpt>
      <trkpt lat="45.87551" lon="1.22163">
        <ele>365.92</ele>
        <time>2018-03-23T09:12:02Z</time>
      </trkpt>
      <trkpt lat="45.8755" lon="1.22161">
        <ele>365.92</ele>
        <time>2018-03-23T09:12:03Z</time>
      </trkpt>
      <trkpt lat="45.8755" lon="1.22158">
        <ele>364.48</ele>
        <time>2018-03-23T09:12:04Z</time>
      </trkpt>
      <trkpt lat="45.87543" lon="1.22149">
        <ele>363.04</ele>
        <time>2018-03-23T09:12:07Z</time>
      </trkpt>
      <trkpt lat="45.87531" lon="1.22136">
        <ele>360.15</ele>
        <time>2018-03-23T09:12:11Z</time>
      </trkpt>
      <trkpt lat="45.87527" lon="1.22135">
        <ele>360.15</ele>
        <time>2018-03-23T09:12:12Z</time>
      </trkpt>
      <trkpt lat="45.87512" lon="1.22128">
        <ele>358.71</ele>
        <time>2018-03-23T09:12:18Z</time>
      </trkpt>
      <trkpt lat="45.87504" lon="1.22117">
        <ele>358.71</ele>
        <time>2018-03-23T09:12:22Z</time>
      </trkpt>
      <trkpt lat="45.87494" lon="1.2211">
        <ele>358.23</ele>
        <time>2018-03-23T09:12:26Z</time>
      </trkpt>
      <trkpt lat="45.87491" lon="1.22109">
        <ele>357.75</ele>
        <time>2018-03-23T09:12:28Z</time>
      </trkpt>
      <trkpt lat="45.87486" lon="1.22081">
        <ele>359.19</ele>
        <time>2018-03-23T09:12:38Z</time>
      </trkpt>
      <trkpt lat="45.8749" lon="1.22066">
        <ele>359.19</ele>
        <time>2018-03-23T09:12:44Z</time>
      </trkpt>
      <trkpt lat="45.8749" lon="1.22045">
        <ele>359.67</ele>
        <time>2018-03-23T09:12:48Z</time>
      </trkpt>
      <trkpt lat="45.87499" lon="1.2199">
        <ele>361.59</ele>
        <time>2018-03-23T09:13:03Z</time>
      </trkpt>
      <trkpt lat="45.87503" lon="1.2198">
        <ele>361.59</ele>
        <time>2018-03-23T09:13:07Z</time>
      </trkpt>
      <trkpt lat="45.87507" lon="1.2197">
        <ele>362.07</ele>
        <time>2018-03-23T09:13:12Z</time>
      </trkpt>
      <trkpt lat="45.8751" lon="1.21964">
        <ele>363.04</ele>
        <time>2018-03-23T09:13:15Z</time>
      </trkpt>
      <trkpt lat="45.87506" lon="1.21934">
        <ele>366.88</ele>
        <time>2018-03-23T09:13:32Z</time>
      </trkpt>
      <trkpt lat="45.87498" lon="1.21914">
        <ele>368.32</ele>
        <time>2018-03-23T09:13:42Z</time>
      </trkpt>
      <trkpt lat="45.87493" lon="1.21876">
        <ele>369.76</ele>
        <time>2018-03-23T09:13:56Z</time>
      </trkpt>
      <trkpt lat="45.87497" lon="1.21858">
        <ele>369.28</ele>
        <time>2018-03-23T09:14:04Z</time>
      </trkpt>
      <trkpt lat="45.87497" lon="1.21854">
        <ele>369.28</ele>
        <time>2018-03-23T09:14:06Z</time>
      </trkpt>
      <trkpt lat="45.87492" lon="1.21834">
        <ele>367.36</ele>
        <time>2018-03-23T09:14:11Z</time>
      </trkpt>
      <trkpt lat="45.87489" lon="1.21825">
        <ele>366.4</ele>
        <time>2018-03-23T09:14:14Z</time>
      </trkpt>
      <trkpt lat="45.87486" lon="1.2182">
        <ele>365.44</ele>
        <time>2018-03-23T09:14:15Z</time>
      </trkpt>
      <trkpt lat="45.87484" lon="1.21819">
        <ele>365.44</ele>
        <time>2018-03-23T09:14:16Z</time>
      </trkpt>
      <trkpt lat="45.87482" lon="1.21818">
        <ele>364.48</ele>
        <time>2018-03-23T09:14:17Z</time>
      </trkpt>
      <trkpt lat="45.8748" lon="1.21818">
        <ele>364.48</ele>
        <time>2018-03-23T09:14:18Z</time>
      </trkpt>
      <trkpt lat="45.87477" lon="1.21818">
        <ele>364</ele>
        <time>2018-03-23T09:14:19Z</time>
      </trkpt>
      <trkpt lat="45.87474" lon="1.21816">
        <ele>364</ele>
        <time>2018-03-23T09:14:20Z</time>
      </trkpt>
      <trkpt lat="45.8747" lon="1.21813">
        <ele>363.04</ele>
        <time>2018-03-23T09:14:21Z</time>
      </trkpt>
      <trkpt lat="45.87467" lon="1.21809">
        <ele>362.55</ele>
        <time>2018-03-23T09:14:22Z</time>
      </trkpt>
      <trkpt lat="45.87465" lon="1.21805">
        <ele>362.55</ele>
        <time>2018-03-23T09:14:23Z</time>
      </trkpt>
      <trkpt lat="45.8746" lon="1.21795">
        <ele>362.55</ele>
        <time>2018-03-23T09:14:25Z</time>
      </trkpt>
      <trkpt lat="45.87459" lon="1.2179">
        <ele>362.55</ele>
        <time>2018-03-23T09:14:26Z</time>
      </trkpt>
      <trkpt lat="45.87458" lon="1.21785">
        <ele>362.55</ele>
        <time>2018-03-23T09:14:27Z</time>
      </trkpt>
      <trkpt lat="45.87457" lon="1.21781">
        <ele>362.55</ele>
        <time>2018-03-23T09:14:28Z</time>
      </trkpt>
      <trkpt lat="45.87456" lon="1.21777">
        <ele>362.55</ele>
        <time>2018-03-23T09:14:29Z</time>
      </trkpt>
      <trkpt lat="45.87455" lon="1.21775">
        <ele>362.55</ele>
        <time>2018-03-23T09:14:30Z</time>
      </trkpt>
      <trkpt lat="45.87454" lon="1.21773">
        <ele>362.55</ele>
        <time>2018-03-23T09:14:31Z</time>
      </trkpt>
      <trkpt lat="45.87452" lon="1.2177">
        <ele>362.55</ele>
        <time>2018-03-23T09:14:32Z</time>
      </trkpt>
      <trkpt lat="45.87451" lon="1.21767">
        <ele>362.55</ele>
        <time>2018-03-23T09:14:33Z</time>
      </trkpt>
      <trkpt lat="45.8745" lon="1.21765">
        <ele>362.55</ele>
        <time>2018-03-23T09:14:34Z</time>
      </trkpt>
      <trkpt lat="45.87449" lon="1.21762">
        <ele>362.55</ele>
        <time>2018-03-23T09:14:35Z</time>
      </trkpt>
      <trkpt lat="45.87448" lon="1.21759">
        <ele>362.55</ele>
        <time>2018-03-23T09:14:36Z</time>
      </trkpt>
      <trkpt lat="45.87448" lon="1.21757">
        <ele>362.55</ele>
        <time>2018-03-23T09:14:37Z</time>
      </trkpt>
      <trkpt lat="45.87447" lon="1.21755">
        <ele>362.55</ele>
        <time>2018-03-23T09:14:38Z</time>
      </trkpt>
      <trkpt lat="45.87439" lon="1.21739">
        <ele>362.55</ele>
        <time>2018-03-23T09:14:46Z</time>
      </trkpt>
      <trkpt lat="45.87435" lon="1.21737">
        <ele>362.55</ele>
        <time>2018-03-23T09:14:47Z</time>
      </trkpt>
      <trkpt lat="45.87418" lon="1.21726">
        <ele>364.48</ele>
        <time>2018-03-23T09:14:59Z</time>
      </trkpt>
      <trkpt lat="45.87416" lon="1.21725">
        <ele>365.44</ele>
        <time>2018-03-23T09:15:00Z</time>
      </trkpt>
      <trkpt lat="45.87413" lon="1.21725">
        <ele>365.44</ele>
        <time>2018-03-23T09:15:01Z</time>
      </trkpt>
      <trkpt lat="45.87412" lon="1.21725">
        <ele>365.44</ele>
        <time>2018-03-23T09:15:02Z</time>
      </trkpt>
      <trkpt lat="45.87408" lon="1.21724">
        <ele>366.4</ele>
        <time>2018-03-23T09:15:04Z</time>
      </trkpt>
      <trkpt lat="45.87406" lon="1.21724">
        <ele>366.4</ele>
        <time>2018-03-23T09:15:05Z</time>
      </trkpt>
      <trkpt lat="45.87383" lon="1.21726">
        <ele>368.8</ele>
        <time>2018-03-23T09:15:18Z</time>
      </trkpt>
      <trkpt lat="45.87359" lon="1.21722">
        <ele>371.21</ele>
        <time>2018-03-23T09:15:33Z</time>
      </trkpt>
      <trkpt lat="45.87352" lon="1.2172">
        <ele>371.69</ele>
        <time>2018-03-23T09:15:39Z</time>
      </trkpt>
      <trkpt lat="45.8735" lon="1.21717">
        <ele>373.13</ele>
        <time>2018-03-23T09:15:44Z</time>
      </trkpt>
      <trkpt lat="45.87349" lon="1.21716">
        <ele>373.13</ele>
        <time>2018-03-23T09:15:45Z</time>
      </trkpt>
      <trkpt lat="45.8735" lon="1.21712">
        <ele>373.13</ele>
        <time>2018-03-23T09:15:48Z</time>
      </trkpt>
      <trkpt lat="45.87351" lon="1.21711">
        <ele>373.61</ele>
        <time>2018-03-23T09:15:49Z</time>
      </trkpt>
      <trkpt lat="45.87352" lon="1.21709">
        <ele>373.61</ele>
        <time>2018-03-23T09:15:50Z</time>
      </trkpt>
      <trkpt lat="45.87353" lon="1.21708">
        <ele>373.61</ele>
        <time>2018-03-23T09:15:51Z</time>
      </trkpt>
      <trkpt lat="45.87355" lon="1.21706">
        <ele>373.61</ele>
        <time>2018-03-23T09:15:52Z</time>
      </trkpt>
      <trkpt lat="45.87356" lon="1.21705">
        <ele>373.61</ele>
        <time>2018-03-23T09:15:53Z</time>
      </trkpt>
      <trkpt lat="45.87357" lon="1.21704">
        <ele>374.09</ele>
        <time>2018-03-23T09:15:54Z</time>
      </trkpt>
      <trkpt lat="45.87359" lon="1.21703">
        <ele>373.61</ele>
        <time>2018-03-23T09:15:55Z</time>
      </trkpt>
      <trkpt lat="45.87359" lon="1.21666">
        <ele>375.53</ele>
        <time>2018-03-23T09:16:11Z</time>
      </trkpt>
      <trkpt lat="45.87346" lon="1.21627">
        <ele>377.45</ele>
        <time>2018-03-23T09:16:30Z</time>
      </trkpt>
      <trkpt lat="45.8733" lon="1.2159">
        <ele>379.38</ele>
        <time>2018-03-23T09:16:47Z</time>
      </trkpt>
      <trkpt lat="45.87314" lon="1.21549">
        <ele>381.3</ele>
        <time>2018-03-23T09:17:05Z</time>
      </trkpt>
      <trkpt lat="45.87298" lon="1.2151">
        <ele>382.74</ele>
        <time>2018-03-23T09:17:22Z</time>
      </trkpt>
      <trkpt lat="45.87291" lon="1.21492">
        <ele>383.22</ele>
        <time>2018-03-23T09:17:29Z</time>
      </trkpt>
      <trkpt lat="45.87289" lon="1.21491">
        <ele>383.7</ele>
        <time>2018-03-23T09:17:30Z</time>
      </trkpt>
      <trkpt lat="45.87287" lon="1.2149">
        <ele>383.7</ele>
        <time>2018-03-23T09:17:31Z</time>
      </trkpt>
      <trkpt lat="45.87285" lon="1.21489">
        <ele>383.7</ele>
        <time>2018-03-23T09:17:32Z</time>
      </trkpt>
      <trkpt lat="45.87283" lon="1.21488">
        <ele>383.7</ele>
        <time>2018-03-23T09:17:33Z</time>
      </trkpt>
      <trkpt lat="45.87281" lon="1.21488">
        <ele>383.7</ele>
        <time>2018-03-23T09:17:34Z</time>
      </trkpt>
      <trkpt lat="45.87278" lon="1.21488">
        <ele>383.7</ele>
        <time>2018-03-23T09:17:35Z</time>
      </trkpt>
      <trkpt lat="45.87275" lon="1.21488">
        <ele>383.7</ele>
        <time>2018-03-23T09:17:36Z</time>
      </trkpt>
      <trkpt lat="45.87272" lon="1.2149">
        <ele>383.7</ele>
        <time>2018-03-23T09:17:37Z</time>
      </trkpt>
      <trkpt lat="45.87269" lon="1.21491">
        <ele>383.7</ele>
        <time>2018-03-23T09:17:38Z</time>
      </trkpt>
      <trkpt lat="45.87262" lon="1.21494">
        <ele>382.26</ele>
        <time>2018-03-23T09:17:40Z</time>
      </trkpt>
      <trkpt lat="45.87208" lon="1.21522">
        <ele>380.82</ele>
        <time>2018-03-23T09:17:54Z</time>
      </trkpt>
      <trkpt lat="45.87169" lon="1.21541">
        <ele>379.86</ele>
        <time>2018-03-23T09:18:02Z</time>
      </trkpt>
      <trkpt lat="45.87164" lon="1.21544">
        <ele>379.86</ele>
        <time>2018-03-23T09:18:03Z</time>
      </trkpt>
      <trkpt lat="45.87159" lon="1.21547">
        <ele>379.38</ele>
        <time>2018-03-23T09:18:04Z</time>
      </trkpt>
      <trkpt lat="45.87121" lon="1.21574">
        <ele>377.94</ele>
        <time>2018-03-23T09:18:15Z</time>
      </trkpt>
      <trkpt lat="45.87107" lon="1.21579">
        <ele>377.45</ele>
        <time>2018-03-23T09:18:18Z</time>
      </trkpt>
      <trkpt lat="45.87103" lon="1.21581">
        <ele>377.45</ele>
        <time>2018-03-23T09:18:19Z</time>
      </trkpt>
      <trkpt lat="45.87099" lon="1.21584">
        <ele>376.97</ele>
        <time>2018-03-23T09:18:20Z</time>
      </trkpt>
      <trkpt lat="45.87095" lon="1.21586">
        <ele>376.97</ele>
        <time>2018-03-23T09:18:21Z</time>
      </trkpt>
      <trkpt lat="45.8709" lon="1.21589">
        <ele>376.01</ele>
        <time>2018-03-23T09:18:22Z</time>
      </trkpt>
      <trkpt lat="45.87085" lon="1.21593">
        <ele>376.01</ele>
        <time>2018-03-23T09:18:23Z</time>
      </trkpt>
      <trkpt lat="45.87" lon="1.21675">
        <ele>372.65</ele>
        <time>2018-03-23T09:18:39Z</time>
      </trkpt>
      <trkpt lat="45.86994" lon="1.21682">
        <ele>372.17</ele>
        <time>2018-03-23T09:18:40Z</time>
      </trkpt>
      <trkpt lat="45.86929" lon="1.21745">
        <ele>370.24</ele>
        <time>2018-03-23T09:18:52Z</time>
      </trkpt>
      <trkpt lat="45.86899" lon="1.21774">
        <ele>369.76</ele>
        <time>2018-03-23T09:18:59Z</time>
      </trkpt>
      <trkpt lat="45.86895" lon="1.21779">
        <ele>369.76</ele>
        <time>2018-03-23T09:19:00Z</time>
      </trkpt>
      <trkpt lat="45.86893" lon="1.21784">
        <ele>369.28</ele>
        <time>2018-03-23T09:19:01Z</time>
      </trkpt>
      <trkpt lat="45.86885" lon="1.21804">
        <ele>368.8</ele>
        <time>2018-03-23T09:19:04Z</time>
      </trkpt>
      <trkpt lat="45.86883" lon="1.2181">
        <ele>368.8</ele>
        <time>2018-03-23T09:19:05Z</time>
      </trkpt>
      <trkpt lat="45.86874" lon="1.2183">
        <ele>367.84</ele>
        <time>2018-03-23T09:19:08Z</time>
      </trkpt>
      <trkpt lat="45.86842" lon="1.21888">
        <ele>366.4</ele>
        <time>2018-03-23T09:19:17Z</time>
      </trkpt>
      <trkpt lat="45.86835" lon="1.21896">
        <ele>365.92</ele>
        <time>2018-03-23T09:19:19Z</time>
      </trkpt>
      <trkpt lat="45.86829" lon="1.21897">
        <ele>365.92</ele>
        <time>2018-03-23T09:19:20Z</time>
      </trkpt>
      <trkpt lat="45.86824" lon="1.21896">
        <ele>365.92</ele>
        <time>2018-03-23T09:19:21Z</time>
      </trkpt>
      <trkpt lat="45.86821" lon="1.21897">
        <ele>365.92</ele>
        <time>2018-03-23T09:19:22Z</time>
      </trkpt>
      <trkpt lat="45.86817" lon="1.21898">
        <ele>367.36</ele>
        <time>2018-03-23T09:19:23Z</time>
      </trkpt>
      <trkpt lat="45.86813" lon="1.21897">
        <ele>367.36</ele>
        <time>2018-03-23T09:19:24Z</time>
      </trkpt>
      <trkpt lat="45.86809" lon="1.21897">
        <ele>367.84</ele>
        <time>2018-03-23T09:19:25Z</time>
      </trkpt>
      <trkpt lat="45.86805" lon="1.21897">
        <ele>367.84</ele>
        <time>2018-03-23T09:19:26Z</time>
      </trkpt>
      <trkpt lat="45.86758" lon="1.21899">
        <ele>369.28</ele>
        <time>2018-03-23T09:19:38Z</time>
      </trkpt>
      <trkpt lat="45.86734" lon="1.21898">
        <ele>367.84</ele>
        <time>2018-03-23T09:19:43Z</time>
      </trkpt>
      <trkpt lat="45.86721" lon="1.21894">
        <ele>367.84</ele>
        <time>2018-03-23T09:19:46Z</time>
      </trkpt>
      <trkpt lat="45.86718" lon="1.21892">
        <ele>367.84</ele>
        <time>2018-03-23T09:19:47Z</time>
      </trkpt>
      <trkpt lat="45.86692" lon="1.21867">
        <ele>367.84</ele>
        <time>2018-03-23T09:19:54Z</time>
      </trkpt>
      <trkpt lat="45.86689" lon="1.21862">
        <ele>367.84</ele>
        <time>2018-03-23T09:19:55Z</time>
      </trkpt>
      <trkpt lat="45.86668" lon="1.21811">
        <ele>367.36</ele>
        <time>2018-03-23T09:20:04Z</time>
      </trkpt>
      <trkpt lat="45.86664" lon="1.21793">
        <ele>367.36</ele>
        <time>2018-03-23T09:20:07Z</time>
      </trkpt>
      <trkpt lat="45.86664" lon="1.21786">
        <ele>367.36</ele>
        <time>2018-03-23T09:20:08Z</time>
      </trkpt>
      <trkpt lat="45.8667" lon="1.21732">
        <ele>366.88</ele>
        <time>2018-03-23T09:20:16Z</time>
      </trkpt>
      <trkpt lat="45.86699" lon="1.21661">
        <ele>365.92</ele>
        <time>2018-03-23T09:20:28Z</time>
      </trkpt>
      <trkpt lat="45.86701" lon="1.21655">
        <ele>365.92</ele>
        <time>2018-03-23T09:20:29Z</time>
      </trkpt>
      <trkpt lat="45.86704" lon="1.2165">
        <ele>365.44</ele>
        <time>2018-03-23T09:20:30Z</time>
      </trkpt>
      <trkpt lat="45.86707" lon="1.21646">
        <ele>365.44</ele>
        <time>2018-03-23T09:20:31Z</time>
      </trkpt>
      <trkpt lat="45.8671" lon="1.21642">
        <ele>365.44</ele>
        <time>2018-03-23T09:20:32Z</time>
      </trkpt>
      <trkpt lat="45.8672" lon="1.2163">
        <ele>365.44</ele>
        <time>2018-03-23T09:20:35Z</time>
      </trkpt>
      <trkpt lat="45.86723" lon="1.21624">
        <ele>365.44</ele>
        <time>2018-03-23T09:20:36Z</time>
      </trkpt>
      <trkpt lat="45.86725" lon="1.21617">
        <ele>365.44</ele>
        <time>2018-03-23T09:20:37Z</time>
      </trkpt>
      <trkpt lat="45.86726" lon="1.21612">
        <ele>365.44</ele>
        <time>2018-03-23T09:20:38Z</time>
      </trkpt>
      <trkpt lat="45.86727" lon="1.21604">
        <ele>365.44</ele>
        <time>2018-03-23T09:20:39Z</time>
      </trkpt>
      <trkpt lat="45.86728" lon="1.2158">
        <ele>364.48</ele>
        <time>2018-03-23T09:20:42Z</time>
      </trkpt>
      <trkpt lat="45.86727" lon="1.21571">
        <ele>364</ele>
        <time>2018-03-23T09:20:43Z</time>
      </trkpt>
      <trkpt lat="45.86725" lon="1.21562">
        <ele>364</ele>
        <time>2018-03-23T09:20:44Z</time>
      </trkpt>
      <trkpt lat="45.86722" lon="1.21554">
        <ele>363.52</ele>
        <time>2018-03-23T09:20:45Z</time>
      </trkpt>
      <trkpt lat="45.86718" lon="1.21546">
        <ele>363.52</ele>
        <time>2018-03-23T09:20:46Z</time>
      </trkpt>
      <trkpt lat="45.86715" lon="1.21538">
        <ele>363.04</ele>
        <time>2018-03-23T09:20:47Z</time>
      </trkpt>
      <trkpt lat="45.86683" lon="1.21474">
        <ele>361.59</ele>
        <time>2018-03-23T09:20:56Z</time>
      </trkpt>
      <trkpt lat="45.8668" lon="1.21467">
        <ele>361.59</ele>
        <time>2018-03-23T09:20:57Z</time>
      </trkpt>
      <trkpt lat="45.86678" lon="1.21459">
        <ele>361.59</ele>
        <time>2018-03-23T09:20:58Z</time>
      </trkpt>
      <trkpt lat="45.86676" lon="1.21452">
        <ele>361.59</ele>
        <time>2018-03-23T09:20:59Z</time>
      </trkpt>
      <trkpt lat="45.86674" lon="1.21446">
        <ele>361.59</ele>
        <time>2018-03-23T09:21:00Z</time>
      </trkpt>
      <trkpt lat="45.86671" lon="1.21439">
        <ele>361.59</ele>
        <time>2018-03-23T09:21:01Z</time>
      </trkpt>
      <trkpt lat="45.86633" lon="1.21363">
        <ele>357.75</ele>
        <time>2018-03-23T09:21:11Z</time>
      </trkpt>
      <trkpt lat="45.86594" lon="1.21277">
        <ele>354.38</ele>
        <time>2018-03-23T09:21:21Z</time>
      </trkpt>
      <trkpt lat="45.8659" lon="1.21269">
        <ele>354.38</ele>
        <time>2018-03-23T09:21:22Z</time>
      </trkpt>
      <trkpt lat="45.86586" lon="1.2126">
        <ele>354.38</ele>
        <time>2018-03-23T09:21:23Z</time>
      </trkpt>
      <trkpt lat="45.86531" lon="1.21131">
        <ele>351.5</ele>
        <time>2018-03-23T09:21:38Z</time>
      </trkpt>
      <trkpt lat="45.86509" lon="1.21081">
        <ele>349.58</ele>
        <time>2018-03-23T09:21:44Z</time>
      </trkpt>
      <trkpt lat="45.86489" lon="1.21045">
        <ele>348.62</ele>
        <time>2018-03-23T09:21:49Z</time>
      </trkpt>
      <trkpt lat="45.86485" lon="1.21038">
        <ele>348.62</ele>
        <time>2018-03-23T09:21:50Z</time>
      </trkpt>
      <trkpt lat="45.86448" lon="1.20947">
        <ele>345.73</ele>
        <time>2018-03-23T09:22:01Z</time>
      </trkpt>
      <trkpt lat="45.86416" lon="1.2085">
        <ele>343.33</ele>
        <time>2018-03-23T09:22:11Z</time>
      </trkpt>
      <trkpt lat="45.86406" lon="1.20818">
        <ele>343.81</ele>
        <time>2018-03-23T09:22:15Z</time>
      </trkpt>
      <trkpt lat="45.864" lon="1.20807">
        <ele>343.33</ele>
        <time>2018-03-23T09:22:17Z</time>
      </trkpt>
      <trkpt lat="45.86397" lon="1.20803">
        <ele>343.33</ele>
        <time>2018-03-23T09:22:18Z</time>
      </trkpt>
      <trkpt lat="45.86394" lon="1.20801">
        <ele>343.33</ele>
        <time>2018-03-23T09:22:19Z</time>
      </trkpt>
      <trkpt lat="45.8639" lon="1.208">
        <ele>343.33</ele>
        <time>2018-03-23T09:22:20Z</time>
      </trkpt>
      <trkpt lat="45.86386" lon="1.208">
        <ele>343.33</ele>
        <time>2018-03-23T09:22:21Z</time>
      </trkpt>
      <trkpt lat="45.86382" lon="1.20801">
        <ele>343.33</ele>
        <time>2018-03-23T09:22:22Z</time>
      </trkpt>
      <trkpt lat="45.86369" lon="1.20806">
        <ele>344.77</ele>
        <time>2018-03-23T09:22:25Z</time>
      </trkpt>
      <trkpt lat="45.86365" lon="1.20809">
        <ele>344.77</ele>
        <time>2018-03-23T09:22:26Z</time>
      </trkpt>
      <trkpt lat="45.86357" lon="1.20816">
        <ele>344.77</ele>
        <time>2018-03-23T09:22:27Z</time>
      </trkpt>
      <trkpt lat="45.86353" lon="1.2082">
        <ele>344.77</ele>
        <time>2018-03-23T09:22:28Z</time>
      </trkpt>
      <trkpt lat="45.86349" lon="1.20827">
        <ele>345.25</ele>
        <time>2018-03-23T09:22:29Z</time>
      </trkpt>
      <trkpt lat="45.86344" lon="1.20833">
        <ele>345.25</ele>
        <time>2018-03-23T09:22:30Z</time>
      </trkpt>
      <trkpt lat="45.86339" lon="1.20844">
        <ele>345.25</ele>
        <time>2018-03-23T09:22:33Z</time>
      </trkpt>
      <trkpt lat="45.86343" lon="1.20835">
        <ele>345.25</ele>
        <time>2018-03-23T09:22:44Z</time>
      </trkpt>
      <trkpt lat="45.8634" lon="1.20832">
        <ele>345.25</ele>
        <time>2018-03-23T09:22:46Z</time>
      </trkpt>
      <trkpt lat="45.86336" lon="1.20823">
        <ele>346.21</ele>
        <time>2018-03-23T09:22:50Z</time>
      </trkpt>
      <trkpt lat="45.86334" lon="1.20821">
        <ele>346.21</ele>
        <time>2018-03-23T09:22:52Z</time>
      </trkpt>
      <trkpt lat="45.86321" lon="1.20806">
        <ele>349.1</ele>
        <time>2018-03-23T09:23:05Z</time>
      </trkpt>
      <trkpt lat="45.86317" lon="1.20803">
        <ele>349.58</ele>
        <time>2018-03-23T09:23:08Z</time>
      </trkpt>
      <trkpt lat="45.86311" lon="1.20797">
        <ele>350.06</ele>
        <time>2018-03-23T09:23:12Z</time>
      </trkpt>
      <trkpt lat="45.86301" lon="1.20788">
        <ele>350.54</ele>
        <time>2018-03-23T09:23:19Z</time>
      </trkpt>
      <trkpt lat="45.86285" lon="1.20771">
        <ele>351.5</ele>
        <time>2018-03-23T09:23:34Z</time>
      </trkpt>
      <trkpt lat="45.86268" lon="1.2075">
        <ele>353.9</ele>
        <time>2018-03-23T09:23:49Z</time>
      </trkpt>
      <trkpt lat="45.86257" lon="1.20739">
        <ele>356.31</ele>
        <time>2018-03-23T09:24:05Z</time>
      </trkpt>
      <trkpt lat="45.86246" lon="1.20725">
        <ele>357.75</ele>
        <time>2018-03-23T09:24:20Z</time>
      </trkpt>
      <trkpt lat="45.86244" lon="1.20719">
        <ele>357.75</ele>
        <time>2018-03-23T09:24:23Z</time>
      </trkpt>
      <trkpt lat="45.86236" lon="1.20683">
        <ele>360.15</ele>
        <time>2018-03-23T09:24:41Z</time>
      </trkpt>
      <trkpt lat="45.8623" lon="1.20673">
        <ele>360.63</ele>
        <time>2018-03-23T09:24:50Z</time>
      </trkpt>
      <trkpt lat="45.86223" lon="1.20657">
        <ele>361.11</ele>
        <time>2018-03-23T09:25:00Z</time>
      </trkpt>
      <trkpt lat="45.86215" lon="1.20638">
        <ele>361.11</ele>
        <time>2018-03-23T09:25:05Z</time>
      </trkpt>
      <trkpt lat="45.86194" lon="1.20601">
        <ele>363.04</ele>
        <time>2018-03-23T09:25:22Z</time>
      </trkpt>
      <trkpt lat="45.86179" lon="1.20577">
        <ele>364.48</ele>
        <time>2018-03-23T09:25:40Z</time>
      </trkpt>
      <trkpt lat="45.86176" lon="1.20571">
        <ele>365.44</ele>
        <time>2018-03-23T09:25:43Z</time>
      </trkpt>
      <trkpt lat="45.86164" lon="1.20557">
        <ele>365.92</ele>
        <time>2018-03-23T09:25:53Z</time>
      </trkpt>
      <trkpt lat="45.86154" lon="1.20554">
        <ele>365.92</ele>
        <time>2018-03-23T09:25:58Z</time>
      </trkpt>
      <trkpt lat="45.86147" lon="1.20549">
        <ele>365.92</ele>
        <time>2018-03-23T09:26:00Z</time>
      </trkpt>
      <trkpt lat="45.86138" lon="1.20542">
        <ele>365.92</ele>
        <time>2018-03-23T09:26:02Z</time>
      </trkpt>
      <trkpt lat="45.86135" lon="1.20539">
        <ele>365.92</ele>
        <time>2018-03-23T09:26:03Z</time>
      </trkpt>
      <trkpt lat="45.86133" lon="1.20536">
        <ele>365.92</ele>
        <time>2018-03-23T09:26:04Z</time>
      </trkpt>
      <trkpt lat="45.86131" lon="1.20533">
        <ele>365.92</ele>
        <time>2018-03-23T09:26:05Z</time>
      </trkpt>
      <trkpt lat="45.86098" lon="1.20497">
        <ele>366.4</ele>
        <time>2018-03-23T09:26:18Z</time>
      </trkpt>
      <trkpt lat="45.86096" lon="1.20492">
        <ele>366.4</ele>
        <time>2018-03-23T09:26:19Z</time>
      </trkpt>
      <trkpt lat="45.86093" lon="1.20486">
        <ele>366.4</ele>
        <time>2018-03-23T09:26:20Z</time>
      </trkpt>
      <trkpt lat="45.86092" lon="1.2048">
        <ele>366.4</ele>
        <time>2018-03-23T09:26:21Z</time>
      </trkpt>
      <trkpt lat="45.86091" lon="1.20474">
        <ele>366.4</ele>
        <time>2018-03-23T09:26:22Z</time>
      </trkpt>
      <trkpt lat="45.8609" lon="1.20468">
        <ele>366.4</ele>
        <time>2018-03-23T09:26:23Z</time>
      </trkpt>
      <trkpt lat="45.86084" lon="1.20394">
        <ele>367.84</ele>
        <time>2018-03-23T09:26:38Z</time>
      </trkpt>
      <trkpt lat="45.86102" lon="1.20312">
        <ele>368.8</ele>
        <time>2018-03-23T09:26:55Z</time>
      </trkpt>
      <trkpt lat="45.8612" lon="1.20234">
        <ele>371.21</ele>
        <time>2018-03-23T09:27:12Z</time>
      </trkpt>
      <trkpt lat="45.86123" lon="1.20176">
        <ele>369.76</ele>
        <time>2018-03-23T09:27:23Z</time>
      </trkpt>
      <trkpt lat="45.86122" lon="1.2017">
        <ele>369.76</ele>
        <time>2018-03-23T09:27:24Z</time>
      </trkpt>
      <trkpt lat="45.8612" lon="1.2015">
        <ele>368.8</ele>
        <time>2018-03-23T09:27:27Z</time>
      </trkpt>
      <trkpt lat="45.8612" lon="1.20143">
        <ele>368.8</ele>
        <time>2018-03-23T09:27:28Z</time>
      </trkpt>
      <trkpt lat="45.8612" lon="1.20135">
        <ele>368.8</ele>
        <time>2018-03-23T09:27:29Z</time>
      </trkpt>
      <trkpt lat="45.86122" lon="1.20128">
        <ele>368.8</ele>
        <time>2018-03-23T09:27:30Z</time>
      </trkpt>
      <trkpt lat="45.86124" lon="1.20121">
        <ele>367.84</ele>
        <time>2018-03-23T09:27:31Z</time>
      </trkpt>
      <trkpt lat="45.86127" lon="1.20115">
        <ele>367.84</ele>
        <time>2018-03-23T09:27:32Z</time>
      </trkpt>
      <trkpt lat="45.86133" lon="1.20103">
        <ele>367.84</ele>
        <time>2018-03-23T09:27:34Z</time>
      </trkpt>
      <trkpt lat="45.86155" lon="1.2007">
        <ele>368.32</ele>
        <time>2018-03-23T09:27:41Z</time>
      </trkpt>
      <trkpt lat="45.86173" lon="1.20011">
        <ele>369.28</ele>
        <time>2018-03-23T09:27:53Z</time>
      </trkpt>
      <trkpt lat="45.86171" lon="1.20005">
        <ele>369.28</ele>
        <time>2018-03-23T09:27:54Z</time>
      </trkpt>
      <trkpt lat="45.8617" lon="1.2">
        <ele>369.28</ele>
        <time>2018-03-23T09:27:55Z</time>
      </trkpt>
      <trkpt lat="45.86169" lon="1.19994">
        <ele>369.28</ele>
        <time>2018-03-23T09:27:56Z</time>
      </trkpt>
      <trkpt lat="45.86168" lon="1.19989">
        <ele>370.24</ele>
        <time>2018-03-23T09:27:57Z</time>
      </trkpt>
      <trkpt lat="45.86168" lon="1.19984">
        <ele>370.24</ele>
        <time>2018-03-23T09:27:58Z</time>
      </trkpt>
      <trkpt lat="45.86167" lon="1.19979">
        <ele>370.24</ele>
        <time>2018-03-23T09:27:59Z</time>
      </trkpt>
      <trkpt lat="45.86166" lon="1.19974">
        <ele>370.24</ele>
        <time>2018-03-23T09:28:00Z</time>
      </trkpt>
      <trkpt lat="45.86149" lon="1.19928">
        <ele>368.8</ele>
        <time>2018-03-23T09:28:08Z</time>
      </trkpt>
      <trkpt lat="45.86147" lon="1.19921">
        <ele>368.32</ele>
        <time>2018-03-23T09:28:09Z</time>
      </trkpt>
      <trkpt lat="45.86145" lon="1.19913">
        <ele>368.32</ele>
        <time>2018-03-23T09:28:10Z</time>
      </trkpt>
      <trkpt lat="45.86143" lon="1.19906">
        <ele>368.32</ele>
        <time>2018-03-23T09:28:11Z</time>
      </trkpt>
      <trkpt lat="45.86138" lon="1.19886">
        <ele>367.36</ele>
        <time>2018-03-23T09:28:14Z</time>
      </trkpt>
      <trkpt lat="45.86136" lon="1.19872">
        <ele>367.36</ele>
        <time>2018-03-23T09:28:16Z</time>
      </trkpt>
      <trkpt lat="45.86134" lon="1.19865">
        <ele>367.36</ele>
        <time>2018-03-23T09:28:17Z</time>
      </trkpt>
      <trkpt lat="45.86133" lon="1.19859">
        <ele>367.36</ele>
        <time>2018-03-23T09:28:18Z</time>
      </trkpt>
      <trkpt lat="45.86115" lon="1.19787">
        <ele>368.8</ele>
        <time>2018-03-23T09:28:31Z</time>
      </trkpt>
      <trkpt lat="45.86114" lon="1.19781">
        <ele>368.8</ele>
        <time>2018-03-23T09:28:32Z</time>
      </trkpt>
      <trkpt lat="45.86108" lon="1.19733">
        <ele>367.84</ele>
        <time>2018-03-23T09:28:40Z</time>
      </trkpt>
      <trkpt lat="45.86106" lon="1.19711">
        <ele>367.84</ele>
        <time>2018-03-23T09:28:43Z</time>
      </trkpt>
      <trkpt lat="45.86105" lon="1.19704">
        <ele>367.84</ele>
        <time>2018-03-23T09:28:44Z</time>
      </trkpt>
      <trkpt lat="45.86102" lon="1.1968">
        <ele>366.4</ele>
        <time>2018-03-23T09:28:47Z</time>
      </trkpt>
      <trkpt lat="45.86094" lon="1.19626">
        <ele>364.96</ele>
        <time>2018-03-23T09:28:53Z</time>
      </trkpt>
      <trkpt lat="45.86094" lon="1.19616">
        <ele>364.48</ele>
        <time>2018-03-23T09:28:54Z</time>
      </trkpt>
      <trkpt lat="45.86094" lon="1.19608">
        <ele>364.48</ele>
        <time>2018-03-23T09:28:55Z</time>
      </trkpt>
      <trkpt lat="45.86095" lon="1.19599">
        <ele>364.48</ele>
        <time>2018-03-23T09:28:56Z</time>
      </trkpt>
      <trkpt lat="45.86096" lon="1.19591">
        <ele>364.48</ele>
        <time>2018-03-23T09:28:57Z</time>
      </trkpt>
      <trkpt lat="45.86098" lon="1.19584">
        <ele>364.48</ele>
        <time>2018-03-23T09:28:58Z</time>
      </trkpt>
      <trkpt lat="45.86102" lon="1.19569">
        <ele>364</ele>
        <time>2018-03-23T09:29:00Z</time>
      </trkpt>
      <trkpt lat="45.86103" lon="1.19564">
        <ele>364</ele>
        <time>2018-03-23T09:29:01Z</time>
      </trkpt>
      <trkpt lat="45.86103" lon="1.1956">
        <ele>364</ele>
        <time>2018-03-23T09:29:02Z</time>
      </trkpt>
      <trkpt lat="45.86103" lon="1.19558">
        <ele>364</ele>
        <time>2018-03-23T09:29:03Z</time>
      </trkpt>
      <trkpt lat="45.86104" lon="1.19555">
        <ele>364</ele>
        <time>2018-03-23T09:29:04Z</time>
      </trkpt>
      <trkpt lat="45.86104" lon="1.19549">
        <ele>364</ele>
        <time>2018-03-23T09:29:06Z</time>
      </trkpt>
      <trkpt lat="45.86103" lon="1.19546">
        <ele>363.52</ele>
        <time>2018-03-23T09:29:07Z</time>
      </trkpt>
      <trkpt lat="45.86082" lon="1.19494">
        <ele>363.04</ele>
        <time>2018-03-23T09:29:16Z</time>
      </trkpt>
      <trkpt lat="45.8606" lon="1.19473">
        <ele>364.96</ele>
        <time>2018-03-23T09:29:23Z</time>
      </trkpt>
      <trkpt lat="45.86042" lon="1.19461">
        <ele>365.92</ele>
        <time>2018-03-23T09:29:29Z</time>
      </trkpt>
      <trkpt lat="45.8604" lon="1.19458">
        <ele>365.92</ele>
        <time>2018-03-23T09:29:30Z</time>
      </trkpt>
      <trkpt lat="45.86034" lon="1.19449">
        <ele>366.4</ele>
        <time>2018-03-23T09:29:33Z</time>
      </trkpt>
      <trkpt lat="45.86033" lon="1.19445">
        <ele>366.88</ele>
        <time>2018-03-23T09:29:34Z</time>
      </trkpt>
      <trkpt lat="45.86032" lon="1.19442">
        <ele>366.88</ele>
        <time>2018-03-23T09:29:35Z</time>
      </trkpt>
      <trkpt lat="45.86032" lon="1.19438">
        <ele>367.84</ele>
        <time>2018-03-23T09:29:36Z</time>
      </trkpt>
      <trkpt lat="45.86033" lon="1.19436">
        <ele>367.36</ele>
        <time>2018-03-23T09:29:37Z</time>
      </trkpt>
      <trkpt lat="45.86035" lon="1.19433">
        <ele>367.84</ele>
        <time>2018-03-23T09:29:38Z</time>
      </trkpt>
      <trkpt lat="45.86037" lon="1.19431">
        <ele>367.36</ele>
        <time>2018-03-23T09:29:39Z</time>
      </trkpt>
      <trkpt lat="45.8604" lon="1.19429">
        <ele>367.84</ele>
        <time>2018-03-23T09:29:40Z</time>
      </trkpt>
      <trkpt lat="45.86043" lon="1.19428">
        <ele>367.36</ele>
        <time>2018-03-23T09:29:41Z</time>
      </trkpt>
      <trkpt lat="45.86072" lon="1.19413">
        <ele>367.36</ele>
        <time>2018-03-23T09:29:50Z</time>
      </trkpt>
      <trkpt lat="45.86075" lon="1.1941">
        <ele>367.36</ele>
        <time>2018-03-23T09:29:51Z</time>
      </trkpt>
      <trkpt lat="45.86121" lon="1.19367">
        <ele>368.8</ele>
        <time>2018-03-23T09:30:07Z</time>
      </trkpt>
      <trkpt lat="45.86122" lon="1.19362">
        <ele>368.8</ele>
        <time>2018-03-23T09:30:08Z</time>
      </trkpt>
      <trkpt lat="45.86125" lon="1.19315">
        <ele>367.36</ele>
        <time>2018-03-23T09:30:16Z</time>
      </trkpt>
      <trkpt lat="45.86131" lon="1.19279">
        <ele>367.36</ele>
        <time>2018-03-23T09:30:24Z</time>
      </trkpt>
      <trkpt lat="45.86141" lon="1.19243">
        <ele>370.73</ele>
        <time>2018-03-23T09:30:33Z</time>
      </trkpt>
      <trkpt lat="45.86157" lon="1.19204">
        <ele>372.65</ele>
        <time>2018-03-23T09:30:46Z</time>
      </trkpt>
      <trkpt lat="45.86158" lon="1.19202">
        <ele>372.65</ele>
        <time>2018-03-23T09:30:47Z</time>
      </trkpt>
      <trkpt lat="45.8618" lon="1.19153">
        <ele>374.09</ele>
        <time>2018-03-23T09:31:03Z</time>
      </trkpt>
      <trkpt lat="45.86202" lon="1.19109">
        <ele>374.57</ele>
        <time>2018-03-23T09:31:16Z</time>
      </trkpt>
      <trkpt lat="45.86236" lon="1.19068">
        <ele>376.01</ele>
        <time>2018-03-23T09:31:32Z</time>
      </trkpt>
      <trkpt lat="45.8624" lon="1.19061">
        <ele>376.01</ele>
        <time>2018-03-23T09:31:35Z</time>
      </trkpt>
      <trkpt lat="45.8624" lon="1.19058">
        <ele>376.97</ele>
        <time>2018-03-23T09:31:36Z</time>
      </trkpt>
      <trkpt lat="45.86241" lon="1.19056">
        <ele>376.97</ele>
        <time>2018-03-23T09:31:37Z</time>
      </trkpt>
      <trkpt lat="45.86241" lon="1.19054">
        <ele>376.97</ele>
        <time>2018-03-23T09:31:38Z</time>
      </trkpt>
      <trkpt lat="45.8624" lon="1.19053">
        <ele>376.97</ele>
        <time>2018-03-23T09:31:39Z</time>
      </trkpt>
      <trkpt lat="45.8624" lon="1.19051">
        <ele>376.97</ele>
        <time>2018-03-23T09:31:40Z</time>
      </trkpt>
      <trkpt lat="45.86239" lon="1.1905">
        <ele>377.94</ele>
        <time>2018-03-23T09:31:41Z</time>
      </trkpt>
      <trkpt lat="45.86239" lon="1.19049">
        <ele>377.94</ele>
        <time>2018-03-23T09:31:42Z</time>
      </trkpt>
      <trkpt lat="45.86228" lon="1.19048">
        <ele>379.86</ele>
        <time>2018-03-23T09:31:51Z</time>
      </trkpt>
      <trkpt lat="45.8622" lon="1.19045">
        <ele>380.82</ele>
        <time>2018-03-23T09:31:57Z</time>
      </trkpt>
      <trkpt lat="45.86219" lon="1.19046">
        <ele>380.82</ele>
        <time>2018-03-23T09:31:58Z</time>
      </trkpt>
      <trkpt lat="45.86217" lon="1.19046">
        <ele>380.82</ele>
        <time>2018-03-23T09:31:59Z</time>
      </trkpt>
      <trkpt lat="45.86216" lon="1.19045">
        <ele>380.82</ele>
        <time>2018-03-23T09:32:00Z</time>
      </trkpt>
      <trkpt lat="45.86204" lon="1.19044">
        <ele>382.26</ele>
        <time>2018-03-23T09:32:07Z</time>
      </trkpt>
      <trkpt lat="45.86199" lon="1.19041">
        <ele>382.74</ele>
        <time>2018-03-23T09:32:10Z</time>
      </trkpt>
      <trkpt lat="45.86197" lon="1.1904">
        <ele>382.74</ele>
        <time>2018-03-23T09:32:11Z</time>
      </trkpt>
      <trkpt lat="45.86195" lon="1.19039">
        <ele>382.74</ele>
        <time>2018-03-23T09:32:12Z</time>
      </trkpt>
      <trkpt lat="45.86193" lon="1.1904">
        <ele>382.74</ele>
        <time>2018-03-23T09:32:13Z</time>
      </trkpt>
      <trkpt lat="45.8619" lon="1.19041">
        <ele>383.22</ele>
        <time>2018-03-23T09:32:15Z</time>
      </trkpt>
      <trkpt lat="45.86186" lon="1.1904">
        <ele>383.22</ele>
        <time>2018-03-23T09:32:17Z</time>
      </trkpt>
      <trkpt lat="45.86182" lon="1.19037">
        <ele>381.3</ele>
        <time>2018-03-23T09:32:22Z</time>
      </trkpt>
      <trkpt lat="45.86183" lon="1.19038">
        <ele>380.34</ele>
        <time>2018-03-23T09:32:23Z</time>
      </trkpt>
      <trkpt lat="45.86183" lon="1.1904">
        <ele>380.82</ele>
        <time>2018-03-23T09:32:24Z</time>
      </trkpt>
      <trkpt lat="45.86182" lon="1.19042">
        <ele>380.34</ele>
        <time>2018-03-23T09:32:25Z</time>
      </trkpt>
      <trkpt lat="45.86182" lon="1.19044">
        <ele>380.34</ele>
        <time>2018-03-23T09:32:26Z</time>
      </trkpt>
      <trkpt lat="45.8618" lon="1.19049">
        <ele>379.86</ele>
        <time>2018-03-23T09:32:30Z</time>
      </trkpt>
      <trkpt lat="45.86179" lon="1.19049">
        <ele>379.38</ele>
        <time>2018-03-23T09:32:31Z</time>
      </trkpt>
      <trkpt lat="45.86177" lon="1.1905">
        <ele>379.38</ele>
        <time>2018-03-23T09:32:32Z</time>
      </trkpt>
      <trkpt lat="45.86176" lon="1.19051">
        <ele>379.38</ele>
        <time>2018-03-23T09:32:33Z</time>
      </trkpt>
      <trkpt lat="45.86174" lon="1.19053">
        <ele>379.38</ele>
        <time>2018-03-23T09:32:34Z</time>
      </trkpt>
      <trkpt lat="45.86173" lon="1.19056">
        <ele>379.38</ele>
        <time>2018-03-23T09:32:35Z</time>
      </trkpt>
      <trkpt lat="45.86169" lon="1.1906">
        <ele>378.9</ele>
        <time>2018-03-23T09:32:37Z</time>
      </trkpt>
      <trkpt lat="45.86156" lon="1.19059">
        <ele>378.9</ele>
        <time>2018-03-23T09:32:44Z</time>
      </trkpt>
      <trkpt lat="45.86151" lon="1.19058">
        <ele>378.42</ele>
        <time>2018-03-23T09:32:47Z</time>
      </trkpt>
      <trkpt lat="45.8614" lon="1.19057">
        <ele>378.42</ele>
        <time>2018-03-23T09:32:51Z</time>
      </trkpt>
      <trkpt lat="45.86125" lon="1.19058">
        <ele>379.86</ele>
        <time>2018-03-23T09:32:57Z</time>
      </trkpt>
      <trkpt lat="45.86084" lon="1.1907">
        <ele>378.42</ele>
        <time>2018-03-23T09:33:10Z</time>
      </trkpt>
      <trkpt lat="45.86062" lon="1.19065">
        <ele>378.42</ele>
        <time>2018-03-23T09:33:18Z</time>
      </trkpt>
      <trkpt lat="45.86052" lon="1.19059">
        <ele>379.86</ele>
        <time>2018-03-23T09:33:21Z</time>
      </trkpt>
      <trkpt lat="45.86013" lon="1.19065">
        <ele>381.78</ele>
        <time>2018-03-23T09:33:34Z</time>
      </trkpt>
      <trkpt lat="45.85968" lon="1.19062">
        <ele>381.78</ele>
        <time>2018-03-23T09:33:49Z</time>
      </trkpt>
      <trkpt lat="45.85955" lon="1.19061">
        <ele>380.34</ele>
        <time>2018-03-23T09:33:53Z</time>
      </trkpt>
      <trkpt lat="45.85912" lon="1.19057">
        <ele>377.94</ele>
        <time>2018-03-23T09:34:05Z</time>
      </trkpt>
      <trkpt lat="45.85908" lon="1.19057">
        <ele>377.94</ele>
        <time>2018-03-23T09:34:06Z</time>
      </trkpt>
      <trkpt lat="45.85903" lon="1.19056">
        <ele>377.45</ele>
        <time>2018-03-23T09:34:07Z</time>
      </trkpt>
      <trkpt lat="45.85898" lon="1.19055">
        <ele>377.45</ele>
        <time>2018-03-23T09:34:08Z</time>
      </trkpt>
      <trkpt lat="45.85879" lon="1.19056">
        <ele>376.49</ele>
        <time>2018-03-23T09:34:12Z</time>
      </trkpt>
      <trkpt lat="45.85875" lon="1.19055">
        <ele>376.49</ele>
        <time>2018-03-23T09:34:13Z</time>
      </trkpt>
      <trkpt lat="45.85815" lon="1.19049">
        <ele>375.05</ele>
        <time>2018-03-23T09:34:27Z</time>
      </trkpt>
      <trkpt lat="45.85776" lon="1.19047">
        <ele>375.05</ele>
        <time>2018-03-23T09:34:38Z</time>
      </trkpt>
      <trkpt lat="45.85759" lon="1.19043">
        <ele>374.57</ele>
        <time>2018-03-23T09:34:43Z</time>
      </trkpt>
      <trkpt lat="45.85736" lon="1.19002">
        <ele>375.53</ele>
        <time>2018-03-23T09:34:56Z</time>
      </trkpt>
      <trkpt lat="45.85721" lon="1.18933">
        <ele>376.97</ele>
        <time>2018-03-23T09:35:09Z</time>
      </trkpt>
      <trkpt lat="45.85711" lon="1.18875">
        <ele>378.42</ele>
        <time>2018-03-23T09:35:21Z</time>
      </trkpt>
      <trkpt lat="45.8571" lon="1.18872">
        <ele>378.9</ele>
        <time>2018-03-23T09:35:22Z</time>
      </trkpt>
      <trkpt lat="45.85709" lon="1.18868">
        <ele>378.9</ele>
        <time>2018-03-23T09:35:23Z</time>
      </trkpt>
      <trkpt lat="45.85708" lon="1.18864">
        <ele>378.9</ele>
        <time>2018-03-23T09:35:24Z</time>
      </trkpt>
      <trkpt lat="45.85707" lon="1.18861">
        <ele>378.9</ele>
        <time>2018-03-23T09:35:25Z</time>
      </trkpt>
      <trkpt lat="45.85696" lon="1.18803">
        <ele>382.26</ele>
        <time>2018-03-23T09:35:43Z</time>
      </trkpt>
      <trkpt lat="45.85708" lon="1.18761">
        <ele>383.7</ele>
        <time>2018-03-23T09:35:58Z</time>
      </trkpt>
      <trkpt lat="45.85751" lon="1.1871">
        <ele>384.66</ele>
        <time>2018-03-23T09:36:14Z</time>
      </trkpt>
      <trkpt lat="45.85817" lon="1.18647">
        <ele>385.63</ele>
        <time>2018-03-23T09:36:36Z</time>
      </trkpt>
      <trkpt lat="45.85866" lon="1.18591">
        <ele>387.07</ele>
        <time>2018-03-23T09:36:54Z</time>
      </trkpt>
      <trkpt lat="45.85911" lon="1.18555">
        <ele>388.51</ele>
        <time>2018-03-23T09:37:09Z</time>
      </trkpt>
      <trkpt lat="45.85965" lon="1.18508">
        <ele>389.95</ele>
        <time>2018-03-23T09:37:27Z</time>
      </trkpt>
      <trkpt lat="45.86011" lon="1.18494">
        <ele>391.39</ele>
        <time>2018-03-23T09:37:41Z</time>
      </trkpt>
      <trkpt lat="45.86055" lon="1.18491">
        <ele>393.8</ele>
        <time>2018-03-23T09:37:57Z</time>
      </trkpt>
      <trkpt lat="45.8608" lon="1.18477">
        <ele>396.2</ele>
        <time>2018-03-23T09:38:10Z</time>
      </trkpt>
      <trkpt lat="45.86091" lon="1.18465">
        <ele>396.68</ele>
        <time>2018-03-23T09:38:17Z</time>
      </trkpt>
      <trkpt lat="45.86092" lon="1.18463">
        <ele>397.64</ele>
        <time>2018-03-23T09:38:18Z</time>
      </trkpt>
      <trkpt lat="45.86094" lon="1.18461">
        <ele>397.64</ele>
        <time>2018-03-23T09:38:19Z</time>
      </trkpt>
      <trkpt lat="45.86095" lon="1.18459">
        <ele>397.64</ele>
        <time>2018-03-23T09:38:20Z</time>
      </trkpt>
      <trkpt lat="45.86097" lon="1.18456">
        <ele>398.12</ele>
        <time>2018-03-23T09:38:21Z</time>
      </trkpt>
      <trkpt lat="45.86106" lon="1.18445">
        <ele>397.16</ele>
        <time>2018-03-23T09:38:39Z</time>
      </trkpt>
      <trkpt lat="45.86106" lon="1.18444">
        <ele>398.6</ele>
        <time>2018-03-23T09:38:45Z</time>
      </trkpt>
      <trkpt lat="45.86103" lon="1.18443">
        <ele>398.6</ele>
        <time>2018-03-23T09:39:08Z</time>
      </trkpt>
      <trkpt lat="45.86105" lon="1.18442">
        <ele>398.12</ele>
        <time>2018-03-23T09:39:38Z</time>
      </trkpt>
      <trkpt lat="45.86103" lon="1.18442">
        <ele>398.12</ele>
        <time>2018-03-23T09:40:02Z</time>
      </trkpt>
      <trkpt lat="45.86101" lon="1.18441">
        <ele>398.12</ele>
        <time>2018-03-23T09:40:19Z</time>
      </trkpt>
      <trkpt lat="45.86102" lon="1.18441">
        <ele>398.12</ele>
        <time>2018-03-23T09:40:38Z</time>
      </trkpt>
      <trkpt lat="45.86103" lon="1.18446">
        <ele>398.12</ele>
        <time>2018-03-23T09:40:58Z</time>
      </trkpt>
      <trkpt lat="45.86104" lon="1.18449">
        <ele>398.12</ele>
        <time>2018-03-23T09:41:01Z</time>
      </trkpt>
      <trkpt lat="45.86107" lon="1.18458">
        <ele>398.12</ele>
        <time>2018-03-23T09:41:05Z</time>
      </trkpt>
      <trkpt lat="45.86108" lon="1.18462">
        <ele>398.12</ele>
        <time>2018-03-23T09:41:06Z</time>
      </trkpt>
      <trkpt lat="45.86116" lon="1.18481">
        <ele>396.2</ele>
        <time>2018-03-23T09:41:11Z</time>
      </trkpt>
      <trkpt lat="45.86142" lon="1.18538">
        <ele>393.32</ele>
        <time>2018-03-23T09:41:23Z</time>
      </trkpt>
      <trkpt lat="45.86145" lon="1.18542">
        <ele>393.32</ele>
        <time>2018-03-23T09:41:24Z</time>
      </trkpt>
      <trkpt lat="45.8615" lon="1.18544">
        <ele>392.84</ele>
        <time>2018-03-23T09:41:25Z</time>
      </trkpt>
      <trkpt lat="45.86155" lon="1.18544">
        <ele>392.84</ele>
        <time>2018-03-23T09:41:26Z</time>
      </trkpt>
      <trkpt lat="45.8616" lon="1.18543">
        <ele>392.36</ele>
        <time>2018-03-23T09:41:27Z</time>
      </trkpt>
      <trkpt lat="45.86164" lon="1.18541">
        <ele>392.36</ele>
        <time>2018-03-23T09:41:28Z</time>
      </trkpt>
      <trkpt lat="45.86169" lon="1.18539">
        <ele>392.36</ele>
        <time>2018-03-23T09:41:29Z</time>
      </trkpt>
      <trkpt lat="45.86173" lon="1.18537">
        <ele>392.36</ele>
        <time>2018-03-23T09:41:30Z</time>
      </trkpt>
      <trkpt lat="45.86237" lon="1.18496">
        <ele>393.8</ele>
        <time>2018-03-23T09:41:46Z</time>
      </trkpt>
      <trkpt lat="45.86244" lon="1.18492">
        <ele>393.8</ele>
        <time>2018-03-23T09:41:48Z</time>
      </trkpt>
      <trkpt lat="45.86248" lon="1.18493">
        <ele>393.8</ele>
        <time>2018-03-23T09:41:49Z</time>
      </trkpt>
      <trkpt lat="45.86252" lon="1.18495">
        <ele>393.8</ele>
        <time>2018-03-23T09:41:50Z</time>
      </trkpt>
      <trkpt lat="45.86256" lon="1.18497">
        <ele>393.8</ele>
        <time>2018-03-23T09:41:51Z</time>
      </trkpt>
      <trkpt lat="45.8626" lon="1.18501">
        <ele>393.8</ele>
        <time>2018-03-23T09:41:52Z</time>
      </trkpt>
      <trkpt lat="45.86273" lon="1.18511">
        <ele>392.36</ele>
        <time>2018-03-23T09:41:55Z</time>
      </trkpt>
      <trkpt lat="45.86308" lon="1.18545">
        <ele>388.99</ele>
        <time>2018-03-23T09:42:02Z</time>
      </trkpt>
      <trkpt lat="45.86385" lon="1.18624">
        <ele>389.47</ele>
        <time>2018-03-23T09:42:16Z</time>
      </trkpt>
      <trkpt lat="45.86401" lon="1.18642">
        <ele>391.39</ele>
        <time>2018-03-23T09:42:21Z</time>
      </trkpt>
      <trkpt lat="45.86403" lon="1.1865">
        <ele>391.87</ele>
        <time>2018-03-23T09:42:23Z</time>
      </trkpt>
      <trkpt lat="45.86403" lon="1.18654">
        <ele>392.36</ele>
        <time>2018-03-23T09:42:24Z</time>
      </trkpt>
      <trkpt lat="45.86383" lon="1.18723">
        <ele>392.36</ele>
        <time>2018-03-23T09:42:39Z</time>
      </trkpt>
      <trkpt lat="45.86372" lon="1.18749">
        <ele>390.43</ele>
        <time>2018-03-23T09:42:45Z</time>
      </trkpt>
      <trkpt lat="45.86367" lon="1.18827">
        <ele>387.07</ele>
        <time>2018-03-23T09:42:58Z</time>
      </trkpt>
      <trkpt lat="45.86367" lon="1.18835">
        <ele>387.07</ele>
        <time>2018-03-23T09:42:59Z</time>
      </trkpt>
      <trkpt lat="45.86365" lon="1.18873">
        <ele>385.15</ele>
        <time>2018-03-23T09:43:03Z</time>
      </trkpt>
      <trkpt lat="45.86363" lon="1.18882">
        <ele>384.66</ele>
        <time>2018-03-23T09:43:04Z</time>
      </trkpt>
      <trkpt lat="45.86335" lon="1.18982">
        <ele>381.78</ele>
        <time>2018-03-23T09:43:17Z</time>
      </trkpt>
      <trkpt lat="45.86334" lon="1.18989">
        <ele>381.78</ele>
        <time>2018-03-23T09:43:18Z</time>
      </trkpt>
      <trkpt lat="45.86334" lon="1.18997">
        <ele>380.34</ele>
        <time>2018-03-23T09:43:19Z</time>
      </trkpt>
      <trkpt lat="45.86336" lon="1.1903">
        <ele>377.94</ele>
        <time>2018-03-23T09:43:25Z</time>
      </trkpt>
      <trkpt lat="45.86338" lon="1.19031">
        <ele>377.94</ele>
        <time>2018-03-23T09:43:26Z</time>
      </trkpt>
      <trkpt lat="45.8634" lon="1.19032">
        <ele>377.94</ele>
        <time>2018-03-23T09:43:27Z</time>
      </trkpt>
      <trkpt lat="45.86342" lon="1.19032">
        <ele>377.94</ele>
        <time>2018-03-23T09:43:28Z</time>
      </trkpt>
      <trkpt lat="45.86344" lon="1.19032">
        <ele>377.94</ele>
        <time>2018-03-23T09:43:29Z</time>
      </trkpt>
      <trkpt lat="45.86346" lon="1.19032">
        <ele>379.38</ele>
        <time>2018-03-23T09:43:30Z</time>
      </trkpt>
      <trkpt lat="45.86348" lon="1.19032">
        <ele>379.38</ele>
        <time>2018-03-23T09:43:31Z</time>
      </trkpt>
      <trkpt lat="45.86396" lon="1.19018">
        <ele>381.78</ele>
        <time>2018-03-23T09:43:50Z</time>
      </trkpt>
      <trkpt lat="45.86443" lon="1.18969">
        <ele>382.74</ele>
        <time>2018-03-23T09:44:10Z</time>
      </trkpt>
      <trkpt lat="45.86444" lon="1.18967">
        <ele>382.74</ele>
        <time>2018-03-23T09:44:11Z</time>
      </trkpt>
      <trkpt lat="45.86447" lon="1.18965">
        <ele>383.22</ele>
        <time>2018-03-23T09:44:13Z</time>
      </trkpt>
      <trkpt lat="45.8645" lon="1.18963">
        <ele>383.22</ele>
        <time>2018-03-23T09:44:14Z</time>
      </trkpt>
      <trkpt lat="45.86452" lon="1.18962">
        <ele>383.7</ele>
        <time>2018-03-23T09:44:15Z</time>
      </trkpt>
      <trkpt lat="45.86455" lon="1.18961">
        <ele>383.22</ele>
        <time>2018-03-23T09:44:16Z</time>
      </trkpt>
      <trkpt lat="45.86458" lon="1.1896">
        <ele>383.7</ele>
        <time>2018-03-23T09:44:17Z</time>
      </trkpt>
      <trkpt lat="45.86487" lon="1.18949">
        <ele>382.74</ele>
        <time>2018-03-23T09:44:25Z</time>
      </trkpt>
      <trkpt lat="45.8654" lon="1.18958">
        <ele>382.26</ele>
        <time>2018-03-23T09:44:39Z</time>
      </trkpt>
      <trkpt lat="45.86592" lon="1.18965">
        <ele>384.18</ele>
        <time>2018-03-23T09:44:53Z</time>
      </trkpt>
      <trkpt lat="45.86641" lon="1.18967">
        <ele>386.59</ele>
        <time>2018-03-23T09:45:09Z</time>
      </trkpt>
      <trkpt lat="45.86678" lon="1.18996">
        <ele>389.95</ele>
        <time>2018-03-23T09:45:26Z</time>
      </trkpt>
      <trkpt lat="45.86732" lon="1.1904">
        <ele>388.99</ele>
        <time>2018-03-23T09:45:46Z</time>
      </trkpt>
      <trkpt lat="45.86795" lon="1.19103">
        <ele>387.07</ele>
        <time>2018-03-23T09:46:01Z</time>
      </trkpt>
      <trkpt lat="45.86799" lon="1.19107">
        <ele>387.07</ele>
        <time>2018-03-23T09:46:02Z</time>
      </trkpt>
      <trkpt lat="45.86821" lon="1.19131">
        <ele>387.07</ele>
        <time>2018-03-23T09:46:08Z</time>
      </trkpt>
      <trkpt lat="45.86825" lon="1.19135">
        <ele>387.07</ele>
        <time>2018-03-23T09:46:09Z</time>
      </trkpt>
      <trkpt lat="45.86854" lon="1.19165">
        <ele>388.51</ele>
        <time>2018-03-23T09:46:17Z</time>
      </trkpt>
      <trkpt lat="45.86857" lon="1.1917">
        <ele>388.03</ele>
        <time>2018-03-23T09:46:18Z</time>
      </trkpt>
      <trkpt lat="45.86859" lon="1.19175">
        <ele>388.51</ele>
        <time>2018-03-23T09:46:19Z</time>
      </trkpt>
      <trkpt lat="45.8686" lon="1.19182">
        <ele>388.03</ele>
        <time>2018-03-23T09:46:20Z</time>
      </trkpt>
      <trkpt lat="45.86859" lon="1.19188">
        <ele>388.51</ele>
        <time>2018-03-23T09:46:21Z</time>
      </trkpt>
      <trkpt lat="45.86858" lon="1.19193">
        <ele>388.99</ele>
        <time>2018-03-23T09:46:22Z</time>
      </trkpt>
      <trkpt lat="45.86857" lon="1.19199">
        <ele>388.99</ele>
        <time>2018-03-23T09:46:23Z</time>
      </trkpt>
      <trkpt lat="45.8685" lon="1.19236">
        <ele>388.99</ele>
        <time>2018-03-23T09:46:30Z</time>
      </trkpt>
      <trkpt lat="45.86851" lon="1.19239">
        <ele>388.99</ele>
        <time>2018-03-23T09:46:31Z</time>
      </trkpt>
      <trkpt lat="45.86853" lon="1.1924">
        <ele>388.99</ele>
        <time>2018-03-23T09:46:32Z</time>
      </trkpt>
      <trkpt lat="45.86856" lon="1.19241">
        <ele>388.99</ele>
        <time>2018-03-23T09:46:33Z</time>
      </trkpt>
      <trkpt lat="45.86859" lon="1.19242">
        <ele>388.99</ele>
        <time>2018-03-23T09:46:34Z</time>
      </trkpt>
      <trkpt lat="45.86891" lon="1.19257">
        <ele>390.91</ele>
        <time>2018-03-23T09:46:46Z</time>
      </trkpt>
      <trkpt lat="45.86909" lon="1.19268">
        <ele>390.91</ele>
        <time>2018-03-23T09:46:53Z</time>
      </trkpt>
      <trkpt lat="45.86912" lon="1.1927">
        <ele>390.91</ele>
        <time>2018-03-23T09:46:54Z</time>
      </trkpt>
      <trkpt lat="45.86946" lon="1.19297">
        <ele>389.47</ele>
        <time>2018-03-23T09:47:06Z</time>
      </trkpt>
      <trkpt lat="45.8696" lon="1.19313">
        <ele>391.39</ele>
        <time>2018-03-23T09:47:13Z</time>
      </trkpt>
      <trkpt lat="45.86989" lon="1.19337">
        <ele>392.36</ele>
        <time>2018-03-23T09:47:27Z</time>
      </trkpt>
      <trkpt lat="45.86991" lon="1.19338">
        <ele>392.36</ele>
        <time>2018-03-23T09:47:28Z</time>
      </trkpt>
      <trkpt lat="45.86993" lon="1.1934">
        <ele>392.36</ele>
        <time>2018-03-23T09:47:29Z</time>
      </trkpt>
      <trkpt lat="45.86995" lon="1.19341">
        <ele>392.36</ele>
        <time>2018-03-23T09:47:30Z</time>
      </trkpt>
      <trkpt lat="45.86999" lon="1.19343">
        <ele>392.36</ele>
        <time>2018-03-23T09:47:31Z</time>
      </trkpt>
      <trkpt lat="45.87036" lon="1.19376">
        <ele>390.43</ele>
        <time>2018-03-23T09:47:45Z</time>
      </trkpt>
      <trkpt lat="45.87052" lon="1.19404">
        <ele>387.07</ele>
        <time>2018-03-23T09:47:52Z</time>
      </trkpt>
      <trkpt lat="45.87062" lon="1.19412">
        <ele>385.63</ele>
        <time>2018-03-23T09:47:55Z</time>
      </trkpt>
      <trkpt lat="45.87078" lon="1.19445">
        <ele>383.7</ele>
        <time>2018-03-23T09:48:04Z</time>
      </trkpt>
      <trkpt lat="45.87086" lon="1.19491">
        <ele>380.82</ele>
        <time>2018-03-23T09:48:12Z</time>
      </trkpt>
      <trkpt lat="45.87089" lon="1.19504">
        <ele>380.34</ele>
        <time>2018-03-23T09:48:14Z</time>
      </trkpt>
      <trkpt lat="45.87093" lon="1.19517">
        <ele>378.9</ele>
        <time>2018-03-23T09:48:16Z</time>
      </trkpt>
      <trkpt lat="45.87095" lon="1.19523">
        <ele>377.45</ele>
        <time>2018-03-23T09:48:17Z</time>
      </trkpt>
      <trkpt lat="45.871" lon="1.1953">
        <ele>377.45</ele>
        <time>2018-03-23T09:48:18Z</time>
      </trkpt>
      <trkpt lat="45.87105" lon="1.19535">
        <ele>376.49</ele>
        <time>2018-03-23T09:48:19Z</time>
      </trkpt>
      <trkpt lat="45.87109" lon="1.19539">
        <ele>376.49</ele>
        <time>2018-03-23T09:48:20Z</time>
      </trkpt>
      <trkpt lat="45.87121" lon="1.19556">
        <ele>373.13</ele>
        <time>2018-03-23T09:48:25Z</time>
      </trkpt>
      <trkpt lat="45.87121" lon="1.1956">
        <ele>373.13</ele>
        <time>2018-03-23T09:48:26Z</time>
      </trkpt>
      <trkpt lat="45.87122" lon="1.19567">
        <ele>372.17</ele>
        <time>2018-03-23T09:48:28Z</time>
      </trkpt>
      <trkpt lat="45.87124" lon="1.19571">
        <ele>370.73</ele>
        <time>2018-03-23T09:48:29Z</time>
      </trkpt>
      <trkpt lat="45.87126" lon="1.19575">
        <ele>370.73</ele>
        <time>2018-03-23T09:48:30Z</time>
      </trkpt>
      <trkpt lat="45.87144" lon="1.19602">
        <ele>368.32</ele>
        <time>2018-03-23T09:48:41Z</time>
      </trkpt>
      <trkpt lat="45.87151" lon="1.19608">
        <ele>368.32</ele>
        <time>2018-03-23T09:48:49Z</time>
      </trkpt>
      <trkpt lat="45.87153" lon="1.19608">
        <ele>368.32</ele>
        <time>2018-03-23T09:48:50Z</time>
      </trkpt>
      <trkpt lat="45.87193" lon="1.19601">
        <ele>367.84</ele>
        <time>2018-03-23T09:49:02Z</time>
      </trkpt>
      <trkpt lat="45.87237" lon="1.19589">
        <ele>367.84</ele>
        <time>2018-03-23T09:49:15Z</time>
      </trkpt>
      <trkpt lat="45.87239" lon="1.19592">
        <ele>367.84</ele>
        <time>2018-03-23T09:49:16Z</time>
      </trkpt>
      <trkpt lat="45.87239" lon="1.19596">
        <ele>367.84</ele>
        <time>2018-03-23T09:49:17Z</time>
      </trkpt>
      <trkpt lat="45.87239" lon="1.19601">
        <ele>367.84</ele>
        <time>2018-03-23T09:49:18Z</time>
      </trkpt>
      <trkpt lat="45.87238" lon="1.19606">
        <ele>367.84</ele>
        <time>2018-03-23T09:49:19Z</time>
      </trkpt>
      <trkpt lat="45.87236" lon="1.19611">
        <ele>367.84</ele>
        <time>2018-03-23T09:49:20Z</time>
      </trkpt>
      <trkpt lat="45.87235" lon="1.19617">
        <ele>367.36</ele>
        <time>2018-03-23T09:49:21Z</time>
      </trkpt>
      <trkpt lat="45.87234" lon="1.19622">
        <ele>367.84</ele>
        <time>2018-03-23T09:49:22Z</time>
      </trkpt>
      <trkpt lat="45.87232" lon="1.19628">
        <ele>367.36</ele>
        <time>2018-03-23T09:49:23Z</time>
      </trkpt>
      <trkpt lat="45.87229" lon="1.19656">
        <ele>366.4</ele>
        <time>2018-03-23T09:49:29Z</time>
      </trkpt>
      <trkpt lat="45.87231" lon="1.19657">
        <ele>366.4</ele>
        <time>2018-03-23T09:49:30Z</time>
      </trkpt>
      <trkpt lat="45.87234" lon="1.19656">
        <ele>366.4</ele>
        <time>2018-03-23T09:49:31Z</time>
      </trkpt>
      <trkpt lat="45.87237" lon="1.19655">
        <ele>366.4</ele>
        <time>2018-03-23T09:49:32Z</time>
      </trkpt>
      <trkpt lat="45.87239" lon="1.19654">
        <ele>366.4</ele>
        <time>2018-03-23T09:49:33Z</time>
      </trkpt>
      <trkpt lat="45.87241" lon="1.19653">
        <ele>366.4</ele>
        <time>2018-03-23T09:49:34Z</time>
      </trkpt>
      <trkpt lat="45.87244" lon="1.19652">
        <ele>367.84</ele>
        <time>2018-03-23T09:49:35Z</time>
      </trkpt>
      <trkpt lat="45.87245" lon="1.19652">
        <ele>367.84</ele>
        <time>2018-03-23T09:49:36Z</time>
      </trkpt>
      <trkpt lat="45.87278" lon="1.1967">
        <ele>371.21</ele>
        <time>2018-03-23T09:49:52Z</time>
      </trkpt>
      <trkpt lat="45.87297" lon="1.19698">
        <ele>373.13</ele>
        <time>2018-03-23T09:50:07Z</time>
      </trkpt>
      <trkpt lat="45.87326" lon="1.19715">
        <ele>375.53</ele>
        <time>2018-03-23T09:50:22Z</time>
      </trkpt>
      <trkpt lat="45.87371" lon="1.19729">
        <ele>375.53</ele>
        <time>2018-03-23T09:50:39Z</time>
      </trkpt>
      <trkpt lat="45.87384" lon="1.19732">
        <ele>374.09</ele>
        <time>2018-03-23T09:50:43Z</time>
      </trkpt>
      <trkpt lat="45.8742" lon="1.19742">
        <ele>374.09</ele>
        <time>2018-03-23T09:50:55Z</time>
      </trkpt>
      <trkpt lat="45.87452" lon="1.19753">
        <ele>376.97</ele>
        <time>2018-03-23T09:51:10Z</time>
      </trkpt>
      <trkpt lat="45.87497" lon="1.19775">
        <ele>378.42</ele>
        <time>2018-03-23T09:51:28Z</time>
      </trkpt>
      <trkpt lat="45.87552" lon="1.19805">
        <ele>378.9</ele>
        <time>2018-03-23T09:51:47Z</time>
      </trkpt>
      <trkpt lat="45.87604" lon="1.19827">
        <ele>379.38</ele>
        <time>2018-03-23T09:52:05Z</time>
      </trkpt>
      <trkpt lat="45.87654" lon="1.19851">
        <ele>380.82</ele>
        <time>2018-03-23T09:52:22Z</time>
      </trkpt>
      <trkpt lat="45.87698" lon="1.19871">
        <ele>380.82</ele>
        <time>2018-03-23T09:52:36Z</time>
      </trkpt>
      <trkpt lat="45.87763" lon="1.19896">
        <ele>381.78</ele>
        <time>2018-03-23T09:52:55Z</time>
      </trkpt>
      <trkpt lat="45.87766" lon="1.19898">
        <ele>381.78</ele>
        <time>2018-03-23T09:52:56Z</time>
      </trkpt>
      <trkpt lat="45.87771" lon="1.19899">
        <ele>381.78</ele>
        <time>2018-03-23T09:52:57Z</time>
      </trkpt>
      <trkpt lat="45.87774" lon="1.19901">
        <ele>381.78</ele>
        <time>2018-03-23T09:52:58Z</time>
      </trkpt>
      <trkpt lat="45.87806" lon="1.1992">
        <ele>381.78</ele>
        <time>2018-03-23T09:53:10Z</time>
      </trkpt>
      <trkpt lat="45.87816" lon="1.19929">
        <ele>382.26</ele>
        <time>2018-03-23T09:53:16Z</time>
      </trkpt>
      <trkpt lat="45.87817" lon="1.1993">
        <ele>382.26</ele>
        <time>2018-03-23T09:53:17Z</time>
      </trkpt>
      <trkpt lat="45.87818" lon="1.19931">
        <ele>382.26</ele>
        <time>2018-03-23T09:53:18Z</time>
      </trkpt>
      <trkpt lat="45.87833" lon="1.19943">
        <ele>382.26</ele>
        <time>2018-03-23T09:53:25Z</time>
      </trkpt>
      <trkpt lat="45.87835" lon="1.19946">
        <ele>382.26</ele>
        <time>2018-03-23T09:53:26Z</time>
      </trkpt>
      <trkpt lat="45.87836" lon="1.19948">
        <ele>382.26</ele>
        <time>2018-03-23T09:53:27Z</time>
      </trkpt>
      <trkpt lat="45.87838" lon="1.19949">
        <ele>382.26</ele>
        <time>2018-03-23T09:53:28Z</time>
      </trkpt>
      <trkpt lat="45.8784" lon="1.1995">
        <ele>382.26</ele>
        <time>2018-03-23T09:53:29Z</time>
      </trkpt>
      <trkpt lat="45.87844" lon="1.1995">
        <ele>382.26</ele>
        <time>2018-03-23T09:53:31Z</time>
      </trkpt>
      <trkpt lat="45.87845" lon="1.1995">
        <ele>382.26</ele>
        <time>2018-03-23T09:53:32Z</time>
      </trkpt>
      <trkpt lat="45.87846" lon="1.19952">
        <ele>382.26</ele>
        <time>2018-03-23T09:53:33Z</time>
      </trkpt>
      <trkpt lat="45.87848" lon="1.19954">
        <ele>382.26</ele>
        <time>2018-03-23T09:53:34Z</time>
      </trkpt>
      <trkpt lat="45.87849" lon="1.19956">
        <ele>382.26</ele>
        <time>2018-03-23T09:53:35Z</time>
      </trkpt>
      <trkpt lat="45.87855" lon="1.19964">
        <ele>381.78</ele>
        <time>2018-03-23T09:53:40Z</time>
      </trkpt>
      <trkpt lat="45.87857" lon="1.19965">
        <ele>381.78</ele>
        <time>2018-03-23T09:53:41Z</time>
      </trkpt>
      <trkpt lat="45.87869" lon="1.19975">
        <ele>381.78</ele>
        <time>2018-03-23T09:53:48Z</time>
      </trkpt>
      <trkpt lat="45.87869" lon="1.19981">
        <ele>381.78</ele>
        <time>2018-03-23T09:53:50Z</time>
      </trkpt>
      <trkpt lat="45.87869" lon="1.20006">
        <ele>381.78</ele>
        <time>2018-03-23T09:54:00Z</time>
      </trkpt>
      <trkpt lat="45.87871" lon="1.2001">
        <ele>381.78</ele>
        <time>2018-03-23T09:54:01Z</time>
      </trkpt>
      <trkpt lat="45.87881" lon="1.20035">
        <ele>384.66</ele>
        <time>2018-03-23T09:54:13Z</time>
      </trkpt>
      <trkpt lat="45.87886" lon="1.2004">
        <ele>384.66</ele>
        <time>2018-03-23T09:54:17Z</time>
      </trkpt>
      <trkpt lat="45.87888" lon="1.20041">
        <ele>385.15</ele>
        <time>2018-03-23T09:54:18Z</time>
      </trkpt>
      <trkpt lat="45.87889" lon="1.20043">
        <ele>385.15</ele>
        <time>2018-03-23T09:54:19Z</time>
      </trkpt>
      <trkpt lat="45.87893" lon="1.20048">
        <ele>385.63</ele>
        <time>2018-03-23T09:54:23Z</time>
      </trkpt>
      <trkpt lat="45.87897" lon="1.20048">
        <ele>385.63</ele>
        <time>2018-03-23T09:54:26Z</time>
      </trkpt>
      <trkpt lat="45.87898" lon="1.20047">
        <ele>385.63</ele>
        <time>2018-03-23T09:54:27Z</time>
      </trkpt>
      <trkpt lat="45.87899" lon="1.20047">
        <ele>386.11</ele>
        <time>2018-03-23T09:54:28Z</time>
      </trkpt>
      <trkpt lat="45.879" lon="1.20047">
        <ele>385.63</ele>
        <time>2018-03-23T09:54:29Z</time>
      </trkpt>
      <trkpt lat="45.87902" lon="1.20048">
        <ele>386.11</ele>
        <time>2018-03-23T09:54:30Z</time>
      </trkpt>
      <trkpt lat="45.87903" lon="1.20049">
        <ele>385.63</ele>
        <time>2018-03-23T09:54:31Z</time>
      </trkpt>
      <trkpt lat="45.87905" lon="1.20052">
        <ele>385.63</ele>
        <time>2018-03-23T09:54:32Z</time>
      </trkpt>
      <trkpt lat="45.87906" lon="1.20054">
        <ele>385.63</ele>
        <time>2018-03-23T09:54:33Z</time>
      </trkpt>
      <trkpt lat="45.87906" lon="1.20056">
        <ele>385.63</ele>
        <time>2018-03-23T09:54:34Z</time>
      </trkpt>
      <trkpt lat="45.87907" lon="1.20058">
        <ele>386.59</ele>
        <time>2018-03-23T09:54:35Z</time>
      </trkpt>
      <trkpt lat="45.87923" lon="1.20101">
        <ele>388.03</ele>
        <time>2018-03-23T09:54:53Z</time>
      </trkpt>
      <trkpt lat="45.8793" lon="1.20129">
        <ele>389.47</ele>
        <time>2018-03-23T09:55:07Z</time>
      </trkpt>
      <trkpt lat="45.87935" lon="1.20137">
        <ele>389.47</ele>
        <time>2018-03-23T09:55:12Z</time>
      </trkpt>
      <trkpt lat="45.87936" lon="1.20139">
        <ele>389.47</ele>
        <time>2018-03-23T09:55:13Z</time>
      </trkpt>
      <trkpt lat="45.87936" lon="1.20141">
        <ele>390.43</ele>
        <time>2018-03-23T09:55:14Z</time>
      </trkpt>
      <trkpt lat="45.87937" lon="1.20143">
        <ele>390.43</ele>
        <time>2018-03-23T09:55:15Z</time>
      </trkpt>
      <trkpt lat="45.87937" lon="1.20146">
        <ele>390.43</ele>
        <time>2018-03-23T09:55:16Z</time>
      </trkpt>
      <trkpt lat="45.87949" lon="1.20189">
        <ele>391.87</ele>
        <time>2018-03-23T09:55:33Z</time>
      </trkpt>
      <trkpt lat="45.87957" lon="1.20239">
        <ele>393.8</ele>
        <time>2018-03-23T09:55:49Z</time>
      </trkpt>
      <trkpt lat="45.87966" lon="1.20276">
        <ele>392.36</ele>
        <time>2018-03-23T09:56:03Z</time>
      </trkpt>
      <trkpt lat="45.87971" lon="1.20287">
        <ele>393.8</ele>
        <time>2018-03-23T09:56:11Z</time>
      </trkpt>
      <trkpt lat="45.87976" lon="1.20304">
        <ele>395.24</ele>
        <time>2018-03-23T09:56:21Z</time>
      </trkpt>
      <trkpt lat="45.87977" lon="1.20306">
        <ele>395.24</ele>
        <time>2018-03-23T09:56:22Z</time>
      </trkpt>
      <trkpt lat="45.87977" lon="1.20308">
        <ele>395.24</ele>
        <time>2018-03-23T09:56:23Z</time>
      </trkpt>
      <trkpt lat="45.87977" lon="1.20311">
        <ele>395.24</ele>
        <time>2018-03-23T09:56:24Z</time>
      </trkpt>
      <trkpt lat="45.87978" lon="1.20313">
        <ele>395.24</ele>
        <time>2018-03-23T09:56:25Z</time>
      </trkpt>
      <trkpt lat="45.87978" lon="1.2032">
        <ele>394.76</ele>
        <time>2018-03-23T09:56:28Z</time>
      </trkpt>
      <trkpt lat="45.87979" lon="1.20323">
        <ele>394.76</ele>
        <time>2018-03-23T09:56:29Z</time>
      </trkpt>
      <trkpt lat="45.8798" lon="1.20325">
        <ele>394.76</ele>
        <time>2018-03-23T09:56:30Z</time>
      </trkpt>
      <trkpt lat="45.87981" lon="1.20328">
        <ele>394.76</ele>
        <time>2018-03-23T09:56:31Z</time>
      </trkpt>
      <trkpt lat="45.87982" lon="1.20331">
        <ele>394.76</ele>
        <time>2018-03-23T09:56:32Z</time>
      </trkpt>
      <trkpt lat="45.87983" lon="1.20333">
        <ele>394.76</ele>
        <time>2018-03-23T09:56:33Z</time>
      </trkpt>
      <trkpt lat="45.87983" lon="1.20336">
        <ele>394.76</ele>
        <time>2018-03-23T09:56:34Z</time>
      </trkpt>
      <trkpt lat="45.87987" lon="1.20354">
        <ele>395.72</ele>
        <time>2018-03-23T09:56:42Z</time>
      </trkpt>
      <trkpt lat="45.8799" lon="1.20363">
        <ele>395.72</ele>
        <time>2018-03-23T09:56:47Z</time>
      </trkpt>
      <trkpt lat="45.87991" lon="1.20365">
        <ele>395.72</ele>
        <time>2018-03-23T09:56:48Z</time>
      </trkpt>
      <trkpt lat="45.87991" lon="1.20368">
        <ele>395.72</ele>
        <time>2018-03-23T09:56:49Z</time>
      </trkpt>
      <trkpt lat="45.88" lon="1.20406">
        <ele>395.24</ele>
        <time>2018-03-23T09:57:02Z</time>
      </trkpt>
      <trkpt lat="45.88001" lon="1.20408">
        <ele>396.2</ele>
        <time>2018-03-23T09:57:03Z</time>
      </trkpt>
      <trkpt lat="45.88002" lon="1.20411">
        <ele>395.72</ele>
        <time>2018-03-23T09:57:04Z</time>
      </trkpt>
      <trkpt lat="45.88003" lon="1.20413">
        <ele>396.2</ele>
        <time>2018-03-23T09:57:05Z</time>
      </trkpt>
      <trkpt lat="45.88004" lon="1.20415">
        <ele>396.2</ele>
        <time>2018-03-23T09:57:06Z</time>
      </trkpt>
      <trkpt lat="45.88005" lon="1.20418">
        <ele>396.2</ele>
        <time>2018-03-23T09:57:07Z</time>
      </trkpt>
      <trkpt lat="45.88006" lon="1.20421">
        <ele>396.2</ele>
        <time>2018-03-23T09:57:08Z</time>
      </trkpt>
      <trkpt lat="45.88005" lon="1.20434">
        <ele>396.68</ele>
        <time>2018-03-23T09:57:12Z</time>
      </trkpt>
      <trkpt lat="45.88002" lon="1.20446">
        <ele>396.68</ele>
        <time>2018-03-23T09:57:17Z</time>
      </trkpt>
      <trkpt lat="45.88002" lon="1.2045">
        <ele>396.68</ele>
        <time>2018-03-23T09:57:18Z</time>
      </trkpt>
      <trkpt lat="45.88002" lon="1.20455">
        <ele>396.68</ele>
        <time>2018-03-23T09:57:19Z</time>
      </trkpt>
      <trkpt lat="45.88003" lon="1.2046">
        <ele>396.68</ele>
        <time>2018-03-23T09:57:20Z</time>
      </trkpt>
      <trkpt lat="45.88005" lon="1.20463">
        <ele>396.68</ele>
        <time>2018-03-23T09:57:21Z</time>
      </trkpt>
      <trkpt lat="45.88006" lon="1.20467">
        <ele>396.68</ele>
        <time>2018-03-23T09:57:22Z</time>
      </trkpt>
      <trkpt lat="45.88009" lon="1.2047">
        <ele>397.16</ele>
        <time>2018-03-23T09:57:23Z</time>
      </trkpt>
      <trkpt lat="45.88011" lon="1.20473">
        <ele>397.16</ele>
        <time>2018-03-23T09:57:24Z</time>
      </trkpt>
      <trkpt lat="45.88061" lon="1.20532">
        <ele>398.6</ele>
        <time>2018-03-23T09:57:45Z</time>
      </trkpt>
      <trkpt lat="45.88115" lon="1.20587">
        <ele>400.05</ele>
        <time>2018-03-23T09:58:06Z</time>
      </trkpt>
      <trkpt lat="45.88158" lon="1.20637">
        <ele>401.97</ele>
        <time>2018-03-23T09:58:24Z</time>
      </trkpt>
      <trkpt lat="45.88187" lon="1.20678">
        <ele>400.05</ele>
        <time>2018-03-23T09:58:35Z</time>
      </trkpt>
      <trkpt lat="45.88198" lon="1.20698">
        <ele>398.6</ele>
        <time>2018-03-23T09:58:38Z</time>
      </trkpt>
      <trkpt lat="45.88202" lon="1.2071">
        <ele>398.6</ele>
        <time>2018-03-23T09:58:39Z</time>
      </trkpt>
      <trkpt lat="45.88215" lon="1.20748">
        <ele>395.24</ele>
        <time>2018-03-23T09:58:43Z</time>
      </trkpt>
      <trkpt lat="45.88233" lon="1.20818">
        <ele>391.87</ele>
        <time>2018-03-23T09:58:49Z</time>
      </trkpt>
      <trkpt lat="45.8826" lon="1.20937">
        <ele>390.91</ele>
        <time>2018-03-23T09:59:03Z</time>
      </trkpt>
      <trkpt lat="45.88265" lon="1.20975">
        <ele>390.91</ele>
        <time>2018-03-23T09:59:10Z</time>
      </trkpt>
      <trkpt lat="45.88265" lon="1.20979">
        <ele>390.91</ele>
        <time>2018-03-23T09:59:11Z</time>
      </trkpt>
      <trkpt lat="45.88263" lon="1.20984">
        <ele>390.91</ele>
        <time>2018-03-23T09:59:12Z</time>
      </trkpt>
      <trkpt lat="45.88257" lon="1.21016">
        <ele>390.91</ele>
        <time>2018-03-23T09:59:19Z</time>
      </trkpt>
      <trkpt lat="45.88258" lon="1.21021">
        <ele>390.91</ele>
        <time>2018-03-23T09:59:20Z</time>
      </trkpt>
      <trkpt lat="45.88259" lon="1.21024">
        <ele>390.91</ele>
        <time>2018-03-23T09:59:21Z</time>
      </trkpt>
      <trkpt lat="45.88261" lon="1.21028">
        <ele>390.91</ele>
        <time>2018-03-23T09:59:22Z</time>
      </trkpt>
      <trkpt lat="45.88264" lon="1.21031">
        <ele>390.91</ele>
        <time>2018-03-23T09:59:23Z</time>
      </trkpt>
      <trkpt lat="45.88268" lon="1.21033">
        <ele>390.91</ele>
        <time>2018-03-23T09:59:24Z</time>
      </trkpt>
      <trkpt lat="45.88297" lon="1.21054">
        <ele>389.47</ele>
        <time>2018-03-23T09:59:31Z</time>
      </trkpt>
      <trkpt lat="45.88303" lon="1.2106">
        <ele>388.03</ele>
        <time>2018-03-23T09:59:32Z</time>
      </trkpt>
      <trkpt lat="45.88309" lon="1.21067">
        <ele>387.55</ele>
        <time>2018-03-23T09:59:33Z</time>
      </trkpt>
      <trkpt lat="45.88329" lon="1.21097">
        <ele>384.18</ele>
        <time>2018-03-23T09:59:36Z</time>
      </trkpt>
      <trkpt lat="45.88335" lon="1.21108">
        <ele>383.7</ele>
        <time>2018-03-23T09:59:37Z</time>
      </trkpt>
      <trkpt lat="45.88338" lon="1.2112">
        <ele>382.74</ele>
        <time>2018-03-23T09:59:38Z</time>
      </trkpt>
      <trkpt lat="45.88341" lon="1.2113">
        <ele>382.74</ele>
        <time>2018-03-23T09:59:39Z</time>
      </trkpt>
      <trkpt lat="45.88343" lon="1.2114">
        <ele>381.78</ele>
        <time>2018-03-23T09:59:40Z</time>
      </trkpt>
      <trkpt lat="45.88357" lon="1.21185">
        <ele>378.9</ele>
        <time>2018-03-23T09:59:45Z</time>
      </trkpt>
      <trkpt lat="45.88362" lon="1.21194">
        <ele>377.94</ele>
        <time>2018-03-23T09:59:46Z</time>
      </trkpt>
      <trkpt lat="45.88368" lon="1.21202">
        <ele>377.94</ele>
        <time>2018-03-23T09:59:47Z</time>
      </trkpt>
      <trkpt lat="45.88374" lon="1.21209">
        <ele>376.49</ele>
        <time>2018-03-23T09:59:48Z</time>
      </trkpt>
      <trkpt lat="45.88386" lon="1.21221">
        <ele>374.09</ele>
        <time>2018-03-23T09:59:50Z</time>
      </trkpt>
      <trkpt lat="45.88393" lon="1.21225">
        <ele>373.13</ele>
        <time>2018-03-23T09:59:51Z</time>
      </trkpt>
      <trkpt lat="45.88399" lon="1.21229">
        <ele>373.13</ele>
        <time>2018-03-23T09:59:52Z</time>
      </trkpt>
      <trkpt lat="45.88409" lon="1.21237">
        <ele>373.13</ele>
        <time>2018-03-23T09:59:54Z</time>
      </trkpt>
      <trkpt lat="45.88412" lon="1.21241">
        <ele>373.13</ele>
        <time>2018-03-23T09:59:55Z</time>
      </trkpt>
      <trkpt lat="45.88425" lon="1.21262">
        <ele>373.13</ele>
        <time>2018-03-23T10:00:01Z</time>
      </trkpt>
      <trkpt lat="45.88426" lon="1.21265">
        <ele>373.13</ele>
        <time>2018-03-23T10:00:02Z</time>
      </trkpt>
      <trkpt lat="45.88428" lon="1.21267">
        <ele>373.13</ele>
        <time>2018-03-23T10:00:03Z</time>
      </trkpt>
      <trkpt lat="45.8843" lon="1.21268">
        <ele>373.13</ele>
        <time>2018-03-23T10:00:04Z</time>
      </trkpt>
      <trkpt lat="45.88432" lon="1.2127">
        <ele>373.13</ele>
        <time>2018-03-23T10:00:05Z</time>
      </trkpt>
      <trkpt lat="45.88436" lon="1.21272">
        <ele>374.09</ele>
        <time>2018-03-23T10:00:07Z</time>
      </trkpt>
      <trkpt lat="45.88439" lon="1.21272">
        <ele>374.09</ele>
        <time>2018-03-23T10:00:08Z</time>
      </trkpt>
      <trkpt lat="45.88441" lon="1.21273">
        <ele>374.09</ele>
        <time>2018-03-23T10:00:09Z</time>
      </trkpt>
      <trkpt lat="45.88487" lon="1.21285">
        <ele>376.49</ele>
        <time>2018-03-23T10:00:25Z</time>
      </trkpt>
      <trkpt lat="45.88537" lon="1.21293">
        <ele>377.45</ele>
        <time>2018-03-23T10:00:40Z</time>
      </trkpt>
      <trkpt lat="45.88586" lon="1.21302">
        <ele>379.38</ele>
        <time>2018-03-23T10:00:56Z</time>
      </trkpt>
      <trkpt lat="45.8862" lon="1.21338">
        <ele>381.78</ele>
        <time>2018-03-23T10:01:13Z</time>
      </trkpt>
      <trkpt lat="45.88657" lon="1.2138">
        <ele>383.7</ele>
        <time>2018-03-23T10:01:31Z</time>
      </trkpt>
      <trkpt lat="45.88707" lon="1.21434">
        <ele>385.15</ele>
        <time>2018-03-23T10:01:52Z</time>
      </trkpt>
      <trkpt lat="45.88742" lon="1.21473">
        <ele>384.66</ele>
        <time>2018-03-23T10:02:07Z</time>
      </trkpt>
      <trkpt lat="45.88746" lon="1.21483">
        <ele>385.15</ele>
        <time>2018-03-23T10:02:12Z</time>
      </trkpt>
      <trkpt lat="45.88749" lon="1.21483">
        <ele>385.15</ele>
        <time>2018-03-23T10:02:13Z</time>
      </trkpt>
      <trkpt lat="45.88752" lon="1.21481">
        <ele>384.66</ele>
        <time>2018-03-23T10:02:14Z</time>
      </trkpt>
      <trkpt lat="45.88777" lon="1.21453">
        <ele>383.7</ele>
        <time>2018-03-23T10:02:21Z</time>
      </trkpt>
      <trkpt lat="45.88838" lon="1.21328">
        <ele>381.78</ele>
        <time>2018-03-23T10:02:41Z</time>
      </trkpt>
      <trkpt lat="45.88864" lon="1.21255">
        <ele>383.22</ele>
        <time>2018-03-23T10:02:54Z</time>
      </trkpt>
      <trkpt lat="45.88873" lon="1.21244">
        <ele>383.7</ele>
        <time>2018-03-23T10:02:57Z</time>
      </trkpt>
      <trkpt lat="45.88877" lon="1.21244">
        <ele>383.7</ele>
        <time>2018-03-23T10:02:58Z</time>
      </trkpt>
      <trkpt lat="45.88881" lon="1.21245">
        <ele>383.7</ele>
        <time>2018-03-23T10:02:59Z</time>
      </trkpt>
      <trkpt lat="45.88884" lon="1.21247">
        <ele>383.7</ele>
        <time>2018-03-23T10:03:00Z</time>
      </trkpt>
      <trkpt lat="45.88888" lon="1.21249">
        <ele>384.18</ele>
        <time>2018-03-23T10:03:01Z</time>
      </trkpt>
      <trkpt lat="45.88891" lon="1.2125">
        <ele>384.18</ele>
        <time>2018-03-23T10:03:02Z</time>
      </trkpt>
      <trkpt lat="45.88894" lon="1.2125">
        <ele>384.18</ele>
        <time>2018-03-23T10:03:03Z</time>
      </trkpt>
      <trkpt lat="45.88897" lon="1.2125">
        <ele>384.66</ele>
        <time>2018-03-23T10:03:04Z</time>
      </trkpt>
      <trkpt lat="45.88899" lon="1.2125">
        <ele>384.66</ele>
        <time>2018-03-23T10:03:05Z</time>
      </trkpt>
      <trkpt lat="45.88902" lon="1.21249">
        <ele>384.66</ele>
        <time>2018-03-23T10:03:06Z</time>
      </trkpt>
      <trkpt lat="45.88904" lon="1.21249">
        <ele>386.11</ele>
        <time>2018-03-23T10:03:07Z</time>
      </trkpt>
      <trkpt lat="45.88907" lon="1.21248">
        <ele>386.11</ele>
        <time>2018-03-23T10:03:08Z</time>
      </trkpt>
      <trkpt lat="45.88949" lon="1.2123">
        <ele>388.99</ele>
        <time>2018-03-23T10:03:28Z</time>
      </trkpt>
      <trkpt lat="45.8899" lon="1.21218">
        <ele>390.91</ele>
        <time>2018-03-23T10:03:47Z</time>
      </trkpt>
      <trkpt lat="45.89034" lon="1.21201">
        <ele>392.84</ele>
        <time>2018-03-23T10:04:07Z</time>
      </trkpt>
      <trkpt lat="45.89064" lon="1.21187">
        <ele>395.24</ele>
        <time>2018-03-23T10:04:23Z</time>
      </trkpt>
      <trkpt lat="45.89115" lon="1.21167">
        <ele>397.16</ele>
        <time>2018-03-23T10:04:47Z</time>
      </trkpt>
      <trkpt lat="45.89165" lon="1.21149">
        <ele>399.08</ele>
        <time>2018-03-23T10:05:10Z</time>
      </trkpt>
      <trkpt lat="45.89219" lon="1.21129">
        <ele>400.53</ele>
        <time>2018-03-23T10:05:32Z</time>
      </trkpt>
      <trkpt lat="45.89237" lon="1.21124">
        <ele>401.01</ele>
        <time>2018-03-23T10:05:41Z</time>
      </trkpt>
      <trkpt lat="45.89238" lon="1.21122">
        <ele>401.01</ele>
        <time>2018-03-23T10:05:42Z</time>
      </trkpt>
      <trkpt lat="45.89239" lon="1.21118">
        <ele>401.01</ele>
        <time>2018-03-23T10:05:44Z</time>
      </trkpt>
      <trkpt lat="45.89238" lon="1.21116">
        <ele>401.01</ele>
        <time>2018-03-23T10:05:45Z</time>
      </trkpt>
      <trkpt lat="45.89238" lon="1.21114">
        <ele>401.01</ele>
        <time>2018-03-23T10:05:46Z</time>
      </trkpt>
      <trkpt lat="45.89237" lon="1.21111">
        <ele>401.01</ele>
        <time>2018-03-23T10:05:47Z</time>
      </trkpt>
      <trkpt lat="45.89236" lon="1.21108">
        <ele>401.01</ele>
        <time>2018-03-23T10:05:48Z</time>
      </trkpt>
      <trkpt lat="45.89235" lon="1.21106">
        <ele>401.01</ele>
        <time>2018-03-23T10:05:49Z</time>
      </trkpt>
      <trkpt lat="45.89234" lon="1.21103">
        <ele>401.49</ele>
        <time>2018-03-23T10:05:50Z</time>
      </trkpt>
      <trkpt lat="45.89234" lon="1.21101">
        <ele>401.49</ele>
        <time>2018-03-23T10:05:51Z</time>
      </trkpt>
      <trkpt lat="45.89234" lon="1.21099">
        <ele>401.97</ele>
        <time>2018-03-23T10:05:52Z</time>
      </trkpt>
      <trkpt lat="45.89233" lon="1.21097">
        <ele>401.97</ele>
        <time>2018-03-23T10:05:53Z</time>
      </trkpt>
      <trkpt lat="45.89233" lon="1.21094">
        <ele>401.97</ele>
        <time>2018-03-23T10:05:54Z</time>
      </trkpt>
      <trkpt lat="45.89217" lon="1.2104">
        <ele>401.97</ele>
        <time>2018-03-23T10:06:09Z</time>
      </trkpt>
      <trkpt lat="45.89211" lon="1.21022">
        <ele>400.53</ele>
        <time>2018-03-23T10:06:14Z</time>
      </trkpt>
      <trkpt lat="45.89205" lon="1.20994">
        <ele>399.57</ele>
        <time>2018-03-23T10:06:23Z</time>
      </trkpt>
      <trkpt lat="45.89207" lon="1.20992">
        <ele>399.57</ele>
        <time>2018-03-23T10:06:24Z</time>
      </trkpt>
      <trkpt lat="45.89253" lon="1.2095">
        <ele>398.12</ele>
        <time>2018-03-23T10:06:41Z</time>
      </trkpt>
      <trkpt lat="45.89292" lon="1.20912">
        <ele>397.16</ele>
        <time>2018-03-23T10:06:58Z</time>
      </trkpt>
      <trkpt lat="45.89307" lon="1.2085">
        <ele>397.16</ele>
        <time>2018-03-23T10:07:14Z</time>
      </trkpt>
      <trkpt lat="45.89315" lon="1.20795">
        <ele>397.16</ele>
        <time>2018-03-23T10:07:27Z</time>
      </trkpt>
      <trkpt lat="45.89316" lon="1.20779">
        <ele>397.16</ele>
        <time>2018-03-23T10:07:31Z</time>
      </trkpt>
      <trkpt lat="45.89314" lon="1.20776">
        <ele>397.16</ele>
        <time>2018-03-23T10:07:32Z</time>
      </trkpt>
      <trkpt lat="45.89311" lon="1.20773">
        <ele>397.16</ele>
        <time>2018-03-23T10:07:33Z</time>
      </trkpt>
      <trkpt lat="45.89308" lon="1.20773">
        <ele>397.16</ele>
        <time>2018-03-23T10:07:34Z</time>
      </trkpt>
      <trkpt lat="45.89304" lon="1.20774">
        <ele>397.16</ele>
        <time>2018-03-23T10:07:35Z</time>
      </trkpt>
      <trkpt lat="45.89257" lon="1.20774">
        <ele>395.24</ele>
        <time>2018-03-23T10:07:49Z</time>
      </trkpt>
      <trkpt lat="45.89251" lon="1.20775">
        <ele>395.24</ele>
        <time>2018-03-23T10:07:52Z</time>
      </trkpt>
      <trkpt lat="45.89249" lon="1.20774">
        <ele>395.24</ele>
        <time>2018-03-23T10:07:53Z</time>
      </trkpt>
      <trkpt lat="45.89246" lon="1.20773">
        <ele>395.24</ele>
        <time>2018-03-23T10:07:54Z</time>
      </trkpt>
      <trkpt lat="45.89244" lon="1.2077">
        <ele>395.24</ele>
        <time>2018-03-23T10:07:55Z</time>
      </trkpt>
      <trkpt lat="45.89242" lon="1.20767">
        <ele>394.76</ele>
        <time>2018-03-23T10:07:56Z</time>
      </trkpt>
      <trkpt lat="45.89239" lon="1.2076">
        <ele>394.76</ele>
        <time>2018-03-23T10:07:58Z</time>
      </trkpt>
      <trkpt lat="45.8923" lon="1.20692">
        <ele>393.32</ele>
        <time>2018-03-23T10:08:12Z</time>
      </trkpt>
      <trkpt lat="45.89231" lon="1.20689">
        <ele>393.32</ele>
        <time>2018-03-23T10:08:13Z</time>
      </trkpt>
      <trkpt lat="45.89233" lon="1.20685">
        <ele>393.32</ele>
        <time>2018-03-23T10:08:14Z</time>
      </trkpt>
      <trkpt lat="45.89235" lon="1.20683">
        <ele>393.32</ele>
        <time>2018-03-23T10:08:15Z</time>
      </trkpt>
      <trkpt lat="45.89238" lon="1.20682">
        <ele>393.32</ele>
        <time>2018-03-23T10:08:16Z</time>
      </trkpt>
      <trkpt lat="45.89241" lon="1.20682">
        <ele>393.32</ele>
        <time>2018-03-23T10:08:17Z</time>
      </trkpt>
      <trkpt lat="45.89244" lon="1.20682">
        <ele>393.32</ele>
        <time>2018-03-23T10:08:18Z</time>
      </trkpt>
      <trkpt lat="45.89265" lon="1.20684">
        <ele>394.76</ele>
        <time>2018-03-23T10:08:24Z</time>
      </trkpt>
      <trkpt lat="45.89324" lon="1.20691">
        <ele>397.64</ele>
        <time>2018-03-23T10:08:42Z</time>
      </trkpt>
      <trkpt lat="45.89333" lon="1.20687">
        <ele>397.64</ele>
        <time>2018-03-23T10:08:45Z</time>
      </trkpt>
      <trkpt lat="45.89336" lon="1.20684">
        <ele>397.64</ele>
        <time>2018-03-23T10:08:46Z</time>
      </trkpt>
      <trkpt lat="45.89338" lon="1.20679">
        <ele>397.64</ele>
        <time>2018-03-23T10:08:47Z</time>
      </trkpt>
      <trkpt lat="45.8934" lon="1.20625">
        <ele>397.64</ele>
        <time>2018-03-23T10:08:57Z</time>
      </trkpt>
      <trkpt lat="45.89338" lon="1.20612">
        <ele>396.2</ele>
        <time>2018-03-23T10:08:59Z</time>
      </trkpt>
      <trkpt lat="45.89337" lon="1.20604">
        <ele>396.2</ele>
        <time>2018-03-23T10:09:00Z</time>
      </trkpt>
      <trkpt lat="45.89337" lon="1.20598">
        <ele>395.72</ele>
        <time>2018-03-23T10:09:01Z</time>
      </trkpt>
      <trkpt lat="45.89335" lon="1.20585">
        <ele>395.72</ele>
        <time>2018-03-23T10:09:03Z</time>
      </trkpt>
      <trkpt lat="45.89334" lon="1.20579">
        <ele>395.24</ele>
        <time>2018-03-23T10:09:04Z</time>
      </trkpt>
      <trkpt lat="45.89332" lon="1.20574">
        <ele>395.24</ele>
        <time>2018-03-23T10:09:05Z</time>
      </trkpt>
      <trkpt lat="45.8933" lon="1.20569">
        <ele>395.24</ele>
        <time>2018-03-23T10:09:06Z</time>
      </trkpt>
      <trkpt lat="45.89327" lon="1.20564">
        <ele>395.24</ele>
        <time>2018-03-23T10:09:07Z</time>
      </trkpt>
      <trkpt lat="45.89324" lon="1.2056">
        <ele>395.24</ele>
        <time>2018-03-23T10:09:08Z</time>
      </trkpt>
      <trkpt lat="45.89321" lon="1.20555">
        <ele>395.24</ele>
        <time>2018-03-23T10:09:09Z</time>
      </trkpt>
      <trkpt lat="45.89303" lon="1.20523">
        <ele>396.68</ele>
        <time>2018-03-23T10:09:16Z</time>
      </trkpt>
      <trkpt lat="45.893" lon="1.20512">
        <ele>396.68</ele>
        <time>2018-03-23T10:09:18Z</time>
      </trkpt>
      <trkpt lat="45.89284" lon="1.20393">
        <ele>397.64</ele>
        <time>2018-03-23T10:09:38Z</time>
      </trkpt>
      <trkpt lat="45.89276" lon="1.2034">
        <ele>398.12</ele>
        <time>2018-03-23T10:09:47Z</time>
      </trkpt>
      <trkpt lat="45.89268" lon="1.20286">
        <ele>398.6</ele>
        <time>2018-03-23T10:09:57Z</time>
      </trkpt>
      <trkpt lat="45.8927" lon="1.20281">
        <ele>398.6</ele>
        <time>2018-03-23T10:09:58Z</time>
      </trkpt>
      <trkpt lat="45.89273" lon="1.20277">
        <ele>398.6</ele>
        <time>2018-03-23T10:09:59Z</time>
      </trkpt>
      <trkpt lat="45.89276" lon="1.20275">
        <ele>399.08</ele>
        <time>2018-03-23T10:10:00Z</time>
      </trkpt>
      <trkpt lat="45.8928" lon="1.20274">
        <ele>399.08</ele>
        <time>2018-03-23T10:10:01Z</time>
      </trkpt>
      <trkpt lat="45.89283" lon="1.20273">
        <ele>399.08</ele>
        <time>2018-03-23T10:10:02Z</time>
      </trkpt>
      <trkpt lat="45.89308" lon="1.20267">
        <ele>397.64</ele>
        <time>2018-03-23T10:10:08Z</time>
      </trkpt>
      <trkpt lat="45.89313" lon="1.20267">
        <ele>397.64</ele>
        <time>2018-03-23T10:10:09Z</time>
      </trkpt>
      <trkpt lat="45.89415" lon="1.20267">
        <ele>395.72</ele>
        <time>2018-03-23T10:10:29Z</time>
      </trkpt>
      <trkpt lat="45.8943" lon="1.20267">
        <ele>395.72</ele>
        <time>2018-03-23T10:10:32Z</time>
      </trkpt>
      <trkpt lat="45.89516" lon="1.20249">
        <ele>393.32</ele>
        <time>2018-03-23T10:10:48Z</time>
      </trkpt>
      <trkpt lat="45.89529" lon="1.20245">
        <ele>392.84</ele>
        <time>2018-03-23T10:10:50Z</time>
      </trkpt>
      <trkpt lat="45.89541" lon="1.2024">
        <ele>391.87</ele>
        <time>2018-03-23T10:10:52Z</time>
      </trkpt>
      <trkpt lat="45.89646" lon="1.20183">
        <ele>388.51</ele>
        <time>2018-03-23T10:11:10Z</time>
      </trkpt>
      <trkpt lat="45.89742" lon="1.20153">
        <ele>387.55</ele>
        <time>2018-03-23T10:11:28Z</time>
      </trkpt>
      <trkpt lat="45.89836" lon="1.20128">
        <ele>387.55</ele>
        <time>2018-03-23T10:11:45Z</time>
      </trkpt>
      <trkpt lat="45.89865" lon="1.20122">
        <ele>387.55</ele>
        <time>2018-03-23T10:11:50Z</time>
      </trkpt>
      <trkpt lat="45.89975" lon="1.20083">
        <ele>386.11</ele>
        <time>2018-03-23T10:12:10Z</time>
      </trkpt>
      <trkpt lat="45.90064" lon="1.20049">
        <ele>386.11</ele>
        <time>2018-03-23T10:12:28Z</time>
      </trkpt>
      <trkpt lat="45.90073" lon="1.20044">
        <ele>386.11</ele>
        <time>2018-03-23T10:12:30Z</time>
      </trkpt>
      <trkpt lat="45.90078" lon="1.2004">
        <ele>386.11</ele>
        <time>2018-03-23T10:12:31Z</time>
      </trkpt>
      <trkpt lat="45.90087" lon="1.20032">
        <ele>386.11</ele>
        <time>2018-03-23T10:12:33Z</time>
      </trkpt>
      <trkpt lat="45.90091" lon="1.20029">
        <ele>386.11</ele>
        <time>2018-03-23T10:12:34Z</time>
      </trkpt>
      <trkpt lat="45.90109" lon="1.20013">
        <ele>387.55</ele>
        <time>2018-03-23T10:12:39Z</time>
      </trkpt>
      <trkpt lat="45.90158" lon="1.19969">
        <ele>388.99</ele>
        <time>2018-03-23T10:12:57Z</time>
      </trkpt>
      <trkpt lat="45.90197" lon="1.19924">
        <ele>389.47</ele>
        <time>2018-03-23T10:13:11Z</time>
      </trkpt>
      <trkpt lat="45.90228" lon="1.19881">
        <ele>389.95</ele>
        <time>2018-03-23T10:13:25Z</time>
      </trkpt>
      <trkpt lat="45.90234" lon="1.19867">
        <ele>388.51</ele>
        <time>2018-03-23T10:13:29Z</time>
      </trkpt>
      <trkpt lat="45.90252" lon="1.19844">
        <ele>388.03</ele>
        <time>2018-03-23T10:13:39Z</time>
      </trkpt>
      <trkpt lat="45.9028" lon="1.19828">
        <ele>384.66</ele>
        <time>2018-03-23T10:13:54Z</time>
      </trkpt>
      <trkpt lat="45.90282" lon="1.19827">
        <ele>384.66</ele>
        <time>2018-03-23T10:13:55Z</time>
      </trkpt>
      <trkpt lat="45.90299" lon="1.19815">
        <ele>382.26</ele>
        <time>2018-03-23T10:14:08Z</time>
      </trkpt>
      <trkpt lat="45.90312" lon="1.19809">
        <ele>381.3</ele>
        <time>2018-03-23T10:14:15Z</time>
      </trkpt>
      <trkpt lat="45.90329" lon="1.19793">
        <ele>377.94</ele>
        <time>2018-03-23T10:14:27Z</time>
      </trkpt>
      <trkpt lat="45.90338" lon="1.19782">
        <ele>374.57</ele>
        <time>2018-03-23T10:14:37Z</time>
      </trkpt>
      <trkpt lat="45.9035" lon="1.19771">
        <ele>371.69</ele>
        <time>2018-03-23T10:14:43Z</time>
      </trkpt>
      <trkpt lat="45.90354" lon="1.19766">
        <ele>370.24</ele>
        <time>2018-03-23T10:14:45Z</time>
      </trkpt>
      <trkpt lat="45.90363" lon="1.19754">
        <ele>368.32</ele>
        <time>2018-03-23T10:14:49Z</time>
      </trkpt>
      <trkpt lat="45.90381" lon="1.19725">
        <ele>364.96</ele>
        <time>2018-03-23T10:14:59Z</time>
      </trkpt>
      <trkpt lat="45.90388" lon="1.19714">
        <ele>363.52</ele>
        <time>2018-03-23T10:15:02Z</time>
      </trkpt>
      <trkpt lat="45.90399" lon="1.19694">
        <ele>362.07</ele>
        <time>2018-03-23T10:15:06Z</time>
      </trkpt>
      <trkpt lat="45.90402" lon="1.1969">
        <ele>361.59</ele>
        <time>2018-03-23T10:15:07Z</time>
      </trkpt>
      <trkpt lat="45.9042" lon="1.19648">
        <ele>358.23</ele>
        <time>2018-03-23T10:15:16Z</time>
      </trkpt>
      <trkpt lat="45.90428" lon="1.19639">
        <ele>356.79</ele>
        <time>2018-03-23T10:15:19Z</time>
      </trkpt>
      <trkpt lat="45.90437" lon="1.1963">
        <ele>352.94</ele>
        <time>2018-03-23T10:15:27Z</time>
      </trkpt>
      <trkpt lat="45.9045" lon="1.19627">
        <ele>350.06</ele>
        <time>2018-03-23T10:15:33Z</time>
      </trkpt>
      <trkpt lat="45.90453" lon="1.19627">
        <ele>350.06</ele>
        <time>2018-03-23T10:15:34Z</time>
      </trkpt>
      <trkpt lat="45.90472" lon="1.1962">
        <ele>346.69</ele>
        <time>2018-03-23T10:15:40Z</time>
      </trkpt>
      <trkpt lat="45.90478" lon="1.1962">
        <ele>345.73</ele>
        <time>2018-03-23T10:15:42Z</time>
      </trkpt>
      <trkpt lat="45.90487" lon="1.19634">
        <ele>345.73</ele>
        <time>2018-03-23T10:15:49Z</time>
      </trkpt>
      <trkpt lat="45.90492" lon="1.19647">
        <ele>345.25</ele>
        <time>2018-03-23T10:15:52Z</time>
      </trkpt>
      <trkpt lat="45.90525" lon="1.19709">
        <ele>343.33</ele>
        <time>2018-03-23T10:16:02Z</time>
      </trkpt>
      <trkpt lat="45.90551" lon="1.19751">
        <ele>341.89</ele>
        <time>2018-03-23T10:16:09Z</time>
      </trkpt>
      <trkpt lat="45.90572" lon="1.1979">
        <ele>343.33</ele>
        <time>2018-03-23T10:16:17Z</time>
      </trkpt>
      <trkpt lat="45.90608" lon="1.19858">
        <ele>345.25</ele>
        <time>2018-03-23T10:16:34Z</time>
      </trkpt>
      <trkpt lat="45.90631" lon="1.19899">
        <ele>348.13</ele>
        <time>2018-03-23T10:16:49Z</time>
      </trkpt>
      <trkpt lat="45.90641" lon="1.19933">
        <ele>351.02</ele>
        <time>2018-03-23T10:17:04Z</time>
      </trkpt>
      <trkpt lat="45.90642" lon="1.19941">
        <ele>351.98</ele>
        <time>2018-03-23T10:17:08Z</time>
      </trkpt>
      <trkpt lat="45.90641" lon="1.19942">
        <ele>351.98</ele>
        <time>2018-03-23T10:17:09Z</time>
      </trkpt>
      <trkpt lat="45.90641" lon="1.19945">
        <ele>351.98</ele>
        <time>2018-03-23T10:17:10Z</time>
      </trkpt>
      <trkpt lat="45.90641" lon="1.19946">
        <ele>352.46</ele>
        <time>2018-03-23T10:17:11Z</time>
      </trkpt>
      <trkpt lat="45.90641" lon="1.19948">
        <ele>352.46</ele>
        <time>2018-03-23T10:17:12Z</time>
      </trkpt>
      <trkpt lat="45.90641" lon="1.1995">
        <ele>352.46</ele>
        <time>2018-03-23T10:17:13Z</time>
      </trkpt>
      <trkpt lat="45.9064" lon="1.19953">
        <ele>353.42</ele>
        <time>2018-03-23T10:17:14Z</time>
      </trkpt>
      <trkpt lat="45.9064" lon="1.19955">
        <ele>353.42</ele>
        <time>2018-03-23T10:17:15Z</time>
      </trkpt>
      <trkpt lat="45.90639" lon="1.19956">
        <ele>353.42</ele>
        <time>2018-03-23T10:17:16Z</time>
      </trkpt>
      <trkpt lat="45.90639" lon="1.19958">
        <ele>353.42</ele>
        <time>2018-03-23T10:17:17Z</time>
      </trkpt>
      <trkpt lat="45.90639" lon="1.1996">
        <ele>353.42</ele>
        <time>2018-03-23T10:17:18Z</time>
      </trkpt>
      <trkpt lat="45.90639" lon="1.19962">
        <ele>354.38</ele>
        <time>2018-03-23T10:17:19Z</time>
      </trkpt>
      <trkpt lat="45.90638" lon="1.19964">
        <ele>354.38</ele>
        <time>2018-03-23T10:17:20Z</time>
      </trkpt>
      <trkpt lat="45.90638" lon="1.19971">
        <ele>354.38</ele>
        <time>2018-03-23T10:17:23Z</time>
      </trkpt>
      <trkpt lat="45.90636" lon="1.19975">
        <ele>354.38</ele>
        <time>2018-03-23T10:17:25Z</time>
      </trkpt>
      <trkpt lat="45.90636" lon="1.19977">
        <ele>354.38</ele>
        <time>2018-03-23T10:17:26Z</time>
      </trkpt>
      <trkpt lat="45.90635" lon="1.19979">
        <ele>355.34</ele>
        <time>2018-03-23T10:17:27Z</time>
      </trkpt>
      <trkpt lat="45.90635" lon="1.19982">
        <ele>355.34</ele>
        <time>2018-03-23T10:17:28Z</time>
      </trkpt>
      <trkpt lat="45.90634" lon="1.19984">
        <ele>355.83</ele>
        <time>2018-03-23T10:17:29Z</time>
      </trkpt>
      <trkpt lat="45.90634" lon="1.19987">
        <ele>355.83</ele>
        <time>2018-03-23T10:17:30Z</time>
      </trkpt>
      <trkpt lat="45.90633" lon="1.19989">
        <ele>355.83</ele>
        <time>2018-03-23T10:17:31Z</time>
      </trkpt>
      <trkpt lat="45.90633" lon="1.19992">
        <ele>356.31</ele>
        <time>2018-03-23T10:17:32Z</time>
      </trkpt>
      <trkpt lat="45.90632" lon="1.19994">
        <ele>356.31</ele>
        <time>2018-03-23T10:17:33Z</time>
      </trkpt>
      <trkpt lat="45.90631" lon="1.19996">
        <ele>356.31</ele>
        <time>2018-03-23T10:17:34Z</time>
      </trkpt>
      <trkpt lat="45.9063" lon="1.19998">
        <ele>356.31</ele>
        <time>2018-03-23T10:17:35Z</time>
      </trkpt>
      <trkpt lat="45.90629" lon="1.2">
        <ele>356.31</ele>
        <time>2018-03-23T10:17:36Z</time>
      </trkpt>
      <trkpt lat="45.90629" lon="1.20002">
        <ele>356.31</ele>
        <time>2018-03-23T10:17:37Z</time>
      </trkpt>
      <trkpt lat="45.90628" lon="1.20004">
        <ele>356.31</ele>
        <time>2018-03-23T10:17:38Z</time>
      </trkpt>
      <trkpt lat="45.90627" lon="1.20006">
        <ele>356.79</ele>
        <time>2018-03-23T10:17:39Z</time>
      </trkpt>
      <trkpt lat="45.90626" lon="1.20008">
        <ele>356.79</ele>
        <time>2018-03-23T10:17:40Z</time>
      </trkpt>
      <trkpt lat="45.90625" lon="1.2001">
        <ele>356.79</ele>
        <time>2018-03-23T10:17:41Z</time>
      </trkpt>
      <trkpt lat="45.90583" lon="1.20054">
        <ele>354.86</ele>
        <time>2018-03-23T10:17:57Z</time>
      </trkpt>
      <trkpt lat="45.90565" lon="1.20067">
        <ele>352.46</ele>
        <time>2018-03-23T10:18:01Z</time>
      </trkpt>
      <trkpt lat="45.9055" lon="1.20075">
        <ele>351.02</ele>
        <time>2018-03-23T10:18:04Z</time>
      </trkpt>
      <trkpt lat="45.90544" lon="1.2008">
        <ele>349.58</ele>
        <time>2018-03-23T10:18:05Z</time>
      </trkpt>
      <trkpt lat="45.90539" lon="1.20086">
        <ele>349.58</ele>
        <time>2018-03-23T10:18:06Z</time>
      </trkpt>
      <trkpt lat="45.90535" lon="1.20093">
        <ele>348.62</ele>
        <time>2018-03-23T10:18:07Z</time>
      </trkpt>
      <trkpt lat="45.90531" lon="1.20101">
        <ele>348.62</ele>
        <time>2018-03-23T10:18:08Z</time>
      </trkpt>
      <trkpt lat="45.90529" lon="1.20111">
        <ele>347.65</ele>
        <time>2018-03-23T10:18:09Z</time>
      </trkpt>
      <trkpt lat="45.90529" lon="1.20119">
        <ele>347.65</ele>
        <time>2018-03-23T10:18:10Z</time>
      </trkpt>
      <trkpt lat="45.90531" lon="1.20127">
        <ele>347.17</ele>
        <time>2018-03-23T10:18:11Z</time>
      </trkpt>
      <trkpt lat="45.90533" lon="1.20134">
        <ele>346.69</ele>
        <time>2018-03-23T10:18:12Z</time>
      </trkpt>
      <trkpt lat="45.90536" lon="1.2014">
        <ele>346.69</ele>
        <time>2018-03-23T10:18:13Z</time>
      </trkpt>
      <trkpt lat="45.90539" lon="1.20147">
        <ele>345.25</ele>
        <time>2018-03-23T10:18:14Z</time>
      </trkpt>
      <trkpt lat="45.90542" lon="1.20155">
        <ele>345.25</ele>
        <time>2018-03-23T10:18:15Z</time>
      </trkpt>
      <trkpt lat="45.90545" lon="1.20163">
        <ele>344.77</ele>
        <time>2018-03-23T10:18:16Z</time>
      </trkpt>
      <trkpt lat="45.90545" lon="1.2017">
        <ele>344.77</ele>
        <time>2018-03-23T10:18:17Z</time>
      </trkpt>
      <trkpt lat="45.90544" lon="1.20176">
        <ele>344.77</ele>
        <time>2018-03-23T10:18:18Z</time>
      </trkpt>
      <trkpt lat="45.90542" lon="1.20181">
        <ele>344.77</ele>
        <time>2018-03-23T10:18:19Z</time>
      </trkpt>
      <trkpt lat="45.90538" lon="1.20186">
        <ele>344.77</ele>
        <time>2018-03-23T10:18:20Z</time>
      </trkpt>
      <trkpt lat="45.90534" lon="1.20192">
        <ele>344.77</ele>
        <time>2018-03-23T10:18:21Z</time>
      </trkpt>
      <trkpt lat="45.90531" lon="1.20196">
        <ele>344.29</ele>
        <time>2018-03-23T10:18:22Z</time>
      </trkpt>
      <trkpt lat="45.90515" lon="1.2022">
        <ele>345.73</ele>
        <time>2018-03-23T10:18:27Z</time>
      </trkpt>
      <trkpt lat="45.90498" lon="1.20256">
        <ele>349.1</ele>
        <time>2018-03-23T10:18:38Z</time>
      </trkpt>
      <trkpt lat="45.90484" lon="1.20324">
        <ele>351.02</ele>
        <time>2018-03-23T10:18:56Z</time>
      </trkpt>
      <trkpt lat="45.90481" lon="1.20384">
        <ele>349.58</ele>
        <time>2018-03-23T10:19:08Z</time>
      </trkpt>
      <trkpt lat="45.90483" lon="1.20398">
        <ele>349.58</ele>
        <time>2018-03-23T10:19:11Z</time>
      </trkpt>
      <trkpt lat="45.90486" lon="1.20401">
        <ele>349.58</ele>
        <time>2018-03-23T10:19:12Z</time>
      </trkpt>
      <trkpt lat="45.9049" lon="1.20403">
        <ele>349.1</ele>
        <time>2018-03-23T10:19:13Z</time>
      </trkpt>
      <trkpt lat="45.90495" lon="1.20403">
        <ele>349.1</ele>
        <time>2018-03-23T10:19:14Z</time>
      </trkpt>
      <trkpt lat="45.905" lon="1.20401">
        <ele>348.62</ele>
        <time>2018-03-23T10:19:15Z</time>
      </trkpt>
      <trkpt lat="45.90505" lon="1.20399">
        <ele>348.62</ele>
        <time>2018-03-23T10:19:16Z</time>
      </trkpt>
      <trkpt lat="45.9051" lon="1.20396">
        <ele>348.62</ele>
        <time>2018-03-23T10:19:17Z</time>
      </trkpt>
      <trkpt lat="45.90515" lon="1.20392">
        <ele>348.13</ele>
        <time>2018-03-23T10:19:18Z</time>
      </trkpt>
      <trkpt lat="45.9054" lon="1.20372">
        <ele>347.65</ele>
        <time>2018-03-23T10:19:24Z</time>
      </trkpt>
      <trkpt lat="45.90548" lon="1.20367">
        <ele>347.65</ele>
        <time>2018-03-23T10:19:26Z</time>
      </trkpt>
      <trkpt lat="45.90581" lon="1.20357">
        <ele>347.65</ele>
        <time>2018-03-23T10:19:33Z</time>
      </trkpt>
      <trkpt lat="45.90585" lon="1.20355">
        <ele>347.65</ele>
        <time>2018-03-23T10:19:34Z</time>
      </trkpt>
      <trkpt lat="45.9063" lon="1.2035">
        <ele>349.58</ele>
        <time>2018-03-23T10:19:44Z</time>
      </trkpt>
      <trkpt lat="45.90634" lon="1.20351">
        <ele>350.54</ele>
        <time>2018-03-23T10:19:45Z</time>
      </trkpt>
      <trkpt lat="45.90637" lon="1.20353">
        <ele>350.54</ele>
        <time>2018-03-23T10:19:46Z</time>
      </trkpt>
      <trkpt lat="45.90639" lon="1.20356">
        <ele>351.02</ele>
        <time>2018-03-23T10:19:47Z</time>
      </trkpt>
      <trkpt lat="45.90641" lon="1.20359">
        <ele>351.02</ele>
        <time>2018-03-23T10:19:48Z</time>
      </trkpt>
      <trkpt lat="45.90671" lon="1.20377">
        <ele>351.5</ele>
        <time>2018-03-23T10:20:01Z</time>
      </trkpt>
      <trkpt lat="45.90693" lon="1.20386">
        <ele>350.06</ele>
        <time>2018-03-23T10:20:06Z</time>
      </trkpt>
      <trkpt lat="45.90722" lon="1.20397">
        <ele>349.1</ele>
        <time>2018-03-23T10:20:12Z</time>
      </trkpt>
      <trkpt lat="45.90762" lon="1.20407">
        <ele>348.13</ele>
        <time>2018-03-23T10:20:24Z</time>
      </trkpt>
      <trkpt lat="45.90808" lon="1.20413">
        <ele>348.13</ele>
        <time>2018-03-23T10:20:39Z</time>
      </trkpt>
      <trkpt lat="45.9084" lon="1.20415">
        <ele>348.13</ele>
        <time>2018-03-23T10:20:50Z</time>
      </trkpt>
      <trkpt lat="45.90873" lon="1.2042">
        <ele>349.58</ele>
        <time>2018-03-23T10:21:02Z</time>
      </trkpt>
      <trkpt lat="45.90917" lon="1.20421">
        <ele>349.58</ele>
        <time>2018-03-23T10:21:16Z</time>
      </trkpt>
      <trkpt lat="45.90952" lon="1.20448">
        <ele>350.54</ele>
        <time>2018-03-23T10:21:29Z</time>
      </trkpt>
      <trkpt lat="45.90974" lon="1.20478">
        <ele>351.5</ele>
        <time>2018-03-23T10:21:46Z</time>
      </trkpt>
      <trkpt lat="45.90976" lon="1.20496">
        <ele>354.86</ele>
        <time>2018-03-23T10:22:02Z</time>
      </trkpt>
      <trkpt lat="45.90968" lon="1.20518">
        <ele>357.75</ele>
        <time>2018-03-23T10:22:19Z</time>
      </trkpt>
      <trkpt lat="45.90966" lon="1.20546">
        <ele>359.67</ele>
        <time>2018-03-23T10:22:35Z</time>
      </trkpt>
      <trkpt lat="45.90969" lon="1.20571">
        <ele>360.63</ele>
        <time>2018-03-23T10:22:46Z</time>
      </trkpt>
      <trkpt lat="45.90971" lon="1.20578">
        <ele>361.11</ele>
        <time>2018-03-23T10:22:49Z</time>
      </trkpt>
      <trkpt lat="45.90973" lon="1.20597">
        <ele>362.55</ele>
        <time>2018-03-23T10:22:59Z</time>
      </trkpt>
      <trkpt lat="45.90975" lon="1.20604">
        <ele>362.07</ele>
        <time>2018-03-23T10:23:02Z</time>
      </trkpt>
      <trkpt lat="45.90976" lon="1.20608">
        <ele>360.63</ele>
        <time>2018-03-23T10:23:04Z</time>
      </trkpt>
      <trkpt lat="45.91003" lon="1.20639">
        <ele>364</ele>
        <time>2018-03-23T10:23:22Z</time>
      </trkpt>
      <trkpt lat="45.91019" lon="1.2065">
        <ele>364.48</ele>
        <time>2018-03-23T10:23:35Z</time>
      </trkpt>
      <trkpt lat="45.91029" lon="1.20655">
        <ele>365.44</ele>
        <time>2018-03-23T10:23:43Z</time>
      </trkpt>
      <trkpt lat="45.9105" lon="1.20678">
        <ele>367.36</ele>
        <time>2018-03-23T10:24:01Z</time>
      </trkpt>
      <trkpt lat="45.91059" lon="1.20686">
        <ele>367.84</ele>
        <time>2018-03-23T10:24:07Z</time>
      </trkpt>
      <trkpt lat="45.91055" lon="1.20703">
        <ele>370.24</ele>
        <time>2018-03-23T10:24:24Z</time>
      </trkpt>
      <trkpt lat="45.91043" lon="1.20713">
        <ele>373.61</ele>
        <time>2018-03-23T10:24:41Z</time>
      </trkpt>
      <trkpt lat="45.91027" lon="1.20721">
        <ele>376.01</ele>
        <time>2018-03-23T10:24:57Z</time>
      </trkpt>
      <trkpt lat="45.91014" lon="1.20734">
        <ele>378.42</ele>
        <time>2018-03-23T10:25:13Z</time>
      </trkpt>
      <trkpt lat="45.91002" lon="1.20744">
        <ele>381.3</ele>
        <time>2018-03-23T10:25:28Z</time>
      </trkpt>
      <trkpt lat="45.90989" lon="1.20754">
        <ele>383.7</ele>
        <time>2018-03-23T10:25:43Z</time>
      </trkpt>
      <trkpt lat="45.90982" lon="1.20761">
        <ele>384.66</ele>
        <time>2018-03-23T10:25:50Z</time>
      </trkpt>
      <trkpt lat="45.90971" lon="1.20783">
        <ele>386.11</ele>
        <time>2018-03-23T10:26:08Z</time>
      </trkpt>
      <trkpt lat="45.90959" lon="1.20808">
        <ele>388.03</ele>
        <time>2018-03-23T10:26:24Z</time>
      </trkpt>
      <trkpt lat="45.90958" lon="1.20812">
        <ele>388.51</ele>
        <time>2018-03-23T10:26:26Z</time>
      </trkpt>
      <trkpt lat="45.90959" lon="1.20822">
        <ele>388.99</ele>
        <time>2018-03-23T10:26:31Z</time>
      </trkpt>
      <trkpt lat="45.90962" lon="1.20824">
        <ele>388.99</ele>
        <time>2018-03-23T10:26:33Z</time>
      </trkpt>
      <trkpt lat="45.90965" lon="1.20832">
        <ele>389.95</ele>
        <time>2018-03-23T10:26:37Z</time>
      </trkpt>
      <trkpt lat="45.90979" lon="1.20851">
        <ele>390.43</ele>
        <time>2018-03-23T10:26:48Z</time>
      </trkpt>
      <trkpt lat="45.90983" lon="1.20854">
        <ele>389.95</ele>
        <time>2018-03-23T10:26:51Z</time>
      </trkpt>
      <trkpt lat="45.90987" lon="1.2086">
        <ele>388.51</ele>
        <time>2018-03-23T10:26:55Z</time>
      </trkpt>
      <trkpt lat="45.91" lon="1.20876">
        <ele>384.18</ele>
        <time>2018-03-23T10:27:02Z</time>
      </trkpt>
      <trkpt lat="45.91002" lon="1.20879">
        <ele>384.18</ele>
        <time>2018-03-23T10:27:03Z</time>
      </trkpt>
      <trkpt lat="45.91008" lon="1.20885">
        <ele>382.74</ele>
        <time>2018-03-23T10:27:05Z</time>
      </trkpt>
      <trkpt lat="45.91017" lon="1.20895">
        <ele>379.38</ele>
        <time>2018-03-23T10:27:08Z</time>
      </trkpt>
      <trkpt lat="45.9102" lon="1.20899">
        <ele>377.94</ele>
        <time>2018-03-23T10:27:09Z</time>
      </trkpt>
      <trkpt lat="45.91022" lon="1.20904">
        <ele>377.94</ele>
        <time>2018-03-23T10:27:10Z</time>
      </trkpt>
      <trkpt lat="45.91024" lon="1.2091">
        <ele>376.49</ele>
        <time>2018-03-23T10:27:11Z</time>
      </trkpt>
      <trkpt lat="45.91026" lon="1.20916">
        <ele>376.01</ele>
        <time>2018-03-23T10:27:12Z</time>
      </trkpt>
      <trkpt lat="45.91028" lon="1.20922">
        <ele>376.01</ele>
        <time>2018-03-23T10:27:13Z</time>
      </trkpt>
      <trkpt lat="45.91028" lon="1.20927">
        <ele>374.57</ele>
        <time>2018-03-23T10:27:14Z</time>
      </trkpt>
      <trkpt lat="45.91029" lon="1.20933">
        <ele>374.57</ele>
        <time>2018-03-23T10:27:15Z</time>
      </trkpt>
      <trkpt lat="45.91028" lon="1.20938">
        <ele>373.61</ele>
        <time>2018-03-23T10:27:16Z</time>
      </trkpt>
      <trkpt lat="45.91027" lon="1.20944">
        <ele>373.61</ele>
        <time>2018-03-23T10:27:17Z</time>
      </trkpt>
      <trkpt lat="45.91025" lon="1.2095">
        <ele>372.65</ele>
        <time>2018-03-23T10:27:18Z</time>
      </trkpt>
      <trkpt lat="45.91021" lon="1.20965">
        <ele>372.17</ele>
        <time>2018-03-23T10:27:20Z</time>
      </trkpt>
      <trkpt lat="45.91016" lon="1.20983">
        <ele>370.73</ele>
        <time>2018-03-23T10:27:22Z</time>
      </trkpt>
      <trkpt lat="45.91012" lon="1.21006">
        <ele>369.28</ele>
        <time>2018-03-23T10:27:25Z</time>
      </trkpt>
      <trkpt lat="45.91012" lon="1.21014">
        <ele>370.24</ele>
        <time>2018-03-23T10:27:26Z</time>
      </trkpt>
      <trkpt lat="45.91017" lon="1.21057">
        <ele>368.8</ele>
        <time>2018-03-23T10:27:34Z</time>
      </trkpt>
      <trkpt lat="45.91035" lon="1.21099">
        <ele>371.69</ele>
        <time>2018-03-23T10:27:48Z</time>
      </trkpt>
      <trkpt lat="45.91039" lon="1.2111">
        <ele>372.65</ele>
        <time>2018-03-23T10:27:53Z</time>
      </trkpt>
      <trkpt lat="45.9104" lon="1.21112">
        <ele>372.65</ele>
        <time>2018-03-23T10:27:54Z</time>
      </trkpt>
      <trkpt lat="45.91046" lon="1.21143">
        <ele>375.05</ele>
        <time>2018-03-23T10:28:10Z</time>
      </trkpt>
      <trkpt lat="45.91051" lon="1.21166">
        <ele>377.94</ele>
        <time>2018-03-23T10:28:24Z</time>
      </trkpt>
      <trkpt lat="45.91057" lon="1.21194">
        <ele>380.82</ele>
        <time>2018-03-23T10:28:42Z</time>
      </trkpt>
      <trkpt lat="45.91057" lon="1.21198">
        <ele>381.3</ele>
        <time>2018-03-23T10:28:44Z</time>
      </trkpt>
      <trkpt lat="45.91053" lon="1.21222">
        <ele>383.22</ele>
        <time>2018-03-23T10:29:00Z</time>
      </trkpt>
      <trkpt lat="45.91051" lon="1.21239">
        <ele>383.7</ele>
        <time>2018-03-23T10:29:11Z</time>
      </trkpt>
      <trkpt lat="45.91051" lon="1.21244">
        <ele>384.18</ele>
        <time>2018-03-23T10:29:13Z</time>
      </trkpt>
      <trkpt lat="45.91052" lon="1.21253">
        <ele>382.74</ele>
        <time>2018-03-23T10:29:16Z</time>
      </trkpt>
      <trkpt lat="45.91053" lon="1.21257">
        <ele>382.74</ele>
        <time>2018-03-23T10:29:17Z</time>
      </trkpt>
      <trkpt lat="45.91054" lon="1.2126">
        <ele>382.74</ele>
        <time>2018-03-23T10:29:18Z</time>
      </trkpt>
      <trkpt lat="45.91057" lon="1.21264">
        <ele>382.26</ele>
        <time>2018-03-23T10:29:19Z</time>
      </trkpt>
      <trkpt lat="45.91059" lon="1.21267">
        <ele>382.26</ele>
        <time>2018-03-23T10:29:20Z</time>
      </trkpt>
      <trkpt lat="45.91062" lon="1.21271">
        <ele>382.26</ele>
        <time>2018-03-23T10:29:21Z</time>
      </trkpt>
      <trkpt lat="45.91077" lon="1.21298">
        <ele>383.22</ele>
        <time>2018-03-23T10:29:30Z</time>
      </trkpt>
      <trkpt lat="45.91078" lon="1.21301">
        <ele>383.22</ele>
        <time>2018-03-23T10:29:31Z</time>
      </trkpt>
      <trkpt lat="45.91079" lon="1.21304">
        <ele>383.22</ele>
        <time>2018-03-23T10:29:32Z</time>
      </trkpt>
      <trkpt lat="45.91081" lon="1.21307">
        <ele>383.22</ele>
        <time>2018-03-23T10:29:33Z</time>
      </trkpt>
      <trkpt lat="45.91082" lon="1.21311">
        <ele>383.22</ele>
        <time>2018-03-23T10:29:34Z</time>
      </trkpt>
      <trkpt lat="45.91084" lon="1.21314">
        <ele>383.22</ele>
        <time>2018-03-23T10:29:35Z</time>
      </trkpt>
      <trkpt lat="45.91085" lon="1.21316">
        <ele>383.22</ele>
        <time>2018-03-23T10:29:36Z</time>
      </trkpt>
      <trkpt lat="45.91087" lon="1.21319">
        <ele>383.7</ele>
        <time>2018-03-23T10:29:37Z</time>
      </trkpt>
      <trkpt lat="45.91088" lon="1.21322">
        <ele>383.7</ele>
        <time>2018-03-23T10:29:38Z</time>
      </trkpt>
      <trkpt lat="45.91089" lon="1.21324">
        <ele>383.7</ele>
        <time>2018-03-23T10:29:39Z</time>
      </trkpt>
      <trkpt lat="45.91094" lon="1.21339">
        <ele>381.78</ele>
        <time>2018-03-23T10:29:44Z</time>
      </trkpt>
      <trkpt lat="45.91094" lon="1.21345">
        <ele>380.34</ele>
        <time>2018-03-23T10:29:45Z</time>
      </trkpt>
      <trkpt lat="45.91094" lon="1.21352">
        <ele>379.86</ele>
        <time>2018-03-23T10:29:46Z</time>
      </trkpt>
      <trkpt lat="45.91094" lon="1.21357">
        <ele>378.9</ele>
        <time>2018-03-23T10:29:47Z</time>
      </trkpt>
      <trkpt lat="45.91095" lon="1.21363">
        <ele>378.42</ele>
        <time>2018-03-23T10:29:48Z</time>
      </trkpt>
      <trkpt lat="45.91097" lon="1.2137">
        <ele>377.45</ele>
        <time>2018-03-23T10:29:49Z</time>
      </trkpt>
      <trkpt lat="45.91098" lon="1.21376">
        <ele>376.49</ele>
        <time>2018-03-23T10:29:50Z</time>
      </trkpt>
      <trkpt lat="45.91101" lon="1.21381">
        <ele>376.49</ele>
        <time>2018-03-23T10:29:51Z</time>
      </trkpt>
      <trkpt lat="45.91106" lon="1.21384">
        <ele>375.53</ele>
        <time>2018-03-23T10:29:52Z</time>
      </trkpt>
      <trkpt lat="45.9111" lon="1.21386">
        <ele>375.53</ele>
        <time>2018-03-23T10:29:53Z</time>
      </trkpt>
      <trkpt lat="45.91115" lon="1.21388">
        <ele>375.53</ele>
        <time>2018-03-23T10:29:54Z</time>
      </trkpt>
      <trkpt lat="45.91119" lon="1.21389">
        <ele>375.53</ele>
        <time>2018-03-23T10:29:55Z</time>
      </trkpt>
      <trkpt lat="45.91125" lon="1.2139">
        <ele>375.53</ele>
        <time>2018-03-23T10:29:56Z</time>
      </trkpt>
      <trkpt lat="45.91129" lon="1.2139">
        <ele>375.53</ele>
        <time>2018-03-23T10:29:57Z</time>
      </trkpt>
      <trkpt lat="45.91133" lon="1.21391">
        <ele>375.53</ele>
        <time>2018-03-23T10:29:58Z</time>
      </trkpt>
      <trkpt lat="45.91136" lon="1.21393">
        <ele>375.53</ele>
        <time>2018-03-23T10:29:59Z</time>
      </trkpt>
      <trkpt lat="45.91138" lon="1.21395">
        <ele>375.53</ele>
        <time>2018-03-23T10:30:00Z</time>
      </trkpt>
      <trkpt lat="45.91145" lon="1.21397">
        <ele>376.97</ele>
        <time>2018-03-23T10:30:03Z</time>
      </trkpt>
      <trkpt lat="45.91159" lon="1.21406">
        <ele>377.45</ele>
        <time>2018-03-23T10:30:10Z</time>
      </trkpt>
      <trkpt lat="45.91176" lon="1.21428">
        <ele>377.94</ele>
        <time>2018-03-23T10:30:20Z</time>
      </trkpt>
      <trkpt lat="45.91178" lon="1.2143">
        <ele>377.94</ele>
        <time>2018-03-23T10:30:21Z</time>
      </trkpt>
      <trkpt lat="45.9118" lon="1.21433">
        <ele>377.94</ele>
        <time>2018-03-23T10:30:22Z</time>
      </trkpt>
      <trkpt lat="45.91181" lon="1.21435">
        <ele>378.9</ele>
        <time>2018-03-23T10:30:23Z</time>
      </trkpt>
      <trkpt lat="45.91182" lon="1.21437">
        <ele>378.9</ele>
        <time>2018-03-23T10:30:24Z</time>
      </trkpt>
      <trkpt lat="45.91183" lon="1.21441">
        <ele>378.9</ele>
        <time>2018-03-23T10:30:25Z</time>
      </trkpt>
      <trkpt lat="45.91184" lon="1.21444">
        <ele>378.9</ele>
        <time>2018-03-23T10:30:26Z</time>
      </trkpt>
      <trkpt lat="45.91188" lon="1.21477">
        <ele>377.45</ele>
        <time>2018-03-23T10:30:34Z</time>
      </trkpt>
      <trkpt lat="45.91192" lon="1.21519">
        <ele>378.9</ele>
        <time>2018-03-23T10:30:46Z</time>
      </trkpt>
      <trkpt lat="45.91199" lon="1.21537">
        <ele>380.82</ele>
        <time>2018-03-23T10:30:54Z</time>
      </trkpt>
      <trkpt lat="45.912" lon="1.21539">
        <ele>380.82</ele>
        <time>2018-03-23T10:30:55Z</time>
      </trkpt>
      <trkpt lat="45.91201" lon="1.2154">
        <ele>380.82</ele>
        <time>2018-03-23T10:30:56Z</time>
      </trkpt>
      <trkpt lat="45.91202" lon="1.21542">
        <ele>380.34</ele>
        <time>2018-03-23T10:30:57Z</time>
      </trkpt>
      <trkpt lat="45.91217" lon="1.21571">
        <ele>383.7</ele>
        <time>2018-03-23T10:31:12Z</time>
      </trkpt>
      <trkpt lat="45.91219" lon="1.21593">
        <ele>386.59</ele>
        <time>2018-03-23T10:31:29Z</time>
      </trkpt>
      <trkpt lat="45.91225" lon="1.21598">
        <ele>387.07</ele>
        <time>2018-03-23T10:31:44Z</time>
      </trkpt>
      <trkpt lat="45.91225" lon="1.21598">
        <ele>387.07</ele>
        <time>2018-03-23T10:32:04Z</time>
      </trkpt>
      <trkpt lat="45.91223" lon="1.21597">
        <ele>387.07</ele>
        <time>2018-03-23T10:32:26Z</time>
      </trkpt>
      <trkpt lat="45.9122" lon="1.21589">
        <ele>387.07</ele>
        <time>2018-03-23T10:33:00Z</time>
      </trkpt>
      <trkpt lat="45.9122" lon="1.2159">
        <ele>387.07</ele>
        <time>2018-03-23T10:33:22Z</time>
      </trkpt>
      <trkpt lat="45.91217" lon="1.21588">
        <ele>387.55</ele>
        <time>2018-03-23T10:33:45Z</time>
      </trkpt>
      <trkpt lat="45.91213" lon="1.2158">
        <ele>386.11</ele>
        <time>2018-03-23T10:34:06Z</time>
      </trkpt>
      <trkpt lat="45.91211" lon="1.21582">
        <ele>386.59</ele>
        <time>2018-03-23T10:34:47Z</time>
      </trkpt>
      <trkpt lat="45.9122" lon="1.21595">
        <ele>386.59</ele>
        <time>2018-03-23T10:35:10Z</time>
      </trkpt>
      <trkpt lat="45.91224" lon="1.21602">
        <ele>388.03</ele>
        <time>2018-03-23T10:35:25Z</time>
      </trkpt>
      <trkpt lat="45.91225" lon="1.21598">
        <ele>388.03</ele>
        <time>2018-03-23T10:35:47Z</time>
      </trkpt>
      <trkpt lat="45.91226" lon="1.21597">
        <ele>388.03</ele>
        <time>2018-03-23T10:36:31Z</time>
      </trkpt>
      <trkpt lat="45.91221" lon="1.21598">
        <ele>388.03</ele>
        <time>2018-03-23T10:36:49Z</time>
      </trkpt>
      <trkpt lat="45.91221" lon="1.21598">
        <ele>388.51</ele>
        <time>2018-03-23T10:37:11Z</time>
      </trkpt>
      <trkpt lat="45.91225" lon="1.2161">
        <ele>388.51</ele>
        <time>2018-03-23T10:37:22Z</time>
      </trkpt>
      <trkpt lat="45.91228" lon="1.21618">
        <ele>389.47</ele>
        <time>2018-03-23T10:37:27Z</time>
      </trkpt>
      <trkpt lat="45.91229" lon="1.21628">
        <ele>390.43</ele>
        <time>2018-03-23T10:37:34Z</time>
      </trkpt>
      <trkpt lat="45.91238" lon="1.21664">
        <ele>392.36</ele>
        <time>2018-03-23T10:37:51Z</time>
      </trkpt>
      <trkpt lat="45.91247" lon="1.2172">
        <ele>393.8</ele>
        <time>2018-03-23T10:38:09Z</time>
      </trkpt>
      <trkpt lat="45.91262" lon="1.21769">
        <ele>393.8</ele>
        <time>2018-03-23T10:38:24Z</time>
      </trkpt>
      <trkpt lat="45.91264" lon="1.21772">
        <ele>392.36</ele>
        <time>2018-03-23T10:38:28Z</time>
      </trkpt>
      <trkpt lat="45.91271" lon="1.21775">
        <ele>394.28</ele>
        <time>2018-03-23T10:38:41Z</time>
      </trkpt>
      <trkpt lat="45.91277" lon="1.21771">
        <ele>392.36</ele>
        <time>2018-03-23T10:38:43Z</time>
      </trkpt>
      <trkpt lat="45.9128" lon="1.21767">
        <ele>392.36</ele>
        <time>2018-03-23T10:38:44Z</time>
      </trkpt>
      <trkpt lat="45.91284" lon="1.21762">
        <ele>391.87</ele>
        <time>2018-03-23T10:38:45Z</time>
      </trkpt>
      <trkpt lat="45.91322" lon="1.21706">
        <ele>388.03</ele>
        <time>2018-03-23T10:38:53Z</time>
      </trkpt>
      <trkpt lat="45.91328" lon="1.21697">
        <ele>388.03</ele>
        <time>2018-03-23T10:38:54Z</time>
      </trkpt>
      <trkpt lat="45.9134" lon="1.21679">
        <ele>386.59</ele>
        <time>2018-03-23T10:38:56Z</time>
      </trkpt>
      <trkpt lat="45.91353" lon="1.2166">
        <ele>385.15</ele>
        <time>2018-03-23T10:38:58Z</time>
      </trkpt>
      <trkpt lat="45.91367" lon="1.21639">
        <ele>383.7</ele>
        <time>2018-03-23T10:39:00Z</time>
      </trkpt>
      <trkpt lat="45.91382" lon="1.21617">
        <ele>382.26</ele>
        <time>2018-03-23T10:39:02Z</time>
      </trkpt>
      <trkpt lat="45.91406" lon="1.21584">
        <ele>378.9</ele>
        <time>2018-03-23T10:39:05Z</time>
      </trkpt>
      <trkpt lat="45.91421" lon="1.21562">
        <ele>378.42</ele>
        <time>2018-03-23T10:39:07Z</time>
      </trkpt>
      <trkpt lat="45.91455" lon="1.21511">
        <ele>378.9</ele>
        <time>2018-03-23T10:39:12Z</time>
      </trkpt>
      <trkpt lat="45.91467" lon="1.21494">
        <ele>377.94</ele>
        <time>2018-03-23T10:39:14Z</time>
      </trkpt>
      <trkpt lat="45.91527" lon="1.21385">
        <ele>378.9</ele>
        <time>2018-03-23T10:39:29Z</time>
      </trkpt>
      <trkpt lat="45.9155" lon="1.21344">
        <ele>377.45</ele>
        <time>2018-03-23T10:39:35Z</time>
      </trkpt>
      <trkpt lat="45.91574" lon="1.21303">
        <ele>375.53</ele>
        <time>2018-03-23T10:39:41Z</time>
      </trkpt>
      <trkpt lat="45.91577" lon="1.21301">
        <ele>375.05</ele>
        <time>2018-03-23T10:39:42Z</time>
      </trkpt>
      <trkpt lat="45.9158" lon="1.21301">
        <ele>375.05</ele>
        <time>2018-03-23T10:39:43Z</time>
      </trkpt>
      <trkpt lat="45.91587" lon="1.21306">
        <ele>375.05</ele>
        <time>2018-03-23T10:39:45Z</time>
      </trkpt>
      <trkpt lat="45.91616" lon="1.21337">
        <ele>376.49</ele>
        <time>2018-03-23T10:39:55Z</time>
      </trkpt>
      <trkpt lat="45.91659" lon="1.21387">
        <ele>378.42</ele>
        <time>2018-03-23T10:40:11Z</time>
      </trkpt>
      <trkpt lat="45.91691" lon="1.21433">
        <ele>378.9</ele>
        <time>2018-03-23T10:40:25Z</time>
      </trkpt>
      <trkpt lat="45.91738" lon="1.2148">
        <ele>378.42</ele>
        <time>2018-03-23T10:40:41Z</time>
      </trkpt>
      <trkpt lat="45.91777" lon="1.21521">
        <ele>379.86</ele>
        <time>2018-03-23T10:40:55Z</time>
      </trkpt>
      <trkpt lat="45.91795" lon="1.21578">
        <ele>380.34</ele>
        <time>2018-03-23T10:41:07Z</time>
      </trkpt>
      <trkpt lat="45.91804" lon="1.21595">
        <ele>379.38</ele>
        <time>2018-03-23T10:41:10Z</time>
      </trkpt>
      <trkpt lat="45.91808" lon="1.21601">
        <ele>378.42</ele>
        <time>2018-03-23T10:41:11Z</time>
      </trkpt>
      <trkpt lat="45.91813" lon="1.21607">
        <ele>378.42</ele>
        <time>2018-03-23T10:41:12Z</time>
      </trkpt>
      <trkpt lat="45.91855" lon="1.21648">
        <ele>378.9</ele>
        <time>2018-03-23T10:41:24Z</time>
      </trkpt>
      <trkpt lat="45.9188" lon="1.21668">
        <ele>380.82</ele>
        <time>2018-03-23T10:41:35Z</time>
      </trkpt>
      <trkpt lat="45.91882" lon="1.21669">
        <ele>380.82</ele>
        <time>2018-03-23T10:41:36Z</time>
      </trkpt>
      <trkpt lat="45.91884" lon="1.2167">
        <ele>381.3</ele>
        <time>2018-03-23T10:41:37Z</time>
      </trkpt>
      <trkpt lat="45.91886" lon="1.21672">
        <ele>381.3</ele>
        <time>2018-03-23T10:41:38Z</time>
      </trkpt>
      <trkpt lat="45.91888" lon="1.21673">
        <ele>381.3</ele>
        <time>2018-03-23T10:41:39Z</time>
      </trkpt>
      <trkpt lat="45.91912" lon="1.21696">
        <ele>383.7</ele>
        <time>2018-03-23T10:41:55Z</time>
      </trkpt>
      <trkpt lat="45.91934" lon="1.21694">
        <ele>386.59</ele>
        <time>2018-03-23T10:42:09Z</time>
      </trkpt>
      <trkpt lat="45.91957" lon="1.21698">
        <ele>388.99</ele>
        <time>2018-03-23T10:42:25Z</time>
      </trkpt>
      <trkpt lat="45.91983" lon="1.21698">
        <ele>389.95</ele>
        <time>2018-03-23T10:42:41Z</time>
      </trkpt>
      <trkpt lat="45.92027" lon="1.21697">
        <ele>391.39</ele>
        <time>2018-03-23T10:43:01Z</time>
      </trkpt>
      <trkpt lat="45.92039" lon="1.21698">
        <ele>391.87</ele>
        <time>2018-03-23T10:43:06Z</time>
      </trkpt>
      <trkpt lat="45.92041" lon="1.21698">
        <ele>392.36</ele>
        <time>2018-03-23T10:43:07Z</time>
      </trkpt>
      <trkpt lat="45.92042" lon="1.21698">
        <ele>391.87</ele>
        <time>2018-03-23T10:43:08Z</time>
      </trkpt>
      <trkpt lat="45.92044" lon="1.21698">
        <ele>391.87</ele>
        <time>2018-03-23T10:43:09Z</time>
      </trkpt>
      <trkpt lat="45.92046" lon="1.21699">
        <ele>391.87</ele>
        <time>2018-03-23T10:43:10Z</time>
      </trkpt>
      <trkpt lat="45.92049" lon="1.21699">
        <ele>392.36</ele>
        <time>2018-03-23T10:43:11Z</time>
      </trkpt>
      <trkpt lat="45.92051" lon="1.21699">
        <ele>392.36</ele>
        <time>2018-03-23T10:43:12Z</time>
      </trkpt>
      <trkpt lat="45.92054" lon="1.21699">
        <ele>391.87</ele>
        <time>2018-03-23T10:43:13Z</time>
      </trkpt>
      <trkpt lat="45.92057" lon="1.21698">
        <ele>392.36</ele>
        <time>2018-03-23T10:43:14Z</time>
      </trkpt>
      <trkpt lat="45.92099" lon="1.21696">
        <ele>393.32</ele>
        <time>2018-03-23T10:43:32Z</time>
      </trkpt>
      <trkpt lat="45.92135" lon="1.21697">
        <ele>395.72</ele>
        <time>2018-03-23T10:43:49Z</time>
      </trkpt>
      <trkpt lat="45.9217" lon="1.21694">
        <ele>397.64</ele>
        <time>2018-03-23T10:44:05Z</time>
      </trkpt>
      <trkpt lat="45.922" lon="1.2169">
        <ele>398.6</ele>
        <time>2018-03-23T10:44:20Z</time>
      </trkpt>
      <trkpt lat="45.92231" lon="1.21691">
        <ele>400.05</ele>
        <time>2018-03-23T10:44:36Z</time>
      </trkpt>
      <trkpt lat="45.92263" lon="1.21693">
        <ele>401.49</ele>
        <time>2018-03-23T10:44:52Z</time>
      </trkpt>
      <trkpt lat="45.92299" lon="1.21691">
        <ele>403.89</ele>
        <time>2018-03-23T10:45:09Z</time>
      </trkpt>
      <trkpt lat="45.92308" lon="1.2169">
        <ele>404.37</ele>
        <time>2018-03-23T10:45:16Z</time>
      </trkpt>
      <trkpt lat="45.92339" lon="1.21671">
        <ele>406.29</ele>
        <time>2018-03-23T10:45:31Z</time>
      </trkpt>
      <trkpt lat="45.92368" lon="1.21694">
        <ele>406.77</ele>
        <time>2018-03-23T10:45:46Z</time>
      </trkpt>
      <trkpt lat="45.92394" lon="1.21746">
        <ele>407.74</ele>
        <time>2018-03-23T10:46:03Z</time>
      </trkpt>
      <trkpt lat="45.92419" lon="1.21765">
        <ele>409.18</ele>
        <time>2018-03-23T10:46:12Z</time>
      </trkpt>
      <trkpt lat="45.92446" lon="1.21826">
        <ele>410.14</ele>
        <time>2018-03-23T10:46:28Z</time>
      </trkpt>
      <trkpt lat="45.92471" lon="1.21863">
        <ele>411.1</ele>
        <time>2018-03-23T10:46:40Z</time>
      </trkpt>
      <trkpt lat="45.9247" lon="1.21867">
        <ele>411.1</ele>
        <time>2018-03-23T10:46:41Z</time>
      </trkpt>
      <trkpt lat="45.9247" lon="1.2187">
        <ele>411.1</ele>
        <time>2018-03-23T10:46:42Z</time>
      </trkpt>
      <trkpt lat="45.9247" lon="1.21899">
        <ele>410.14</ele>
        <time>2018-03-23T10:46:48Z</time>
      </trkpt>
      <trkpt lat="45.92471" lon="1.21905">
        <ele>410.14</ele>
        <time>2018-03-23T10:46:49Z</time>
      </trkpt>
      <trkpt lat="45.92475" lon="1.21972">
        <ele>408.7</ele>
        <time>2018-03-23T10:47:01Z</time>
      </trkpt>
      <trkpt lat="45.92489" lon="1.22031">
        <ele>408.22</ele>
        <time>2018-03-23T10:47:11Z</time>
      </trkpt>
      <trkpt lat="45.92492" lon="1.22042">
        <ele>407.74</ele>
        <time>2018-03-23T10:47:13Z</time>
      </trkpt>
      <trkpt lat="45.9251" lon="1.221">
        <ele>407.74</ele>
        <time>2018-03-23T10:47:25Z</time>
      </trkpt>
      <trkpt lat="45.92513" lon="1.22102">
        <ele>407.74</ele>
        <time>2018-03-23T10:47:26Z</time>
      </trkpt>
      <trkpt lat="45.92517" lon="1.22101">
        <ele>407.74</ele>
        <time>2018-03-23T10:47:27Z</time>
      </trkpt>
      <trkpt lat="45.92532" lon="1.22097">
        <ele>409.18</ele>
        <time>2018-03-23T10:47:31Z</time>
      </trkpt>
      <trkpt lat="45.92536" lon="1.22096">
        <ele>409.66</ele>
        <time>2018-03-23T10:47:32Z</time>
      </trkpt>
      <trkpt lat="45.92575" lon="1.22068">
        <ele>410.14</ele>
        <time>2018-03-23T10:47:46Z</time>
      </trkpt>
      <trkpt lat="45.92636" lon="1.22032">
        <ele>411.58</ele>
        <time>2018-03-23T10:48:03Z</time>
      </trkpt>
      <trkpt lat="45.92689" lon="1.22002">
        <ele>414.95</ele>
        <time>2018-03-23T10:48:20Z</time>
      </trkpt>
      <trkpt lat="45.92715" lon="1.22029">
        <ele>416.39</ele>
        <time>2018-03-23T10:48:31Z</time>
      </trkpt>
      <trkpt lat="45.92752" lon="1.22105">
        <ele>416.87</ele>
        <time>2018-03-23T10:48:51Z</time>
      </trkpt>
      <trkpt lat="45.92773" lon="1.22155">
        <ele>417.83</ele>
        <time>2018-03-23T10:49:06Z</time>
      </trkpt>
      <trkpt lat="45.9279" lon="1.22199">
        <ele>419.27</ele>
        <time>2018-03-23T10:49:21Z</time>
      </trkpt>
      <trkpt lat="45.92814" lon="1.22259">
        <ele>419.75</ele>
        <time>2018-03-23T10:49:38Z</time>
      </trkpt>
      <trkpt lat="45.9283" lon="1.22326">
        <ele>421.19</ele>
        <time>2018-03-23T10:49:54Z</time>
      </trkpt>
      <trkpt lat="45.92847" lon="1.22391">
        <ele>420.23</ele>
        <time>2018-03-23T10:50:09Z</time>
      </trkpt>
      <trkpt lat="45.9286" lon="1.22488">
        <ele>419.75</ele>
        <time>2018-03-23T10:50:29Z</time>
      </trkpt>
      <trkpt lat="45.9286" lon="1.22554">
        <ele>419.27</ele>
        <time>2018-03-23T10:50:42Z</time>
      </trkpt>
      <trkpt lat="45.92875" lon="1.22599">
        <ele>418.31</ele>
        <time>2018-03-23T10:50:53Z</time>
      </trkpt>
      <trkpt lat="45.92874" lon="1.22605">
        <ele>418.31</ele>
        <time>2018-03-23T10:50:54Z</time>
      </trkpt>
      <trkpt lat="45.92873" lon="1.22609">
        <ele>418.31</ele>
        <time>2018-03-23T10:50:55Z</time>
      </trkpt>
      <trkpt lat="45.92871" lon="1.22614">
        <ele>418.31</ele>
        <time>2018-03-23T10:50:56Z</time>
      </trkpt>
      <trkpt lat="45.92869" lon="1.22618">
        <ele>418.31</ele>
        <time>2018-03-23T10:50:57Z</time>
      </trkpt>
      <trkpt lat="45.92853" lon="1.22658">
        <ele>419.75</ele>
        <time>2018-03-23T10:51:06Z</time>
      </trkpt>
      <trkpt lat="45.92823" lon="1.22755">
        <ele>421.68</ele>
        <time>2018-03-23T10:51:29Z</time>
      </trkpt>
      <trkpt lat="45.92803" lon="1.22823">
        <ele>424.56</ele>
        <time>2018-03-23T10:51:46Z</time>
      </trkpt>
      <trkpt lat="45.92778" lon="1.22888">
        <ele>423.12</ele>
        <time>2018-03-23T10:52:02Z</time>
      </trkpt>
      <trkpt lat="45.92769" lon="1.2297">
        <ele>421.19</ele>
        <time>2018-03-23T10:52:18Z</time>
      </trkpt>
      <trkpt lat="45.9277" lon="1.22983">
        <ele>421.19</ele>
        <time>2018-03-23T10:52:22Z</time>
      </trkpt>
      <trkpt lat="45.92769" lon="1.22986">
        <ele>421.19</ele>
        <time>2018-03-23T10:52:23Z</time>
      </trkpt>
      <trkpt lat="45.92767" lon="1.22988">
        <ele>421.19</ele>
        <time>2018-03-23T10:52:24Z</time>
      </trkpt>
      <trkpt lat="45.92766" lon="1.2299">
        <ele>421.19</ele>
        <time>2018-03-23T10:52:25Z</time>
      </trkpt>
      <trkpt lat="45.92763" lon="1.22991">
        <ele>421.19</ele>
        <time>2018-03-23T10:52:26Z</time>
      </trkpt>
      <trkpt lat="45.92761" lon="1.22991">
        <ele>421.19</ele>
        <time>2018-03-23T10:52:27Z</time>
      </trkpt>
      <trkpt lat="45.92724" lon="1.22994">
        <ele>422.64</ele>
        <time>2018-03-23T10:52:37Z</time>
      </trkpt>
      <trkpt lat="45.92639" lon="1.22986">
        <ele>425.04</ele>
        <time>2018-03-23T10:52:58Z</time>
      </trkpt>
      <trkpt lat="45.92559" lon="1.22975">
        <ele>425.04</ele>
        <time>2018-03-23T10:53:18Z</time>
      </trkpt>
      <trkpt lat="45.92498" lon="1.22966">
        <ele>425.52</ele>
        <time>2018-03-23T10:53:32Z</time>
      </trkpt>
      <trkpt lat="45.9249" lon="1.22967">
        <ele>425.52</ele>
        <time>2018-03-23T10:53:34Z</time>
      </trkpt>
      <trkpt lat="45.92485" lon="1.22968">
        <ele>425.52</ele>
        <time>2018-03-23T10:53:35Z</time>
      </trkpt>
      <trkpt lat="45.92481" lon="1.22969">
        <ele>425.52</ele>
        <time>2018-03-23T10:53:36Z</time>
      </trkpt>
      <trkpt lat="45.92477" lon="1.22972">
        <ele>425.52</ele>
        <time>2018-03-23T10:53:37Z</time>
      </trkpt>
      <trkpt lat="45.92473" lon="1.22975">
        <ele>425.52</ele>
        <time>2018-03-23T10:53:38Z</time>
      </trkpt>
      <trkpt lat="45.9247" lon="1.22981">
        <ele>425.52</ele>
        <time>2018-03-23T10:53:39Z</time>
      </trkpt>
      <trkpt lat="45.92467" lon="1.22986">
        <ele>425.52</ele>
        <time>2018-03-23T10:53:40Z</time>
      </trkpt>
      <trkpt lat="45.92466" lon="1.22991">
        <ele>425.52</ele>
        <time>2018-03-23T10:53:41Z</time>
      </trkpt>
      <trkpt lat="45.92464" lon="1.22996">
        <ele>425.52</ele>
        <time>2018-03-23T10:53:42Z</time>
      </trkpt>
      <trkpt lat="45.92455" lon="1.23025">
        <ele>424.56</ele>
        <time>2018-03-23T10:53:48Z</time>
      </trkpt>
      <trkpt lat="45.92454" lon="1.23032">
        <ele>423.6</ele>
        <time>2018-03-23T10:53:49Z</time>
      </trkpt>
      <trkpt lat="45.92452" lon="1.23039">
        <ele>423.6</ele>
        <time>2018-03-23T10:53:50Z</time>
      </trkpt>
      <trkpt lat="45.92451" lon="1.23047">
        <ele>422.64</ele>
        <time>2018-03-23T10:53:51Z</time>
      </trkpt>
      <trkpt lat="45.9245" lon="1.23055">
        <ele>422.64</ele>
        <time>2018-03-23T10:53:52Z</time>
      </trkpt>
      <trkpt lat="45.9245" lon="1.23064">
        <ele>422.16</ele>
        <time>2018-03-23T10:53:53Z</time>
      </trkpt>
      <trkpt lat="45.92448" lon="1.23091">
        <ele>422.16</ele>
        <time>2018-03-23T10:53:56Z</time>
      </trkpt>
      <trkpt lat="45.92428" lon="1.23174">
        <ele>418.79</ele>
        <time>2018-03-23T10:54:07Z</time>
      </trkpt>
      <trkpt lat="45.92425" lon="1.23183">
        <ele>418.79</ele>
        <time>2018-03-23T10:54:08Z</time>
      </trkpt>
      <trkpt lat="45.92416" lon="1.23221">
        <ele>416.39</ele>
        <time>2018-03-23T10:54:12Z</time>
      </trkpt>
      <trkpt lat="45.92413" lon="1.2323">
        <ele>415.91</ele>
        <time>2018-03-23T10:54:13Z</time>
      </trkpt>
      <trkpt lat="45.9241" lon="1.23238">
        <ele>415.91</ele>
        <time>2018-03-23T10:54:14Z</time>
      </trkpt>
      <trkpt lat="45.92406" lon="1.23244">
        <ele>415.91</ele>
        <time>2018-03-23T10:54:15Z</time>
      </trkpt>
      <trkpt lat="45.92401" lon="1.23249">
        <ele>414.95</ele>
        <time>2018-03-23T10:54:16Z</time>
      </trkpt>
      <trkpt lat="45.92395" lon="1.23251">
        <ele>414.47</ele>
        <time>2018-03-23T10:54:17Z</time>
      </trkpt>
      <trkpt lat="45.92389" lon="1.23251">
        <ele>414.47</ele>
        <time>2018-03-23T10:54:18Z</time>
      </trkpt>
      <trkpt lat="45.92384" lon="1.23251">
        <ele>414.47</ele>
        <time>2018-03-23T10:54:19Z</time>
      </trkpt>
      <trkpt lat="45.92366" lon="1.2325">
        <ele>413.5</ele>
        <time>2018-03-23T10:54:22Z</time>
      </trkpt>
      <trkpt lat="45.9236" lon="1.23252">
        <ele>413.5</ele>
        <time>2018-03-23T10:54:23Z</time>
      </trkpt>
      <trkpt lat="45.92355" lon="1.23255">
        <ele>413.5</ele>
        <time>2018-03-23T10:54:24Z</time>
      </trkpt>
      <trkpt lat="45.9235" lon="1.23259">
        <ele>413.02</ele>
        <time>2018-03-23T10:54:25Z</time>
      </trkpt>
      <trkpt lat="45.92345" lon="1.23264">
        <ele>413.02</ele>
        <time>2018-03-23T10:54:26Z</time>
      </trkpt>
      <trkpt lat="45.92341" lon="1.23269">
        <ele>412.54</ele>
        <time>2018-03-23T10:54:27Z</time>
      </trkpt>
      <trkpt lat="45.92337" lon="1.23275">
        <ele>412.54</ele>
        <time>2018-03-23T10:54:28Z</time>
      </trkpt>
      <trkpt lat="45.9233" lon="1.23287">
        <ele>412.06</ele>
        <time>2018-03-23T10:54:30Z</time>
      </trkpt>
      <trkpt lat="45.92314" lon="1.23308">
        <ele>411.1</ele>
        <time>2018-03-23T10:54:34Z</time>
      </trkpt>
      <trkpt lat="45.92311" lon="1.23314">
        <ele>411.1</ele>
        <time>2018-03-23T10:54:35Z</time>
      </trkpt>
      <trkpt lat="45.92309" lon="1.23321">
        <ele>410.62</ele>
        <time>2018-03-23T10:54:36Z</time>
      </trkpt>
      <trkpt lat="45.92308" lon="1.23329">
        <ele>410.62</ele>
        <time>2018-03-23T10:54:37Z</time>
      </trkpt>
      <trkpt lat="45.92308" lon="1.23336">
        <ele>410.14</ele>
        <time>2018-03-23T10:54:38Z</time>
      </trkpt>
      <trkpt lat="45.9231" lon="1.23343">
        <ele>410.14</ele>
        <time>2018-03-23T10:54:39Z</time>
      </trkpt>
      <trkpt lat="45.92312" lon="1.23351">
        <ele>410.14</ele>
        <time>2018-03-23T10:54:40Z</time>
      </trkpt>
      <trkpt lat="45.92321" lon="1.23398">
        <ele>408.7</ele>
        <time>2018-03-23T10:54:46Z</time>
      </trkpt>
      <trkpt lat="45.9232" lon="1.23407">
        <ele>408.7</ele>
        <time>2018-03-23T10:54:47Z</time>
      </trkpt>
      <trkpt lat="45.92319" lon="1.23415">
        <ele>408.22</ele>
        <time>2018-03-23T10:54:48Z</time>
      </trkpt>
      <trkpt lat="45.92318" lon="1.23423">
        <ele>408.22</ele>
        <time>2018-03-23T10:54:49Z</time>
      </trkpt>
      <trkpt lat="45.92316" lon="1.2343">
        <ele>407.74</ele>
        <time>2018-03-23T10:54:50Z</time>
      </trkpt>
      <trkpt lat="45.92303" lon="1.23484">
        <ele>406.29</ele>
        <time>2018-03-23T10:54:57Z</time>
      </trkpt>
      <trkpt lat="45.92301" lon="1.23491">
        <ele>406.29</ele>
        <time>2018-03-23T10:54:58Z</time>
      </trkpt>
      <trkpt lat="45.92299" lon="1.23498">
        <ele>405.81</ele>
        <time>2018-03-23T10:54:59Z</time>
      </trkpt>
      <trkpt lat="45.92289" lon="1.23565">
        <ele>405.81</ele>
        <time>2018-03-23T10:55:14Z</time>
      </trkpt>
      <trkpt lat="45.92286" lon="1.23597">
        <ele>407.26</ele>
        <time>2018-03-23T10:55:21Z</time>
      </trkpt>
      <trkpt lat="45.92283" lon="1.23628">
        <ele>406.29</ele>
        <time>2018-03-23T10:55:27Z</time>
      </trkpt>
      <trkpt lat="45.9228" lon="1.23651">
        <ele>405.81</ele>
        <time>2018-03-23T10:55:31Z</time>
      </trkpt>
      <trkpt lat="45.92279" lon="1.23656">
        <ele>405.33</ele>
        <time>2018-03-23T10:55:32Z</time>
      </trkpt>
      <trkpt lat="45.92278" lon="1.23662">
        <ele>405.33</ele>
        <time>2018-03-23T10:55:33Z</time>
      </trkpt>
      <trkpt lat="45.92277" lon="1.23668">
        <ele>404.85</ele>
        <time>2018-03-23T10:55:34Z</time>
      </trkpt>
      <trkpt lat="45.92276" lon="1.23674">
        <ele>404.85</ele>
        <time>2018-03-23T10:55:35Z</time>
      </trkpt>
      <trkpt lat="45.92267" lon="1.23739">
        <ele>403.41</ele>
        <time>2018-03-23T10:55:45Z</time>
      </trkpt>
      <trkpt lat="45.92265" lon="1.23745">
        <ele>402.93</ele>
        <time>2018-03-23T10:55:46Z</time>
      </trkpt>
      <trkpt lat="45.92264" lon="1.2375">
        <ele>402.93</ele>
        <time>2018-03-23T10:55:47Z</time>
      </trkpt>
      <trkpt lat="45.92262" lon="1.23753">
        <ele>402.45</ele>
        <time>2018-03-23T10:55:48Z</time>
      </trkpt>
      <trkpt lat="45.9226" lon="1.23755">
        <ele>402.45</ele>
        <time>2018-03-23T10:55:49Z</time>
      </trkpt>
      <trkpt lat="45.92259" lon="1.23756">
        <ele>402.45</ele>
        <time>2018-03-23T10:55:50Z</time>
      </trkpt>
      <trkpt lat="45.92255" lon="1.23765">
        <ele>402.45</ele>
        <time>2018-03-23T10:55:56Z</time>
      </trkpt>
      <trkpt lat="45.92231" lon="1.23794">
        <ele>402.45</ele>
        <time>2018-03-23T10:56:08Z</time>
      </trkpt>
      <trkpt lat="45.92208" lon="1.23827">
        <ele>401.97</ele>
        <time>2018-03-23T10:56:18Z</time>
      </trkpt>
      <trkpt lat="45.92171" lon="1.23854">
        <ele>400.53</ele>
        <time>2018-03-23T10:56:33Z</time>
      </trkpt>
      <trkpt lat="45.92166" lon="1.23853">
        <ele>401.97</ele>
        <time>2018-03-23T10:56:36Z</time>
      </trkpt>
      <trkpt lat="45.92145" lon="1.23859">
        <ele>402.93</ele>
        <time>2018-03-23T10:56:47Z</time>
      </trkpt>
      <trkpt lat="45.92118" lon="1.23869">
        <ele>404.85</ele>
        <time>2018-03-23T10:56:58Z</time>
      </trkpt>
      <trkpt lat="45.92116" lon="1.23871">
        <ele>404.85</ele>
        <time>2018-03-23T10:56:59Z</time>
      </trkpt>
      <trkpt lat="45.92114" lon="1.23873">
        <ele>404.85</ele>
        <time>2018-03-23T10:57:00Z</time>
      </trkpt>
      <trkpt lat="45.9208" lon="1.23902">
        <ele>406.77</ele>
        <time>2018-03-23T10:57:16Z</time>
      </trkpt>
      <trkpt lat="45.92065" lon="1.23916">
        <ele>405.33</ele>
        <time>2018-03-23T10:57:21Z</time>
      </trkpt>
      <trkpt lat="45.92013" lon="1.23979">
        <ele>403.41</ele>
        <time>2018-03-23T10:57:39Z</time>
      </trkpt>
      <trkpt lat="45.92006" lon="1.2399">
        <ele>401.49</ele>
        <time>2018-03-23T10:57:42Z</time>
      </trkpt>
      <trkpt lat="45.92003" lon="1.23997">
        <ele>400.05</ele>
        <time>2018-03-23T10:57:44Z</time>
      </trkpt>
      <trkpt lat="45.92002" lon="1.24004">
        <ele>398.6</ele>
        <time>2018-03-23T10:57:46Z</time>
      </trkpt>
      <trkpt lat="45.92001" lon="1.24012">
        <ele>397.16</ele>
        <time>2018-03-23T10:57:48Z</time>
      </trkpt>
      <trkpt lat="45.91999" lon="1.24027">
        <ele>394.28</ele>
        <time>2018-03-23T10:57:51Z</time>
      </trkpt>
      <trkpt lat="45.91998" lon="1.24033">
        <ele>394.28</ele>
        <time>2018-03-23T10:57:52Z</time>
      </trkpt>
      <trkpt lat="45.91997" lon="1.24046">
        <ele>392.84</ele>
        <time>2018-03-23T10:57:54Z</time>
      </trkpt>
      <trkpt lat="45.91996" lon="1.24054">
        <ele>391.39</ele>
        <time>2018-03-23T10:57:55Z</time>
      </trkpt>
      <trkpt lat="45.91994" lon="1.24062">
        <ele>390.43</ele>
        <time>2018-03-23T10:57:56Z</time>
      </trkpt>
      <trkpt lat="45.91992" lon="1.2407">
        <ele>390.43</ele>
        <time>2018-03-23T10:57:57Z</time>
      </trkpt>
      <trkpt lat="45.91989" lon="1.24077">
        <ele>389.47</ele>
        <time>2018-03-23T10:57:58Z</time>
      </trkpt>
      <trkpt lat="45.91987" lon="1.24083">
        <ele>389.47</ele>
        <time>2018-03-23T10:57:59Z</time>
      </trkpt>
      <trkpt lat="45.91984" lon="1.24088">
        <ele>388.99</ele>
        <time>2018-03-23T10:58:00Z</time>
      </trkpt>
      <trkpt lat="45.91981" lon="1.24092">
        <ele>388.99</ele>
        <time>2018-03-23T10:58:01Z</time>
      </trkpt>
      <trkpt lat="45.91979" lon="1.24096">
        <ele>388.51</ele>
        <time>2018-03-23T10:58:02Z</time>
      </trkpt>
      <trkpt lat="45.91977" lon="1.24099">
        <ele>388.51</ele>
        <time>2018-03-23T10:58:03Z</time>
      </trkpt>
      <trkpt lat="45.91944" lon="1.24127">
        <ele>385.63</ele>
        <time>2018-03-23T10:58:14Z</time>
      </trkpt>
      <trkpt lat="45.91906" lon="1.24143">
        <ele>381.78</ele>
        <time>2018-03-23T10:58:23Z</time>
      </trkpt>
      <trkpt lat="45.919" lon="1.24146">
        <ele>381.78</ele>
        <time>2018-03-23T10:58:24Z</time>
      </trkpt>
      <trkpt lat="45.91877" lon="1.24159">
        <ele>378.42</ele>
        <time>2018-03-23T10:58:29Z</time>
      </trkpt>
      <trkpt lat="45.91873" lon="1.24162">
        <ele>378.42</ele>
        <time>2018-03-23T10:58:30Z</time>
      </trkpt>
      <trkpt lat="45.91857" lon="1.24177">
        <ele>375.05</ele>
        <time>2018-03-23T10:58:34Z</time>
      </trkpt>
      <trkpt lat="45.91853" lon="1.2418">
        <ele>375.05</ele>
        <time>2018-03-23T10:58:35Z</time>
      </trkpt>
      <trkpt lat="45.91839" lon="1.24191">
        <ele>372.65</ele>
        <time>2018-03-23T10:58:39Z</time>
      </trkpt>
      <trkpt lat="45.91833" lon="1.24197">
        <ele>370.24</ele>
        <time>2018-03-23T10:58:42Z</time>
      </trkpt>
      <trkpt lat="45.91832" lon="1.24199">
        <ele>370.24</ele>
        <time>2018-03-23T10:58:43Z</time>
      </trkpt>
      <trkpt lat="45.91832" lon="1.24203">
        <ele>369.28</ele>
        <time>2018-03-23T10:58:44Z</time>
      </trkpt>
      <trkpt lat="45.91833" lon="1.24206">
        <ele>368.8</ele>
        <time>2018-03-23T10:58:45Z</time>
      </trkpt>
      <trkpt lat="45.91834" lon="1.24209">
        <ele>368.8</ele>
        <time>2018-03-23T10:58:46Z</time>
      </trkpt>
      <trkpt lat="45.91836" lon="1.24211">
        <ele>369.28</ele>
        <time>2018-03-23T10:58:47Z</time>
      </trkpt>
      <trkpt lat="45.91838" lon="1.24213">
        <ele>369.28</ele>
        <time>2018-03-23T10:58:48Z</time>
      </trkpt>
      <trkpt lat="45.91858" lon="1.24237">
        <ele>370.73</ele>
        <time>2018-03-23T10:58:57Z</time>
      </trkpt>
      <trkpt lat="45.91895" lon="1.24316">
        <ele>372.17</ele>
        <time>2018-03-23T10:59:17Z</time>
      </trkpt>
      <trkpt lat="45.91916" lon="1.24348">
        <ele>375.05</ele>
        <time>2018-03-23T10:59:32Z</time>
      </trkpt>
      <trkpt lat="45.9193" lon="1.24372">
        <ele>373.61</ele>
        <time>2018-03-23T10:59:39Z</time>
      </trkpt>
      <trkpt lat="45.9195" lon="1.24407">
        <ele>371.21</ele>
        <time>2018-03-23T10:59:45Z</time>
      </trkpt>
      <trkpt lat="45.91952" lon="1.24414">
        <ele>371.21</ele>
        <time>2018-03-23T10:59:46Z</time>
      </trkpt>
      <trkpt lat="45.91955" lon="1.24421">
        <ele>371.21</ele>
        <time>2018-03-23T10:59:47Z</time>
      </trkpt>
      <trkpt lat="45.91957" lon="1.24435">
        <ele>371.21</ele>
        <time>2018-03-23T10:59:49Z</time>
      </trkpt>
      <trkpt lat="45.91958" lon="1.24441">
        <ele>371.21</ele>
        <time>2018-03-23T10:59:50Z</time>
      </trkpt>
      <trkpt lat="45.91958" lon="1.24447">
        <ele>371.21</ele>
        <time>2018-03-23T10:59:51Z</time>
      </trkpt>
      <trkpt lat="45.91956" lon="1.24451">
        <ele>371.21</ele>
        <time>2018-03-23T10:59:52Z</time>
      </trkpt>
      <trkpt lat="45.91955" lon="1.24456">
        <ele>371.21</ele>
        <time>2018-03-23T10:59:53Z</time>
      </trkpt>
      <trkpt lat="45.91952" lon="1.24472">
        <ele>373.13</ele>
        <time>2018-03-23T10:59:57Z</time>
      </trkpt>
      <trkpt lat="45.91952" lon="1.24475">
        <ele>373.61</ele>
        <time>2018-03-23T10:59:58Z</time>
      </trkpt>
      <trkpt lat="45.91952" lon="1.24478">
        <ele>373.61</ele>
        <time>2018-03-23T10:59:59Z</time>
      </trkpt>
      <trkpt lat="45.91953" lon="1.24481">
        <ele>373.61</ele>
        <time>2018-03-23T11:00:00Z</time>
      </trkpt>
      <trkpt lat="45.91955" lon="1.24484">
        <ele>374.09</ele>
        <time>2018-03-23T11:00:01Z</time>
      </trkpt>
      <trkpt lat="45.91955" lon="1.24487">
        <ele>374.57</ele>
        <time>2018-03-23T11:00:02Z</time>
      </trkpt>
      <trkpt lat="45.91956" lon="1.24489">
        <ele>374.57</ele>
        <time>2018-03-23T11:00:03Z</time>
      </trkpt>
      <trkpt lat="45.91957" lon="1.24491">
        <ele>374.57</ele>
        <time>2018-03-23T11:00:04Z</time>
      </trkpt>
      <trkpt lat="45.91958" lon="1.24494">
        <ele>374.57</ele>
        <time>2018-03-23T11:00:05Z</time>
      </trkpt>
      <trkpt lat="45.9197" lon="1.24538">
        <ele>376.49</ele>
        <time>2018-03-23T11:00:22Z</time>
      </trkpt>
      <trkpt lat="45.91974" lon="1.24598">
        <ele>379.38</ele>
        <time>2018-03-23T11:00:45Z</time>
      </trkpt>
      <trkpt lat="45.91964" lon="1.24635">
        <ele>381.78</ele>
        <time>2018-03-23T11:01:03Z</time>
      </trkpt>
      <trkpt lat="45.91947" lon="1.24637">
        <ele>380.34</ele>
        <time>2018-03-23T11:01:09Z</time>
      </trkpt>
      <trkpt lat="45.91911" lon="1.24641">
        <ele>377.94</ele>
        <time>2018-03-23T11:01:18Z</time>
      </trkpt>
      <trkpt lat="45.91878" lon="1.2464">
        <ele>374.57</ele>
        <time>2018-03-23T11:01:25Z</time>
      </trkpt>
      <trkpt lat="45.9184" lon="1.2464">
        <ele>371.21</ele>
        <time>2018-03-23T11:01:34Z</time>
      </trkpt>
      <trkpt lat="45.91827" lon="1.24639">
        <ele>369.76</ele>
        <time>2018-03-23T11:01:37Z</time>
      </trkpt>
      <trkpt lat="45.91818" lon="1.24638">
        <ele>368.32</ele>
        <time>2018-03-23T11:01:39Z</time>
      </trkpt>
      <trkpt lat="45.91803" lon="1.24638">
        <ele>364.96</ele>
        <time>2018-03-23T11:01:42Z</time>
      </trkpt>
      <trkpt lat="45.91798" lon="1.24638">
        <ele>364.96</ele>
        <time>2018-03-23T11:01:43Z</time>
      </trkpt>
      <trkpt lat="45.91773" lon="1.24639">
        <ele>362.07</ele>
        <time>2018-03-23T11:01:48Z</time>
      </trkpt>
      <trkpt lat="45.91742" lon="1.24644">
        <ele>359.19</ele>
        <time>2018-03-23T11:01:55Z</time>
      </trkpt>
      <trkpt lat="45.91733" lon="1.24644">
        <ele>358.71</ele>
        <time>2018-03-23T11:01:57Z</time>
      </trkpt>
      <trkpt lat="45.91727" lon="1.24643">
        <ele>358.23</ele>
        <time>2018-03-23T11:01:58Z</time>
      </trkpt>
      <trkpt lat="45.91721" lon="1.24641">
        <ele>357.27</ele>
        <time>2018-03-23T11:01:59Z</time>
      </trkpt>
      <trkpt lat="45.91681" lon="1.24633">
        <ele>353.9</ele>
        <time>2018-03-23T11:02:05Z</time>
      </trkpt>
      <trkpt lat="45.91676" lon="1.24632">
        <ele>353.9</ele>
        <time>2018-03-23T11:02:06Z</time>
      </trkpt>
      <trkpt lat="45.91671" lon="1.2463">
        <ele>352.94</ele>
        <time>2018-03-23T11:02:07Z</time>
      </trkpt>
      <trkpt lat="45.91666" lon="1.2463">
        <ele>352.46</ele>
        <time>2018-03-23T11:02:08Z</time>
      </trkpt>
      <trkpt lat="45.91661" lon="1.2463">
        <ele>352.46</ele>
        <time>2018-03-23T11:02:09Z</time>
      </trkpt>
      <trkpt lat="45.91656" lon="1.24632">
        <ele>351.98</ele>
        <time>2018-03-23T11:02:10Z</time>
      </trkpt>
      <trkpt lat="45.91621" lon="1.2464">
        <ele>351.5</ele>
        <time>2018-03-23T11:02:17Z</time>
      </trkpt>
      <trkpt lat="45.91581" lon="1.24653">
        <ele>352.94</ele>
        <time>2018-03-23T11:02:31Z</time>
      </trkpt>
      <trkpt lat="45.91573" lon="1.24655">
        <ele>354.86</ele>
        <time>2018-03-23T11:02:36Z</time>
      </trkpt>
      <trkpt lat="45.91572" lon="1.24654">
        <ele>354.86</ele>
        <time>2018-03-23T11:02:37Z</time>
      </trkpt>
      <trkpt lat="45.91571" lon="1.24653">
        <ele>355.34</ele>
        <time>2018-03-23T11:02:38Z</time>
      </trkpt>
      <trkpt lat="45.91569" lon="1.24653">
        <ele>355.34</ele>
        <time>2018-03-23T11:02:39Z</time>
      </trkpt>
      <trkpt lat="45.91567" lon="1.24653">
        <ele>355.34</ele>
        <time>2018-03-23T11:02:40Z</time>
      </trkpt>
      <trkpt lat="45.91566" lon="1.24654">
        <ele>355.34</ele>
        <time>2018-03-23T11:02:41Z</time>
      </trkpt>
      <trkpt lat="45.91564" lon="1.24656">
        <ele>355.34</ele>
        <time>2018-03-23T11:02:42Z</time>
      </trkpt>
      <trkpt lat="45.91563" lon="1.24657">
        <ele>355.34</ele>
        <time>2018-03-23T11:02:43Z</time>
      </trkpt>
      <trkpt lat="45.91561" lon="1.24659">
        <ele>355.34</ele>
        <time>2018-03-23T11:02:44Z</time>
      </trkpt>
      <trkpt lat="45.91559" lon="1.2466">
        <ele>356.31</ele>
        <time>2018-03-23T11:02:45Z</time>
      </trkpt>
      <trkpt lat="45.91557" lon="1.24661">
        <ele>356.31</ele>
        <time>2018-03-23T11:02:46Z</time>
      </trkpt>
      <trkpt lat="45.91555" lon="1.24663">
        <ele>356.79</ele>
        <time>2018-03-23T11:02:47Z</time>
      </trkpt>
      <trkpt lat="45.91553" lon="1.24664">
        <ele>356.31</ele>
        <time>2018-03-23T11:02:48Z</time>
      </trkpt>
      <trkpt lat="45.91508" lon="1.24681">
        <ele>358.23</ele>
        <time>2018-03-23T11:03:08Z</time>
      </trkpt>
      <trkpt lat="45.91464" lon="1.24701">
        <ele>359.67</ele>
        <time>2018-03-23T11:03:28Z</time>
      </trkpt>
      <trkpt lat="45.91415" lon="1.24715">
        <ele>361.11</ele>
        <time>2018-03-23T11:03:47Z</time>
      </trkpt>
      <trkpt lat="45.91359" lon="1.24692">
        <ele>359.67</ele>
        <time>2018-03-23T11:04:04Z</time>
      </trkpt>
      <trkpt lat="45.91304" lon="1.2465">
        <ele>362.07</ele>
        <time>2018-03-23T11:04:23Z</time>
      </trkpt>
      <trkpt lat="45.91269" lon="1.2462">
        <ele>364.96</ele>
        <time>2018-03-23T11:04:40Z</time>
      </trkpt>
      <trkpt lat="45.91235" lon="1.24585">
        <ele>366.88</ele>
        <time>2018-03-23T11:04:57Z</time>
      </trkpt>
      <trkpt lat="45.91185" lon="1.24543">
        <ele>367.84</ele>
        <time>2018-03-23T11:05:16Z</time>
      </trkpt>
      <trkpt lat="45.91136" lon="1.24509">
        <ele>369.76</ele>
        <time>2018-03-23T11:05:36Z</time>
      </trkpt>
      <trkpt lat="45.9111" lon="1.24494">
        <ele>371.21</ele>
        <time>2018-03-23T11:05:50Z</time>
      </trkpt>
      <trkpt lat="45.9108" lon="1.2448">
        <ele>374.57</ele>
        <time>2018-03-23T11:06:07Z</time>
      </trkpt>
      <trkpt lat="45.91045" lon="1.24461">
        <ele>376.01</ele>
        <time>2018-03-23T11:06:26Z</time>
      </trkpt>
      <trkpt lat="45.91022" lon="1.24447">
        <ele>377.94</ele>
        <time>2018-03-23T11:06:40Z</time>
      </trkpt>
      <trkpt lat="45.91021" lon="1.24445">
        <ele>377.94</ele>
        <time>2018-03-23T11:06:42Z</time>
      </trkpt>
      <trkpt lat="45.9102" lon="1.24443">
        <ele>377.94</ele>
        <time>2018-03-23T11:06:43Z</time>
      </trkpt>
      <trkpt lat="45.91019" lon="1.24441">
        <ele>377.94</ele>
        <time>2018-03-23T11:06:44Z</time>
      </trkpt>
      <trkpt lat="45.91018" lon="1.2444">
        <ele>378.42</ele>
        <time>2018-03-23T11:06:45Z</time>
      </trkpt>
      <trkpt lat="45.91016" lon="1.2444">
        <ele>378.9</ele>
        <time>2018-03-23T11:06:46Z</time>
      </trkpt>
      <trkpt lat="45.91014" lon="1.2444">
        <ele>378.9</ele>
        <time>2018-03-23T11:06:47Z</time>
      </trkpt>
      <trkpt lat="45.90996" lon="1.24438">
        <ele>377.45</ele>
        <time>2018-03-23T11:06:53Z</time>
      </trkpt>
      <trkpt lat="45.9096" lon="1.24404">
        <ele>378.9</ele>
        <time>2018-03-23T11:07:10Z</time>
      </trkpt>
      <trkpt lat="45.90925" lon="1.24356">
        <ele>381.78</ele>
        <time>2018-03-23T11:07:32Z</time>
      </trkpt>
      <trkpt lat="45.90887" lon="1.24314">
        <ele>383.22</ele>
        <time>2018-03-23T11:07:52Z</time>
      </trkpt>
      <trkpt lat="45.90843" lon="1.24274">
        <ele>385.63</ele>
        <time>2018-03-23T11:08:13Z</time>
      </trkpt>
      <trkpt lat="45.90819" lon="1.24226">
        <ele>387.55</ele>
        <time>2018-03-23T11:08:30Z</time>
      </trkpt>
      <trkpt lat="45.90789" lon="1.24167">
        <ele>388.51</ele>
        <time>2018-03-23T11:08:51Z</time>
      </trkpt>
      <trkpt lat="45.9078" lon="1.2415">
        <ele>388.99</ele>
        <time>2018-03-23T11:08:58Z</time>
      </trkpt>
      <trkpt lat="45.90778" lon="1.24148">
        <ele>389.95</ele>
        <time>2018-03-23T11:08:59Z</time>
      </trkpt>
      <trkpt lat="45.90776" lon="1.24148">
        <ele>389.95</ele>
        <time>2018-03-23T11:09:00Z</time>
      </trkpt>
      <trkpt lat="45.90774" lon="1.24148">
        <ele>389.95</ele>
        <time>2018-03-23T11:09:01Z</time>
      </trkpt>
      <trkpt lat="45.90772" lon="1.24149">
        <ele>389.95</ele>
        <time>2018-03-23T11:09:02Z</time>
      </trkpt>
      <trkpt lat="45.9077" lon="1.24151">
        <ele>389.95</ele>
        <time>2018-03-23T11:09:03Z</time>
      </trkpt>
      <trkpt lat="45.90768" lon="1.24155">
        <ele>389.95</ele>
        <time>2018-03-23T11:09:04Z</time>
      </trkpt>
      <trkpt lat="45.90766" lon="1.24159">
        <ele>388.51</ele>
        <time>2018-03-23T11:09:05Z</time>
      </trkpt>
      <trkpt lat="45.90733" lon="1.24219">
        <ele>387.55</ele>
        <time>2018-03-23T11:09:20Z</time>
      </trkpt>
      <trkpt lat="45.90702" lon="1.24289">
        <ele>386.59</ele>
        <time>2018-03-23T11:09:35Z</time>
      </trkpt>
      <trkpt lat="45.90672" lon="1.24367">
        <ele>385.63</ele>
        <time>2018-03-23T11:09:52Z</time>
      </trkpt>
      <trkpt lat="45.9065" lon="1.24428">
        <ele>385.15</ele>
        <time>2018-03-23T11:10:06Z</time>
      </trkpt>
      <trkpt lat="45.90628" lon="1.24479">
        <ele>384.66</ele>
        <time>2018-03-23T11:10:19Z</time>
      </trkpt>
      <trkpt lat="45.90604" lon="1.24544">
        <ele>384.18</ele>
        <time>2018-03-23T11:10:34Z</time>
      </trkpt>
      <trkpt lat="45.90583" lon="1.24606">
        <ele>385.15</ele>
        <time>2018-03-23T11:10:50Z</time>
      </trkpt>
      <trkpt lat="45.90569" lon="1.24668">
        <ele>385.63</ele>
        <time>2018-03-23T11:11:06Z</time>
      </trkpt>
      <trkpt lat="45.90569" lon="1.24672">
        <ele>385.63</ele>
        <time>2018-03-23T11:11:07Z</time>
      </trkpt>
      <trkpt lat="45.90564" lon="1.24757">
        <ele>384.18</ele>
        <time>2018-03-23T11:11:25Z</time>
      </trkpt>
      <trkpt lat="45.90544" lon="1.24796">
        <ele>385.15</ele>
        <time>2018-03-23T11:11:35Z</time>
      </trkpt>
      <trkpt lat="45.90514" lon="1.24841">
        <ele>387.07</ele>
        <time>2018-03-23T11:11:50Z</time>
      </trkpt>
      <trkpt lat="45.90512" lon="1.24843">
        <ele>387.07</ele>
        <time>2018-03-23T11:11:51Z</time>
      </trkpt>
      <trkpt lat="45.9051" lon="1.24845">
        <ele>388.03</ele>
        <time>2018-03-23T11:11:52Z</time>
      </trkpt>
      <trkpt lat="45.90476" lon="1.24887">
        <ele>389.95</ele>
        <time>2018-03-23T11:12:10Z</time>
      </trkpt>
      <trkpt lat="45.90445" lon="1.2493">
        <ele>388.99</ele>
        <time>2018-03-23T11:12:24Z</time>
      </trkpt>
      <trkpt lat="45.90443" lon="1.24935">
        <ele>388.99</ele>
        <time>2018-03-23T11:12:25Z</time>
      </trkpt>
      <trkpt lat="45.90436" lon="1.24944">
        <ele>388.51</ele>
        <time>2018-03-23T11:12:27Z</time>
      </trkpt>
      <trkpt lat="45.90383" lon="1.25014">
        <ele>386.11</ele>
        <time>2018-03-23T11:12:41Z</time>
      </trkpt>
      <trkpt lat="45.90379" lon="1.25019">
        <ele>386.11</ele>
        <time>2018-03-23T11:12:42Z</time>
      </trkpt>
      <trkpt lat="45.90293" lon="1.25103">
        <ele>384.66</ele>
        <time>2018-03-23T11:13:03Z</time>
      </trkpt>
      <trkpt lat="45.90282" lon="1.25113">
        <ele>385.63</ele>
        <time>2018-03-23T11:13:06Z</time>
      </trkpt>
      <trkpt lat="45.9026" lon="1.25158">
        <ele>385.15</ele>
        <time>2018-03-23T11:13:19Z</time>
      </trkpt>
      <trkpt lat="45.90262" lon="1.25163">
        <ele>385.15</ele>
        <time>2018-03-23T11:13:20Z</time>
      </trkpt>
      <trkpt lat="45.90265" lon="1.25168">
        <ele>385.15</ele>
        <time>2018-03-23T11:13:21Z</time>
      </trkpt>
      <trkpt lat="45.90309" lon="1.25252">
        <ele>383.22</ele>
        <time>2018-03-23T11:13:40Z</time>
      </trkpt>
      <trkpt lat="45.90322" lon="1.25292">
        <ele>382.26</ele>
        <time>2018-03-23T11:13:50Z</time>
      </trkpt>
      <trkpt lat="45.90346" lon="1.25389">
        <ele>379.86</ele>
        <time>2018-03-23T11:14:02Z</time>
      </trkpt>
      <trkpt lat="45.90373" lon="1.25488">
        <ele>376.97</ele>
        <time>2018-03-23T11:14:14Z</time>
      </trkpt>
      <trkpt lat="45.90383" lon="1.25519">
        <ele>375.05</ele>
        <time>2018-03-23T11:14:18Z</time>
      </trkpt>
      <trkpt lat="45.90396" lon="1.25552">
        <ele>374.09</ele>
        <time>2018-03-23T11:14:22Z</time>
      </trkpt>
      <trkpt lat="45.90414" lon="1.25595">
        <ele>372.17</ele>
        <time>2018-03-23T11:14:28Z</time>
      </trkpt>
      <trkpt lat="45.90416" lon="1.256">
        <ele>372.17</ele>
        <time>2018-03-23T11:14:29Z</time>
      </trkpt>
      <trkpt lat="45.90418" lon="1.25603">
        <ele>372.17</ele>
        <time>2018-03-23T11:14:30Z</time>
      </trkpt>
      <trkpt lat="45.90423" lon="1.25609">
        <ele>371.69</ele>
        <time>2018-03-23T11:14:40Z</time>
      </trkpt>
      <trkpt lat="45.90452" lon="1.25645">
        <ele>371.21</ele>
        <time>2018-03-23T11:14:54Z</time>
      </trkpt>
      <trkpt lat="45.90492" lon="1.2572">
        <ele>372.65</ele>
        <time>2018-03-23T11:15:13Z</time>
      </trkpt>
      <trkpt lat="45.90503" lon="1.25756">
        <ele>370.73</ele>
        <time>2018-03-23T11:15:21Z</time>
      </trkpt>
      <trkpt lat="45.90504" lon="1.25762">
        <ele>370.24</ele>
        <time>2018-03-23T11:15:22Z</time>
      </trkpt>
      <trkpt lat="45.90509" lon="1.25783">
        <ele>368.32</ele>
        <time>2018-03-23T11:15:25Z</time>
      </trkpt>
      <trkpt lat="45.90509" lon="1.25791">
        <ele>368.32</ele>
        <time>2018-03-23T11:15:26Z</time>
      </trkpt>
      <trkpt lat="45.90509" lon="1.25799">
        <ele>367.36</ele>
        <time>2018-03-23T11:15:27Z</time>
      </trkpt>
      <trkpt lat="45.90509" lon="1.25805">
        <ele>367.36</ele>
        <time>2018-03-23T11:15:28Z</time>
      </trkpt>
      <trkpt lat="45.90507" lon="1.25813">
        <ele>366.4</ele>
        <time>2018-03-23T11:15:29Z</time>
      </trkpt>
      <trkpt lat="45.90505" lon="1.2582">
        <ele>366.4</ele>
        <time>2018-03-23T11:15:30Z</time>
      </trkpt>
      <trkpt lat="45.90498" lon="1.25848">
        <ele>364</ele>
        <time>2018-03-23T11:15:34Z</time>
      </trkpt>
      <trkpt lat="45.90495" lon="1.25855">
        <ele>364</ele>
        <time>2018-03-23T11:15:35Z</time>
      </trkpt>
      <trkpt lat="45.90491" lon="1.25861">
        <ele>364</ele>
        <time>2018-03-23T11:15:36Z</time>
      </trkpt>
      <trkpt lat="45.90468" lon="1.25891">
        <ele>361.59</ele>
        <time>2018-03-23T11:15:41Z</time>
      </trkpt>
      <trkpt lat="45.90433" lon="1.25919">
        <ele>361.11</ele>
        <time>2018-03-23T11:15:48Z</time>
      </trkpt>
      <trkpt lat="45.90429" lon="1.25921">
        <ele>361.11</ele>
        <time>2018-03-23T11:15:49Z</time>
      </trkpt>
      <trkpt lat="45.90427" lon="1.25922">
        <ele>361.11</ele>
        <time>2018-03-23T11:15:50Z</time>
      </trkpt>
      <trkpt lat="45.90393" lon="1.25929">
        <ele>359.67</ele>
        <time>2018-03-23T11:16:01Z</time>
      </trkpt>
      <trkpt lat="45.90375" lon="1.25931">
        <ele>358.23</ele>
        <time>2018-03-23T11:16:07Z</time>
      </trkpt>
      <trkpt lat="45.90367" lon="1.25932">
        <ele>358.23</ele>
        <time>2018-03-23T11:16:10Z</time>
      </trkpt>
      <trkpt lat="45.90357" lon="1.25924">
        <ele>358.23</ele>
        <time>2018-03-23T11:16:14Z</time>
      </trkpt>
      <trkpt lat="45.9035" lon="1.25913">
        <ele>358.23</ele>
        <time>2018-03-23T11:16:20Z</time>
      </trkpt>
      <trkpt lat="45.9034" lon="1.25901">
        <ele>358.23</ele>
        <time>2018-03-23T11:16:26Z</time>
      </trkpt>
      <trkpt lat="45.90303" lon="1.25888">
        <ele>358.23</ele>
        <time>2018-03-23T11:16:39Z</time>
      </trkpt>
      <trkpt lat="45.90271" lon="1.2587">
        <ele>357.75</ele>
        <time>2018-03-23T11:16:51Z</time>
      </trkpt>
      <trkpt lat="45.90232" lon="1.25856">
        <ele>359.19</ele>
        <time>2018-03-23T11:17:04Z</time>
      </trkpt>
      <trkpt lat="45.90229" lon="1.25855">
        <ele>359.19</ele>
        <time>2018-03-23T11:17:05Z</time>
      </trkpt>
      <trkpt lat="45.90217" lon="1.25855">
        <ele>360.15</ele>
        <time>2018-03-23T11:17:11Z</time>
      </trkpt>
      <trkpt lat="45.90206" lon="1.25853">
        <ele>360.63</ele>
        <time>2018-03-23T11:17:18Z</time>
      </trkpt>
      <trkpt lat="45.90205" lon="1.25853">
        <ele>360.63</ele>
        <time>2018-03-23T11:17:19Z</time>
      </trkpt>
      <trkpt lat="45.90203" lon="1.25853">
        <ele>360.63</ele>
        <time>2018-03-23T11:17:20Z</time>
      </trkpt>
      <trkpt lat="45.90174" lon="1.25842">
        <ele>363.52</ele>
        <time>2018-03-23T11:17:37Z</time>
      </trkpt>
      <trkpt lat="45.90145" lon="1.2582">
        <ele>365.44</ele>
        <time>2018-03-23T11:17:55Z</time>
      </trkpt>
      <trkpt lat="45.90116" lon="1.25795">
        <ele>365.92</ele>
        <time>2018-03-23T11:18:12Z</time>
      </trkpt>
      <trkpt lat="45.90088" lon="1.25773">
        <ele>366.4</ele>
        <time>2018-03-23T11:18:28Z</time>
      </trkpt>
      <trkpt lat="45.90053" lon="1.25747">
        <ele>366.4</ele>
        <time>2018-03-23T11:18:43Z</time>
      </trkpt>
      <trkpt lat="45.90037" lon="1.25732">
        <ele>367.36</ele>
        <time>2018-03-23T11:18:51Z</time>
      </trkpt>
      <trkpt lat="45.90034" lon="1.2573">
        <ele>367.36</ele>
        <time>2018-03-23T11:18:52Z</time>
      </trkpt>
      <trkpt lat="45.90031" lon="1.25728">
        <ele>367.36</ele>
        <time>2018-03-23T11:18:53Z</time>
      </trkpt>
      <trkpt lat="45.89992" lon="1.25698">
        <ele>368.8</ele>
        <time>2018-03-23T11:19:09Z</time>
      </trkpt>
      <trkpt lat="45.89987" lon="1.25694">
        <ele>369.28</ele>
        <time>2018-03-23T11:19:11Z</time>
      </trkpt>
      <trkpt lat="45.89985" lon="1.25693">
        <ele>369.28</ele>
        <time>2018-03-23T11:19:12Z</time>
      </trkpt>
      <trkpt lat="45.89983" lon="1.25691">
        <ele>369.28</ele>
        <time>2018-03-23T11:19:13Z</time>
      </trkpt>
      <trkpt lat="45.8998" lon="1.2569">
        <ele>369.28</ele>
        <time>2018-03-23T11:19:14Z</time>
      </trkpt>
      <trkpt lat="45.89978" lon="1.25689">
        <ele>369.76</ele>
        <time>2018-03-23T11:19:15Z</time>
      </trkpt>
      <trkpt lat="45.89976" lon="1.25688">
        <ele>369.76</ele>
        <time>2018-03-23T11:19:16Z</time>
      </trkpt>
      <trkpt lat="45.89974" lon="1.25688">
        <ele>370.24</ele>
        <time>2018-03-23T11:19:17Z</time>
      </trkpt>
      <trkpt lat="45.89972" lon="1.25689">
        <ele>370.24</ele>
        <time>2018-03-23T11:19:18Z</time>
      </trkpt>
      <trkpt lat="45.89969" lon="1.25691">
        <ele>370.24</ele>
        <time>2018-03-23T11:19:20Z</time>
      </trkpt>
      <trkpt lat="45.89968" lon="1.25693">
        <ele>370.24</ele>
        <time>2018-03-23T11:19:21Z</time>
      </trkpt>
      <trkpt lat="45.89966" lon="1.25695">
        <ele>370.24</ele>
        <time>2018-03-23T11:19:22Z</time>
      </trkpt>
      <trkpt lat="45.89941" lon="1.25719">
        <ele>369.76</ele>
        <time>2018-03-23T11:19:37Z</time>
      </trkpt>
      <trkpt lat="45.89932" lon="1.25724">
        <ele>370.73</ele>
        <time>2018-03-23T11:19:40Z</time>
      </trkpt>
      <trkpt lat="45.8993" lon="1.25724">
        <ele>371.21</ele>
        <time>2018-03-23T11:19:41Z</time>
      </trkpt>
      <trkpt lat="45.89927" lon="1.25724">
        <ele>371.21</ele>
        <time>2018-03-23T11:19:42Z</time>
      </trkpt>
      <trkpt lat="45.89925" lon="1.25723">
        <ele>371.21</ele>
        <time>2018-03-23T11:19:43Z</time>
      </trkpt>
      <trkpt lat="45.89924" lon="1.25721">
        <ele>371.21</ele>
        <time>2018-03-23T11:19:44Z</time>
      </trkpt>
      <trkpt lat="45.89922" lon="1.25719">
        <ele>371.21</ele>
        <time>2018-03-23T11:19:45Z</time>
      </trkpt>
      <trkpt lat="45.89904" lon="1.25688">
        <ele>373.61</ele>
        <time>2018-03-23T11:19:59Z</time>
      </trkpt>
      <trkpt lat="45.89895" lon="1.25634">
        <ele>372.65</ele>
        <time>2018-03-23T11:20:14Z</time>
      </trkpt>
      <trkpt lat="45.89896" lon="1.25629">
        <ele>372.65</ele>
        <time>2018-03-23T11:20:15Z</time>
      </trkpt>
      <trkpt lat="45.89914" lon="1.25561">
        <ele>374.09</ele>
        <time>2018-03-23T11:20:30Z</time>
      </trkpt>
      <trkpt lat="45.89936" lon="1.25481">
        <ele>375.53</ele>
        <time>2018-03-23T11:20:49Z</time>
      </trkpt>
      <trkpt lat="45.89958" lon="1.25414">
        <ele>377.94</ele>
        <time>2018-03-23T11:21:07Z</time>
      </trkpt>
      <trkpt lat="45.89957" lon="1.25411">
        <ele>378.42</ele>
        <time>2018-03-23T11:21:08Z</time>
      </trkpt>
      <trkpt lat="45.89953" lon="1.25408">
        <ele>378.42</ele>
        <time>2018-03-23T11:21:10Z</time>
      </trkpt>
      <trkpt lat="45.8995" lon="1.2541">
        <ele>378.42</ele>
        <time>2018-03-23T11:21:11Z</time>
      </trkpt>
      <trkpt lat="45.89948" lon="1.25412">
        <ele>378.42</ele>
        <time>2018-03-23T11:21:12Z</time>
      </trkpt>
      <trkpt lat="45.89939" lon="1.2542">
        <ele>376.97</ele>
        <time>2018-03-23T11:21:15Z</time>
      </trkpt>
      <trkpt lat="45.89876" lon="1.25475">
        <ele>376.49</ele>
        <time>2018-03-23T11:21:38Z</time>
      </trkpt>
      <trkpt lat="45.89824" lon="1.25512">
        <ele>376.49</ele>
        <time>2018-03-23T11:21:58Z</time>
      </trkpt>
      <trkpt lat="45.89816" lon="1.25517">
        <ele>377.94</ele>
        <time>2018-03-23T11:22:01Z</time>
      </trkpt>
      <trkpt lat="45.89761" lon="1.25552">
        <ele>378.9</ele>
        <time>2018-03-23T11:22:23Z</time>
      </trkpt>
      <trkpt lat="45.89715" lon="1.25578">
        <ele>380.82</ele>
        <time>2018-03-23T11:22:43Z</time>
      </trkpt>
      <trkpt lat="45.89679" lon="1.25567">
        <ele>381.78</ele>
        <time>2018-03-23T11:22:57Z</time>
      </trkpt>
      <trkpt lat="45.89644" lon="1.25541">
        <ele>381.78</ele>
        <time>2018-03-23T11:23:12Z</time>
      </trkpt>
      <trkpt lat="45.89605" lon="1.25507">
        <ele>383.22</ele>
        <time>2018-03-23T11:23:30Z</time>
      </trkpt>
      <trkpt lat="45.89563" lon="1.25472">
        <ele>383.22</ele>
        <time>2018-03-23T11:23:47Z</time>
      </trkpt>
      <trkpt lat="45.89522" lon="1.25435">
        <ele>381.3</ele>
        <time>2018-03-23T11:24:03Z</time>
      </trkpt>
      <trkpt lat="45.89475" lon="1.25395">
        <ele>377.45</ele>
        <time>2018-03-23T11:24:14Z</time>
      </trkpt>
      <trkpt lat="45.89449" lon="1.25372">
        <ele>375.05</ele>
        <time>2018-03-23T11:24:19Z</time>
      </trkpt>
      <trkpt lat="45.89423" lon="1.25348">
        <ele>372.17</ele>
        <time>2018-03-23T11:24:24Z</time>
      </trkpt>
      <trkpt lat="45.89418" lon="1.25342">
        <ele>372.17</ele>
        <time>2018-03-23T11:24:25Z</time>
      </trkpt>
      <trkpt lat="45.89368" lon="1.25277">
        <ele>368.32</ele>
        <time>2018-03-23T11:24:35Z</time>
      </trkpt>
      <trkpt lat="45.89345" lon="1.2525">
        <ele>366.88</ele>
        <time>2018-03-23T11:24:39Z</time>
      </trkpt>
      <trkpt lat="45.89333" lon="1.25237">
        <ele>365.92</ele>
        <time>2018-03-23T11:24:42Z</time>
      </trkpt>
      <trkpt lat="45.8933" lon="1.25232">
        <ele>365.44</ele>
        <time>2018-03-23T11:24:43Z</time>
      </trkpt>
      <trkpt lat="45.89327" lon="1.25226">
        <ele>365.92</ele>
        <time>2018-03-23T11:24:52Z</time>
      </trkpt>
      <trkpt lat="45.89325" lon="1.25223">
        <ele>365.92</ele>
        <time>2018-03-23T11:24:55Z</time>
      </trkpt>
      <trkpt lat="45.89323" lon="1.25222">
        <ele>365.92</ele>
        <time>2018-03-23T11:24:56Z</time>
      </trkpt>
      <trkpt lat="45.89292" lon="1.25208">
        <ele>364.48</ele>
        <time>2018-03-23T11:25:04Z</time>
      </trkpt>
      <trkpt lat="45.89288" lon="1.25205">
        <ele>364</ele>
        <time>2018-03-23T11:25:05Z</time>
      </trkpt>
      <trkpt lat="45.89283" lon="1.25201">
        <ele>364</ele>
        <time>2018-03-23T11:25:06Z</time>
      </trkpt>
      <trkpt lat="45.89214" lon="1.25129">
        <ele>361.59</ele>
        <time>2018-03-23T11:25:23Z</time>
      </trkpt>
      <trkpt lat="45.89202" lon="1.25118">
        <ele>361.59</ele>
        <time>2018-03-23T11:25:26Z</time>
      </trkpt>
      <trkpt lat="45.89197" lon="1.25116">
        <ele>361.59</ele>
        <time>2018-03-23T11:25:27Z</time>
      </trkpt>
      <trkpt lat="45.89183" lon="1.25109">
        <ele>361.11</ele>
        <time>2018-03-23T11:25:31Z</time>
      </trkpt>
      <trkpt lat="45.89181" lon="1.25111">
        <ele>361.11</ele>
        <time>2018-03-23T11:25:32Z</time>
      </trkpt>
      <trkpt lat="45.89172" lon="1.25148">
        <ele>363.04</ele>
        <time>2018-03-23T11:25:47Z</time>
      </trkpt>
      <trkpt lat="45.89159" lon="1.25182">
        <ele>365.44</ele>
        <time>2018-03-23T11:26:03Z</time>
      </trkpt>
      <trkpt lat="45.89157" lon="1.25186">
        <ele>366.4</ele>
        <time>2018-03-23T11:26:05Z</time>
      </trkpt>
      <trkpt lat="45.89156" lon="1.25187">
        <ele>366.4</ele>
        <time>2018-03-23T11:26:06Z</time>
      </trkpt>
      <trkpt lat="45.89155" lon="1.25189">
        <ele>366.88</ele>
        <time>2018-03-23T11:26:07Z</time>
      </trkpt>
      <trkpt lat="45.89154" lon="1.25191">
        <ele>366.88</ele>
        <time>2018-03-23T11:26:08Z</time>
      </trkpt>
      <trkpt lat="45.8915" lon="1.25199">
        <ele>366.88</ele>
        <time>2018-03-23T11:26:12Z</time>
      </trkpt>
      <trkpt lat="45.89122" lon="1.25218">
        <ele>366.4</ele>
        <time>2018-03-23T11:26:26Z</time>
      </trkpt>
      <trkpt lat="45.89119" lon="1.25221">
        <ele>365.44</ele>
        <time>2018-03-23T11:26:28Z</time>
      </trkpt>
      <trkpt lat="45.89117" lon="1.25225">
        <ele>365.44</ele>
        <time>2018-03-23T11:26:30Z</time>
      </trkpt>
      <trkpt lat="45.89093" lon="1.25269">
        <ele>366.88</ele>
        <time>2018-03-23T11:26:42Z</time>
      </trkpt>
      <trkpt lat="45.89068" lon="1.25301">
        <ele>365.44</ele>
        <time>2018-03-23T11:26:55Z</time>
      </trkpt>
      <trkpt lat="45.89052" lon="1.25318">
        <ele>363.52</ele>
        <time>2018-03-23T11:27:00Z</time>
      </trkpt>
      <trkpt lat="45.89035" lon="1.25338">
        <ele>360.15</ele>
        <time>2018-03-23T11:27:04Z</time>
      </trkpt>
      <trkpt lat="45.89024" lon="1.25356">
        <ele>356.79</ele>
        <time>2018-03-23T11:27:07Z</time>
      </trkpt>
      <trkpt lat="45.8902" lon="1.25361">
        <ele>355.83</ele>
        <time>2018-03-23T11:27:08Z</time>
      </trkpt>
      <trkpt lat="45.89016" lon="1.25364">
        <ele>355.83</ele>
        <time>2018-03-23T11:27:09Z</time>
      </trkpt>
      <trkpt lat="45.89012" lon="1.25366">
        <ele>354.86</ele>
        <time>2018-03-23T11:27:10Z</time>
      </trkpt>
      <trkpt lat="45.89009" lon="1.25368">
        <ele>354.86</ele>
        <time>2018-03-23T11:27:11Z</time>
      </trkpt>
      <trkpt lat="45.89005" lon="1.25369">
        <ele>354.86</ele>
        <time>2018-03-23T11:27:12Z</time>
      </trkpt>
      <trkpt lat="45.89002" lon="1.25372">
        <ele>355.34</ele>
        <time>2018-03-23T11:27:13Z</time>
      </trkpt>
      <trkpt lat="45.88996" lon="1.25377">
        <ele>356.79</ele>
        <time>2018-03-23T11:27:15Z</time>
      </trkpt>
      <trkpt lat="45.88984" lon="1.25388">
        <ele>357.27</ele>
        <time>2018-03-23T11:27:20Z</time>
      </trkpt>
      <trkpt lat="45.88981" lon="1.25391">
        <ele>358.23</ele>
        <time>2018-03-23T11:27:21Z</time>
      </trkpt>
      <trkpt lat="45.88978" lon="1.25394">
        <ele>358.23</ele>
        <time>2018-03-23T11:27:22Z</time>
      </trkpt>
      <trkpt lat="45.88976" lon="1.25397">
        <ele>358.71</ele>
        <time>2018-03-23T11:27:23Z</time>
      </trkpt>
      <trkpt lat="45.88974" lon="1.25399">
        <ele>358.71</ele>
        <time>2018-03-23T11:27:24Z</time>
      </trkpt>
      <trkpt lat="45.88972" lon="1.25402">
        <ele>359.67</ele>
        <time>2018-03-23T11:27:25Z</time>
      </trkpt>
      <trkpt lat="45.88969" lon="1.25405">
        <ele>359.67</ele>
        <time>2018-03-23T11:27:26Z</time>
      </trkpt>
      <trkpt lat="45.88967" lon="1.25407">
        <ele>359.67</ele>
        <time>2018-03-23T11:27:27Z</time>
      </trkpt>
      <trkpt lat="45.88965" lon="1.25409">
        <ele>359.67</ele>
        <time>2018-03-23T11:27:28Z</time>
      </trkpt>
      <trkpt lat="45.88932" lon="1.2544">
        <ele>362.07</ele>
        <time>2018-03-23T11:27:46Z</time>
      </trkpt>
      <trkpt lat="45.88896" lon="1.25474">
        <ele>362.55</ele>
        <time>2018-03-23T11:28:01Z</time>
      </trkpt>
      <trkpt lat="45.88879" lon="1.25487">
        <ele>360.63</ele>
        <time>2018-03-23T11:28:07Z</time>
      </trkpt>
      <trkpt lat="45.88871" lon="1.25493">
        <ele>360.15</ele>
        <time>2018-03-23T11:28:09Z</time>
      </trkpt>
      <trkpt lat="45.88852" lon="1.25511">
        <ele>357.27</ele>
        <time>2018-03-23T11:28:13Z</time>
      </trkpt>
      <trkpt lat="45.88847" lon="1.25517">
        <ele>357.27</ele>
        <time>2018-03-23T11:28:14Z</time>
      </trkpt>
      <trkpt lat="45.88837" lon="1.25531">
        <ele>355.83</ele>
        <time>2018-03-23T11:28:16Z</time>
      </trkpt>
      <trkpt lat="45.88823" lon="1.25552">
        <ele>354.38</ele>
        <time>2018-03-23T11:28:19Z</time>
      </trkpt>
      <trkpt lat="45.88803" lon="1.25586">
        <ele>352.94</ele>
        <time>2018-03-23T11:28:26Z</time>
      </trkpt>
      <trkpt lat="45.88775" lon="1.25622">
        <ele>354.86</ele>
        <time>2018-03-23T11:28:38Z</time>
      </trkpt>
      <trkpt lat="45.8874" lon="1.25694">
        <ele>357.27</ele>
        <time>2018-03-23T11:28:57Z</time>
      </trkpt>
      <trkpt lat="45.88723" lon="1.25724">
        <ele>355.83</ele>
        <time>2018-03-23T11:29:04Z</time>
      </trkpt>
      <trkpt lat="45.88675" lon="1.25794">
        <ele>354.86</ele>
        <time>2018-03-23T11:29:22Z</time>
      </trkpt>
      <trkpt lat="45.88617" lon="1.25841">
        <ele>353.42</ele>
        <time>2018-03-23T11:29:37Z</time>
      </trkpt>
      <trkpt lat="45.88576" lon="1.25875">
        <ele>352.94</ele>
        <time>2018-03-23T11:29:52Z</time>
      </trkpt>
      <trkpt lat="45.88575" lon="1.25877">
        <ele>352.94</ele>
        <time>2018-03-23T11:30:07Z</time>
      </trkpt>
      <trkpt lat="45.88555" lon="1.25884">
        <ele>352.46</ele>
        <time>2018-03-23T11:30:27Z</time>
      </trkpt>
      <trkpt lat="45.88498" lon="1.25896">
        <ele>353.9</ele>
        <time>2018-03-23T11:30:44Z</time>
      </trkpt>
      <trkpt lat="45.88444" lon="1.25909">
        <ele>352.46</ele>
        <time>2018-03-23T11:31:00Z</time>
      </trkpt>
      <trkpt lat="45.88394" lon="1.25922">
        <ele>349.58</ele>
        <time>2018-03-23T11:31:13Z</time>
      </trkpt>
      <trkpt lat="45.88385" lon="1.25924">
        <ele>349.58</ele>
        <time>2018-03-23T11:31:15Z</time>
      </trkpt>
      <trkpt lat="45.88305" lon="1.25949">
        <ele>346.21</ele>
        <time>2018-03-23T11:31:33Z</time>
      </trkpt>
      <trkpt lat="45.88255" lon="1.25958">
        <ele>346.21</ele>
        <time>2018-03-23T11:31:46Z</time>
      </trkpt>
      <trkpt lat="45.88206" lon="1.25979">
        <ele>346.21</ele>
        <time>2018-03-23T11:32:00Z</time>
      </trkpt>
      <trkpt lat="45.88159" lon="1.26006">
        <ele>345.73</ele>
        <time>2018-03-23T11:32:15Z</time>
      </trkpt>
      <trkpt lat="45.88131" lon="1.26028">
        <ele>347.17</ele>
        <time>2018-03-23T11:32:26Z</time>
      </trkpt>
      <trkpt lat="45.88096" lon="1.26053">
        <ele>347.65</ele>
        <time>2018-03-23T11:32:42Z</time>
      </trkpt>
      <trkpt lat="45.88094" lon="1.26058">
        <ele>347.65</ele>
        <time>2018-03-23T11:32:57Z</time>
      </trkpt>
      <trkpt lat="45.88084" lon="1.26062">
        <ele>347.65</ele>
        <time>2018-03-23T11:33:03Z</time>
      </trkpt>
      <trkpt lat="45.88081" lon="1.26059">
        <ele>347.65</ele>
        <time>2018-03-23T11:33:04Z</time>
      </trkpt>
      <trkpt lat="45.8808" lon="1.26057">
        <ele>347.65</ele>
        <time>2018-03-23T11:33:05Z</time>
      </trkpt>
      <trkpt lat="45.88078" lon="1.26054">
        <ele>347.65</ele>
        <time>2018-03-23T11:33:06Z</time>
      </trkpt>
      <trkpt lat="45.88077" lon="1.2605">
        <ele>347.65</ele>
        <time>2018-03-23T11:33:07Z</time>
      </trkpt>
      <trkpt lat="45.88076" lon="1.26047">
        <ele>347.65</ele>
        <time>2018-03-23T11:33:08Z</time>
      </trkpt>
      <trkpt lat="45.88074" lon="1.26045">
        <ele>347.65</ele>
        <time>2018-03-23T11:33:09Z</time>
      </trkpt>
      <trkpt lat="45.88071" lon="1.26044">
        <ele>347.65</ele>
        <time>2018-03-23T11:33:10Z</time>
      </trkpt>
      <trkpt lat="45.8807" lon="1.26042">
        <ele>347.65</ele>
        <time>2018-03-23T11:33:11Z</time>
      </trkpt>
      <trkpt lat="45.88067" lon="1.2604">
        <ele>348.13</ele>
        <time>2018-03-23T11:33:12Z</time>
      </trkpt>
      <trkpt lat="45.88065" lon="1.2604">
        <ele>348.13</ele>
        <time>2018-03-23T11:33:13Z</time>
      </trkpt>
      <trkpt lat="45.88038" lon="1.26015">
        <ele>349.58</ele>
        <time>2018-03-23T11:33:28Z</time>
      </trkpt>
      <trkpt lat="45.88014" lon="1.25991">
        <ele>352.46</ele>
        <time>2018-03-23T11:33:44Z</time>
      </trkpt>
      <trkpt lat="45.87991" lon="1.25977">
        <ele>354.86</ele>
        <time>2018-03-23T11:34:02Z</time>
      </trkpt>
      <trkpt lat="45.87981" lon="1.25972">
        <ele>356.79</ele>
        <time>2018-03-23T11:34:11Z</time>
      </trkpt>
      <trkpt lat="45.87975" lon="1.25967">
        <ele>357.27</ele>
        <time>2018-03-23T11:34:16Z</time>
      </trkpt>
      <trkpt lat="45.87973" lon="1.25966">
        <ele>357.27</ele>
        <time>2018-03-23T11:34:17Z</time>
      </trkpt>
      <trkpt lat="45.87948" lon="1.25958">
        <ele>357.75</ele>
        <time>2018-03-23T11:34:32Z</time>
      </trkpt>
      <trkpt lat="45.87918" lon="1.25955">
        <ele>355.83</ele>
        <time>2018-03-23T11:34:43Z</time>
      </trkpt>
      <trkpt lat="45.87905" lon="1.25954">
        <ele>354.38</ele>
        <time>2018-03-23T11:34:46Z</time>
      </trkpt>
      <trkpt lat="45.87846" lon="1.25931">
        <ele>351.5</ele>
        <time>2018-03-23T11:35:01Z</time>
      </trkpt>
      <trkpt lat="45.87814" lon="1.25931">
        <ele>351.5</ele>
        <time>2018-03-23T11:35:10Z</time>
      </trkpt>
      <trkpt lat="45.87751" lon="1.25951">
        <ele>347.65</ele>
        <time>2018-03-23T11:35:22Z</time>
      </trkpt>
      <trkpt lat="45.87739" lon="1.25954">
        <ele>346.69</ele>
        <time>2018-03-23T11:35:24Z</time>
      </trkpt>
      <trkpt lat="45.87735" lon="1.25956">
        <ele>345.73</ele>
        <time>2018-03-23T11:35:25Z</time>
      </trkpt>
      <trkpt lat="45.8773" lon="1.25959">
        <ele>345.25</ele>
        <time>2018-03-23T11:35:26Z</time>
      </trkpt>
      <trkpt lat="45.87726" lon="1.25961">
        <ele>344.29</ele>
        <time>2018-03-23T11:35:27Z</time>
      </trkpt>
      <trkpt lat="45.87723" lon="1.25964">
        <ele>344.29</ele>
        <time>2018-03-23T11:35:28Z</time>
      </trkpt>
      <trkpt lat="45.87719" lon="1.25967">
        <ele>343.81</ele>
        <time>2018-03-23T11:35:29Z</time>
      </trkpt>
      <trkpt lat="45.87717" lon="1.25971">
        <ele>343.33</ele>
        <time>2018-03-23T11:35:30Z</time>
      </trkpt>
      <trkpt lat="45.87714" lon="1.25974">
        <ele>343.33</ele>
        <time>2018-03-23T11:35:31Z</time>
      </trkpt>
      <trkpt lat="45.87711" lon="1.25978">
        <ele>342.85</ele>
        <time>2018-03-23T11:35:32Z</time>
      </trkpt>
      <trkpt lat="45.87708" lon="1.25981">
        <ele>342.85</ele>
        <time>2018-03-23T11:35:33Z</time>
      </trkpt>
      <trkpt lat="45.87669" lon="1.26033">
        <ele>339.48</ele>
        <time>2018-03-23T11:35:46Z</time>
      </trkpt>
      <trkpt lat="45.8766" lon="1.2604">
        <ele>339</ele>
        <time>2018-03-23T11:35:49Z</time>
      </trkpt>
      <trkpt lat="45.87657" lon="1.26038">
        <ele>339</ele>
        <time>2018-03-23T11:35:50Z</time>
      </trkpt>
      <trkpt lat="45.87656" lon="1.26037">
        <ele>339</ele>
        <time>2018-03-23T11:35:51Z</time>
      </trkpt>
      <trkpt lat="45.87654" lon="1.26034">
        <ele>339</ele>
        <time>2018-03-23T11:35:52Z</time>
      </trkpt>
      <trkpt lat="45.87652" lon="1.26031">
        <ele>339</ele>
        <time>2018-03-23T11:35:53Z</time>
      </trkpt>
      <trkpt lat="45.87651" lon="1.26027">
        <ele>338.52</ele>
        <time>2018-03-23T11:35:54Z</time>
      </trkpt>
      <trkpt lat="45.87643" lon="1.26009">
        <ele>337.08</ele>
        <time>2018-03-23T11:35:59Z</time>
      </trkpt>
      <trkpt lat="45.87634" lon="1.25996">
        <ele>336.6</ele>
        <time>2018-03-23T11:36:10Z</time>
      </trkpt>
      <trkpt lat="45.87593" lon="1.25903">
        <ele>337.08</ele>
        <time>2018-03-23T11:36:29Z</time>
      </trkpt>
      <trkpt lat="45.8757" lon="1.25811">
        <ele>340.44</ele>
        <time>2018-03-23T11:36:48Z</time>
      </trkpt>
      <trkpt lat="45.87568" lon="1.25808">
        <ele>340.44</ele>
        <time>2018-03-23T11:36:49Z</time>
      </trkpt>
      <trkpt lat="45.87565" lon="1.25806">
        <ele>340.44</ele>
        <time>2018-03-23T11:36:50Z</time>
      </trkpt>
      <trkpt lat="45.87562" lon="1.25806">
        <ele>340.44</ele>
        <time>2018-03-23T11:36:51Z</time>
      </trkpt>
      <trkpt lat="45.87559" lon="1.25807">
        <ele>340.44</ele>
        <time>2018-03-23T11:36:52Z</time>
      </trkpt>
      <trkpt lat="45.87556" lon="1.25808">
        <ele>340.44</ele>
        <time>2018-03-23T11:36:53Z</time>
      </trkpt>
      <trkpt lat="45.87553" lon="1.2581">
        <ele>340.44</ele>
        <time>2018-03-23T11:36:54Z</time>
      </trkpt>
      <trkpt lat="45.87499" lon="1.25836">
        <ele>339</ele>
        <time>2018-03-23T11:37:08Z</time>
      </trkpt>
      <trkpt lat="45.87413" lon="1.25876">
        <ele>336.6</ele>
        <time>2018-03-23T11:37:28Z</time>
      </trkpt>
      <trkpt lat="45.87336" lon="1.25912">
        <ele>333.71</ele>
        <time>2018-03-23T11:37:43Z</time>
      </trkpt>
      <trkpt lat="45.87316" lon="1.25917">
        <ele>333.71</ele>
        <time>2018-03-23T11:37:47Z</time>
      </trkpt>
      <trkpt lat="45.87311" lon="1.25918">
        <ele>333.71</ele>
        <time>2018-03-23T11:37:48Z</time>
      </trkpt>
      <trkpt lat="45.87279" lon="1.25928">
        <ele>331.31</ele>
        <time>2018-03-23T11:37:55Z</time>
      </trkpt>
      <trkpt lat="45.87275" lon="1.25929">
        <ele>331.31</ele>
        <time>2018-03-23T11:37:56Z</time>
      </trkpt>
      <trkpt lat="45.8727" lon="1.25928">
        <ele>330.83</ele>
        <time>2018-03-23T11:37:57Z</time>
      </trkpt>
      <trkpt lat="45.87266" lon="1.25926">
        <ele>330.83</ele>
        <time>2018-03-23T11:37:58Z</time>
      </trkpt>
      <trkpt lat="45.87262" lon="1.25923">
        <ele>330.83</ele>
        <time>2018-03-23T11:37:59Z</time>
      </trkpt>
      <trkpt lat="45.87258" lon="1.2592">
        <ele>330.83</ele>
        <time>2018-03-23T11:38:00Z</time>
      </trkpt>
      <trkpt lat="45.87255" lon="1.25916">
        <ele>330.83</ele>
        <time>2018-03-23T11:38:01Z</time>
      </trkpt>
      <trkpt lat="45.87253" lon="1.2591">
        <ele>330.83</ele>
        <time>2018-03-23T11:38:02Z</time>
      </trkpt>
      <trkpt lat="45.87251" lon="1.25905">
        <ele>330.83</ele>
        <time>2018-03-23T11:38:03Z</time>
      </trkpt>
      <trkpt lat="45.87246" lon="1.25893">
        <ele>330.35</ele>
        <time>2018-03-23T11:38:05Z</time>
      </trkpt>
      <trkpt lat="45.87244" lon="1.25887">
        <ele>330.35</ele>
        <time>2018-03-23T11:38:06Z</time>
      </trkpt>
      <trkpt lat="45.87228" lon="1.25851">
        <ele>329.87</ele>
        <time>2018-03-23T11:38:13Z</time>
      </trkpt>
      <trkpt lat="45.87199" lon="1.25806">
        <ele>327.95</ele>
        <time>2018-03-23T11:38:21Z</time>
      </trkpt>
      <trkpt lat="45.8718" lon="1.25784">
        <ele>326.5</ele>
        <time>2018-03-23T11:38:26Z</time>
      </trkpt>
      <trkpt lat="45.87175" lon="1.25781">
        <ele>326.02</ele>
        <time>2018-03-23T11:38:27Z</time>
      </trkpt>
      <trkpt lat="45.87171" lon="1.25777">
        <ele>325.06</ele>
        <time>2018-03-23T11:38:28Z</time>
      </trkpt>
      <trkpt lat="45.87168" lon="1.25772">
        <ele>325.06</ele>
        <time>2018-03-23T11:38:29Z</time>
      </trkpt>
      <trkpt lat="45.87165" lon="1.25767">
        <ele>324.58</ele>
        <time>2018-03-23T11:38:30Z</time>
      </trkpt>
      <trkpt lat="45.87162" lon="1.25763">
        <ele>324.58</ele>
        <time>2018-03-23T11:38:31Z</time>
      </trkpt>
      <trkpt lat="45.8716" lon="1.25757">
        <ele>325.06</ele>
        <time>2018-03-23T11:38:32Z</time>
      </trkpt>
      <trkpt lat="45.87159" lon="1.25752">
        <ele>324.1</ele>
        <time>2018-03-23T11:38:33Z</time>
      </trkpt>
      <trkpt lat="45.87145" lon="1.25689">
        <ele>324.1</ele>
        <time>2018-03-23T11:38:46Z</time>
      </trkpt>
      <trkpt lat="45.87135" lon="1.25651">
        <ele>325.54</ele>
        <time>2018-03-23T11:38:55Z</time>
      </trkpt>
      <trkpt lat="45.87125" lon="1.25632">
        <ele>327.47</ele>
        <time>2018-03-23T11:39:02Z</time>
      </trkpt>
      <trkpt lat="45.87124" lon="1.25628">
        <ele>327.95</ele>
        <time>2018-03-23T11:39:03Z</time>
      </trkpt>
      <trkpt lat="45.87125" lon="1.25625">
        <ele>327.95</ele>
        <time>2018-03-23T11:39:04Z</time>
      </trkpt>
      <trkpt lat="45.87126" lon="1.25623">
        <ele>328.43</ele>
        <time>2018-03-23T11:39:05Z</time>
      </trkpt>
      <trkpt lat="45.87127" lon="1.25621">
        <ele>328.43</ele>
        <time>2018-03-23T11:39:06Z</time>
      </trkpt>
      <trkpt lat="45.87163" lon="1.25576">
        <ele>329.87</ele>
        <time>2018-03-23T11:39:25Z</time>
      </trkpt>
      <trkpt lat="45.87214" lon="1.2555">
        <ele>329.87</ele>
        <time>2018-03-23T11:39:40Z</time>
      </trkpt>
      <trkpt lat="45.87256" lon="1.25497">
        <ele>331.31</ele>
        <time>2018-03-23T11:39:56Z</time>
      </trkpt>
      <trkpt lat="45.87263" lon="1.25427">
        <ele>333.23</ele>
        <time>2018-03-23T11:40:12Z</time>
      </trkpt>
      <trkpt lat="45.87263" lon="1.25363">
        <ele>333.71</ele>
        <time>2018-03-23T11:40:27Z</time>
      </trkpt>
      <trkpt lat="45.87279" lon="1.25293">
        <ele>335.64</ele>
        <time>2018-03-23T11:40:43Z</time>
      </trkpt>
      <trkpt lat="45.87281" lon="1.25221">
        <ele>336.6</ele>
        <time>2018-03-23T11:40:59Z</time>
      </trkpt>
      <trkpt lat="45.87241" lon="1.25194">
        <ele>335.16</ele>
        <time>2018-03-23T11:41:11Z</time>
      </trkpt>
      <trkpt lat="45.87219" lon="1.25194">
        <ele>334.68</ele>
        <time>2018-03-23T11:41:16Z</time>
      </trkpt>
      <trkpt lat="45.87214" lon="1.25194">
        <ele>334.2</ele>
        <time>2018-03-23T11:41:17Z</time>
      </trkpt>
      <trkpt lat="45.8719" lon="1.252">
        <ele>333.71</ele>
        <time>2018-03-23T11:41:22Z</time>
      </trkpt>
      <trkpt lat="45.87186" lon="1.25199">
        <ele>333.71</ele>
        <time>2018-03-23T11:41:23Z</time>
      </trkpt>
      <trkpt lat="45.87181" lon="1.25197">
        <ele>333.71</ele>
        <time>2018-03-23T11:41:24Z</time>
      </trkpt>
      <trkpt lat="45.87177" lon="1.25195">
        <ele>333.71</ele>
        <time>2018-03-23T11:41:25Z</time>
      </trkpt>
      <trkpt lat="45.87173" lon="1.25192">
        <ele>333.71</ele>
        <time>2018-03-23T11:41:26Z</time>
      </trkpt>
      <trkpt lat="45.8717" lon="1.25188">
        <ele>333.71</ele>
        <time>2018-03-23T11:41:27Z</time>
      </trkpt>
      <trkpt lat="45.87167" lon="1.25185">
        <ele>333.71</ele>
        <time>2018-03-23T11:41:28Z</time>
      </trkpt>
      <trkpt lat="45.87164" lon="1.25181">
        <ele>333.71</ele>
        <time>2018-03-23T11:41:29Z</time>
      </trkpt>
      <trkpt lat="45.87161" lon="1.25177">
        <ele>333.71</ele>
        <time>2018-03-23T11:41:30Z</time>
      </trkpt>
      <trkpt lat="45.87109" lon="1.25125">
        <ele>333.71</ele>
        <time>2018-03-23T11:41:45Z</time>
      </trkpt>
      <trkpt lat="45.87106" lon="1.2512">
        <ele>333.71</ele>
        <time>2018-03-23T11:41:46Z</time>
      </trkpt>
      <trkpt lat="45.87079" lon="1.25061">
        <ele>331.79</ele>
        <time>2018-03-23T11:41:57Z</time>
      </trkpt>
      <trkpt lat="45.87078" lon="1.25055">
        <ele>331.79</ele>
        <time>2018-03-23T11:41:58Z</time>
      </trkpt>
      <trkpt lat="45.87072" lon="1.25032">
        <ele>330.83</ele>
        <time>2018-03-23T11:42:02Z</time>
      </trkpt>
      <trkpt lat="45.87069" lon="1.25027">
        <ele>330.35</ele>
        <time>2018-03-23T11:42:03Z</time>
      </trkpt>
      <trkpt lat="45.87067" lon="1.25023">
        <ele>330.35</ele>
        <time>2018-03-23T11:42:04Z</time>
      </trkpt>
      <trkpt lat="45.87063" lon="1.25019">
        <ele>329.39</ele>
        <time>2018-03-23T11:42:05Z</time>
      </trkpt>
      <trkpt lat="45.87061" lon="1.25017">
        <ele>329.39</ele>
        <time>2018-03-23T11:42:06Z</time>
      </trkpt>
      <trkpt lat="45.87059" lon="1.25014">
        <ele>329.39</ele>
        <time>2018-03-23T11:42:07Z</time>
      </trkpt>
      <trkpt lat="45.87058" lon="1.25012">
        <ele>328.91</ele>
        <time>2018-03-23T11:42:08Z</time>
      </trkpt>
      <trkpt lat="45.87052" lon="1.25008">
        <ele>328.43</ele>
        <time>2018-03-23T11:42:21Z</time>
      </trkpt>
      <trkpt lat="45.8705" lon="1.25009">
        <ele>328.43</ele>
        <time>2018-03-23T11:42:44Z</time>
      </trkpt>
      <trkpt lat="45.8705" lon="1.25009">
        <ele>329.87</ele>
        <time>2018-03-23T11:42:49Z</time>
      </trkpt>
      <trkpt lat="45.8705" lon="1.25009">
        <ele>328.43</ele>
        <time>2018-03-23T11:42:55Z</time>
      </trkpt>
      <trkpt lat="45.8705" lon="1.25008">
        <ele>327.95</ele>
        <time>2018-03-23T11:43:20Z</time>
      </trkpt>
      <trkpt lat="45.87051" lon="1.25009">
        <ele>327.95</ele>
        <time>2018-03-23T11:43:57Z</time>
      </trkpt>
      <trkpt lat="45.87052" lon="1.25011">
        <ele>329.39</ele>
        <time>2018-03-23T11:44:24Z</time>
      </trkpt>
      <trkpt lat="45.87053" lon="1.25011">
        <ele>330.35</ele>
        <time>2018-03-23T11:44:42Z</time>
      </trkpt>
      <trkpt lat="45.87053" lon="1.25011">
        <ele>329.87</ele>
        <time>2018-03-23T11:44:56Z</time>
      </trkpt>
      <trkpt lat="45.87052" lon="1.25013">
        <ele>329.87</ele>
        <time>2018-03-23T11:45:14Z</time>
      </trkpt>
      <trkpt lat="45.87047" lon="1.25013">
        <ele>329.87</ele>
        <time>2018-03-23T11:45:22Z</time>
      </trkpt>
      <trkpt lat="45.87022" lon="1.24982">
        <ele>327.47</ele>
        <time>2018-03-23T11:45:33Z</time>
      </trkpt>
      <trkpt lat="45.86994" lon="1.24945">
        <ele>325.06</ele>
        <time>2018-03-23T11:45:44Z</time>
      </trkpt>
      <trkpt lat="45.86967" lon="1.24938">
        <ele>322.18</ele>
        <time>2018-03-23T11:45:51Z</time>
      </trkpt>
      <trkpt lat="45.86964" lon="1.2494">
        <ele>321.7</ele>
        <time>2018-03-23T11:45:52Z</time>
      </trkpt>
      <trkpt lat="45.86962" lon="1.24942">
        <ele>321.7</ele>
        <time>2018-03-23T11:45:53Z</time>
      </trkpt>
      <trkpt lat="45.8696" lon="1.24944">
        <ele>320.74</ele>
        <time>2018-03-23T11:45:54Z</time>
      </trkpt>
      <trkpt lat="45.86957" lon="1.24944">
        <ele>319.78</ele>
        <time>2018-03-23T11:45:55Z</time>
      </trkpt>
      <trkpt lat="45.86954" lon="1.24943">
        <ele>318.81</ele>
        <time>2018-03-23T11:45:56Z</time>
      </trkpt>
      <trkpt lat="45.86938" lon="1.24941">
        <ele>315.45</ele>
        <time>2018-03-23T11:46:00Z</time>
      </trkpt>
      <trkpt lat="45.86922" lon="1.24932">
        <ele>314.01</ele>
        <time>2018-03-23T11:46:07Z</time>
      </trkpt>
      <trkpt lat="45.86915" lon="1.24922">
        <ele>313.05</ele>
        <time>2018-03-23T11:46:13Z</time>
      </trkpt>
      <trkpt lat="45.86916" lon="1.24913">
        <ele>313.05</ele>
        <time>2018-03-23T11:46:17Z</time>
      </trkpt>
      <trkpt lat="45.86898" lon="1.24893">
        <ele>309.68</ele>
        <time>2018-03-23T11:46:26Z</time>
      </trkpt>
      <trkpt lat="45.86897" lon="1.24889">
        <ele>308.72</ele>
        <time>2018-03-23T11:46:28Z</time>
      </trkpt>
      <trkpt lat="45.86898" lon="1.24886">
        <ele>308.24</ele>
        <time>2018-03-23T11:46:30Z</time>
      </trkpt>
      <trkpt lat="45.86903" lon="1.24876">
        <ele>306.8</ele>
        <time>2018-03-23T11:46:37Z</time>
      </trkpt>
      <trkpt lat="45.86907" lon="1.24866">
        <ele>308.24</ele>
        <time>2018-03-23T11:46:42Z</time>
      </trkpt>
      <trkpt lat="45.86908" lon="1.24864">
        <ele>308.72</ele>
        <time>2018-03-23T11:46:43Z</time>
      </trkpt>
      <trkpt lat="45.86911" lon="1.24855">
        <ele>309.68</ele>
        <time>2018-03-23T11:46:46Z</time>
      </trkpt>
      <trkpt lat="45.86909" lon="1.24836">
        <ele>307.76</ele>
        <time>2018-03-23T11:46:50Z</time>
      </trkpt>
      <trkpt lat="45.8691" lon="1.24831">
        <ele>307.76</ele>
        <time>2018-03-23T11:46:51Z</time>
      </trkpt>
      <trkpt lat="45.86916" lon="1.24801">
        <ele>306.8</ele>
        <time>2018-03-23T11:46:59Z</time>
      </trkpt>
      <trkpt lat="45.86922" lon="1.24788">
        <ele>306.8</ele>
        <time>2018-03-23T11:47:06Z</time>
      </trkpt>
      <trkpt lat="45.86924" lon="1.24785">
        <ele>306.8</ele>
        <time>2018-03-23T11:47:08Z</time>
      </trkpt>
      <trkpt lat="45.86936" lon="1.24764">
        <ele>310.16</ele>
        <time>2018-03-23T11:47:22Z</time>
      </trkpt>
      <trkpt lat="45.86949" lon="1.24758">
        <ele>312.57</ele>
        <time>2018-03-23T11:47:35Z</time>
      </trkpt>
      <trkpt lat="45.8696" lon="1.24747">
        <ele>312.57</ele>
        <time>2018-03-23T11:47:46Z</time>
      </trkpt>
      <trkpt lat="45.86966" lon="1.24733">
        <ele>314.01</ele>
        <time>2018-03-23T11:47:53Z</time>
      </trkpt>
      <trkpt lat="45.86973" lon="1.24723">
        <ele>314.97</ele>
        <time>2018-03-23T11:48:01Z</time>
      </trkpt>
      <trkpt lat="45.86977" lon="1.24716">
        <ele>315.45</ele>
        <time>2018-03-23T11:48:06Z</time>
      </trkpt>
      <trkpt lat="45.86985" lon="1.24708">
        <ele>315.93</ele>
        <time>2018-03-23T11:48:12Z</time>
      </trkpt>
      <trkpt lat="45.8699" lon="1.24701">
        <ele>315.93</ele>
        <time>2018-03-23T11:48:16Z</time>
      </trkpt>
      <trkpt lat="45.87003" lon="1.24691">
        <ele>314.49</ele>
        <time>2018-03-23T11:48:22Z</time>
      </trkpt>
      <trkpt lat="45.8701" lon="1.24686">
        <ele>312.57</ele>
        <time>2018-03-23T11:48:26Z</time>
      </trkpt>
      <trkpt lat="45.87024" lon="1.2468">
        <ele>309.2</ele>
        <time>2018-03-23T11:48:34Z</time>
      </trkpt>
      <trkpt lat="45.87026" lon="1.24679">
        <ele>309.2</ele>
        <time>2018-03-23T11:48:35Z</time>
      </trkpt>
      <trkpt lat="45.87026" lon="1.2467">
        <ele>307.76</ele>
        <time>2018-03-23T11:48:38Z</time>
      </trkpt>
      <trkpt lat="45.87026" lon="1.24669">
        <ele>307.76</ele>
        <time>2018-03-23T11:48:39Z</time>
      </trkpt>
      <trkpt lat="45.87023" lon="1.24666">
        <ele>307.76</ele>
        <time>2018-03-23T11:48:41Z</time>
      </trkpt>
      <trkpt lat="45.87021" lon="1.24655">
        <ele>307.28</ele>
        <time>2018-03-23T11:48:51Z</time>
      </trkpt>
      <trkpt lat="45.87026" lon="1.24622">
        <ele>308.24</ele>
        <time>2018-03-23T11:49:08Z</time>
      </trkpt>
      <trkpt lat="45.87025" lon="1.24601">
        <ele>311.6</ele>
        <time>2018-03-23T11:49:23Z</time>
      </trkpt>
      <trkpt lat="45.8703" lon="1.24589">
        <ele>313.53</ele>
        <time>2018-03-23T11:49:37Z</time>
      </trkpt>
      <trkpt lat="45.87043" lon="1.24584">
        <ele>316.41</ele>
        <time>2018-03-23T11:49:52Z</time>
      </trkpt>
      <trkpt lat="45.87057" lon="1.24573">
        <ele>319.3</ele>
        <time>2018-03-23T11:50:09Z</time>
      </trkpt>
      <trkpt lat="45.87071" lon="1.24563">
        <ele>321.7</ele>
        <time>2018-03-23T11:50:28Z</time>
      </trkpt>
      <trkpt lat="45.87084" lon="1.24556">
        <ele>324.58</ele>
        <time>2018-03-23T11:50:43Z</time>
      </trkpt>
      <trkpt lat="45.87092" lon="1.24553">
        <ele>325.54</ele>
        <time>2018-03-23T11:50:58Z</time>
      </trkpt>
      <trkpt lat="45.87104" lon="1.2455">
        <ele>328.43</ele>
        <time>2018-03-23T11:51:14Z</time>
      </trkpt>
      <trkpt lat="45.87119" lon="1.24547">
        <ele>331.31</ele>
        <time>2018-03-23T11:51:34Z</time>
      </trkpt>
      <trkpt lat="45.87129" lon="1.24542">
        <ele>332.75</ele>
        <time>2018-03-23T11:51:46Z</time>
      </trkpt>
      <trkpt lat="45.87129" lon="1.24536">
        <ele>333.23</ele>
        <time>2018-03-23T11:51:54Z</time>
      </trkpt>
      <trkpt lat="45.87114" lon="1.24486">
        <ele>332.75</ele>
        <time>2018-03-23T11:52:13Z</time>
      </trkpt>
      <trkpt lat="45.87111" lon="1.24473">
        <ele>331.31</ele>
        <time>2018-03-23T11:52:15Z</time>
      </trkpt>
      <trkpt lat="45.87109" lon="1.24467">
        <ele>331.31</ele>
        <time>2018-03-23T11:52:16Z</time>
      </trkpt>
      <trkpt lat="45.8709" lon="1.24412">
        <ele>327.95</ele>
        <time>2018-03-23T11:52:24Z</time>
      </trkpt>
      <trkpt lat="45.87061" lon="1.2432">
        <ele>327.47</ele>
        <time>2018-03-23T11:52:41Z</time>
      </trkpt>
      <trkpt lat="45.87043" lon="1.24258">
        <ele>329.87</ele>
        <time>2018-03-23T11:52:59Z</time>
      </trkpt>
      <trkpt lat="45.87045" lon="1.24249">
        <ele>330.83</ele>
        <time>2018-03-23T11:53:02Z</time>
      </trkpt>
      <trkpt lat="45.87072" lon="1.24225">
        <ele>333.71</ele>
        <time>2018-03-23T11:53:19Z</time>
      </trkpt>
      <trkpt lat="45.87086" lon="1.24204">
        <ele>337.56</ele>
        <time>2018-03-23T11:53:32Z</time>
      </trkpt>
      <trkpt lat="45.87085" lon="1.242">
        <ele>337.08</ele>
        <time>2018-03-23T11:53:34Z</time>
      </trkpt>
      <trkpt lat="45.87076" lon="1.2419">
        <ele>337.56</ele>
        <time>2018-03-23T11:53:43Z</time>
      </trkpt>
      <trkpt lat="45.87074" lon="1.24188">
        <ele>336.6</ele>
        <time>2018-03-23T11:53:44Z</time>
      </trkpt>
      <trkpt lat="45.87055" lon="1.24168">
        <ele>336.6</ele>
        <time>2018-03-23T11:53:54Z</time>
      </trkpt>
      <trkpt lat="45.87053" lon="1.24166">
        <ele>336.6</ele>
        <time>2018-03-23T11:53:55Z</time>
      </trkpt>
      <trkpt lat="45.87023" lon="1.24133">
        <ele>337.56</ele>
        <time>2018-03-23T11:54:10Z</time>
      </trkpt>
      <trkpt lat="45.8702" lon="1.24131">
        <ele>337.56</ele>
        <time>2018-03-23T11:54:11Z</time>
      </trkpt>
      <trkpt lat="45.86986" lon="1.24103">
        <ele>338.04</ele>
        <time>2018-03-23T11:54:25Z</time>
      </trkpt>
      <trkpt lat="45.86953" lon="1.24086">
        <ele>339.96</ele>
        <time>2018-03-23T11:54:39Z</time>
      </trkpt>
      <trkpt lat="45.8692" lon="1.24069">
        <ele>339.48</ele>
        <time>2018-03-23T11:54:51Z</time>
      </trkpt>
      <trkpt lat="45.86879" lon="1.24045">
        <ele>338.52</ele>
        <time>2018-03-23T11:55:06Z</time>
      </trkpt>
      <trkpt lat="45.86855" lon="1.24024">
        <ele>341.41</ele>
        <time>2018-03-23T11:55:19Z</time>
      </trkpt>
      <trkpt lat="45.86855" lon="1.24021">
        <ele>341.41</ele>
        <time>2018-03-23T11:55:20Z</time>
      </trkpt>
      <trkpt lat="45.86856" lon="1.24018">
        <ele>341.41</ele>
        <time>2018-03-23T11:55:21Z</time>
      </trkpt>
      <trkpt lat="45.86856" lon="1.24015">
        <ele>341.41</ele>
        <time>2018-03-23T11:55:22Z</time>
      </trkpt>
      <trkpt lat="45.86856" lon="1.24012">
        <ele>341.89</ele>
        <time>2018-03-23T11:55:23Z</time>
      </trkpt>
      <trkpt lat="45.86856" lon="1.23976">
        <ele>342.85</ele>
        <time>2018-03-23T11:55:34Z</time>
      </trkpt>
      <trkpt lat="45.86855" lon="1.23973">
        <ele>343.81</ele>
        <time>2018-03-23T11:55:35Z</time>
      </trkpt>
      <trkpt lat="45.86853" lon="1.2397">
        <ele>343.33</ele>
        <time>2018-03-23T11:55:36Z</time>
      </trkpt>
      <trkpt lat="45.86851" lon="1.23969">
        <ele>343.33</ele>
        <time>2018-03-23T11:55:37Z</time>
      </trkpt>
      <trkpt lat="45.86848" lon="1.23968">
        <ele>343.81</ele>
        <time>2018-03-23T11:55:38Z</time>
      </trkpt>
      <trkpt lat="45.86845" lon="1.23967">
        <ele>343.33</ele>
        <time>2018-03-23T11:55:39Z</time>
      </trkpt>
      <trkpt lat="45.86841" lon="1.23967">
        <ele>343.33</ele>
        <time>2018-03-23T11:55:40Z</time>
      </trkpt>
      <trkpt lat="45.86809" lon="1.23967">
        <ele>342.37</ele>
        <time>2018-03-23T11:55:48Z</time>
      </trkpt>
      <trkpt lat="45.86755" lon="1.23969">
        <ele>340.44</ele>
        <time>2018-03-23T11:56:02Z</time>
      </trkpt>
      <trkpt lat="45.86754" lon="1.23967">
        <ele>340.92</ele>
        <time>2018-03-23T11:56:03Z</time>
      </trkpt>
      <trkpt lat="45.86752" lon="1.23965">
        <ele>340.92</ele>
        <time>2018-03-23T11:56:04Z</time>
      </trkpt>
      <trkpt lat="45.86752" lon="1.23962">
        <ele>340.92</ele>
        <time>2018-03-23T11:56:05Z</time>
      </trkpt>
      <trkpt lat="45.86752" lon="1.23958">
        <ele>340.92</ele>
        <time>2018-03-23T11:56:06Z</time>
      </trkpt>
      <trkpt lat="45.86751" lon="1.23953">
        <ele>340.92</ele>
        <time>2018-03-23T11:56:07Z</time>
      </trkpt>
      <trkpt lat="45.86751" lon="1.23948">
        <ele>340.92</ele>
        <time>2018-03-23T11:56:08Z</time>
      </trkpt>
      <trkpt lat="45.8675" lon="1.23872">
        <ele>341.89</ele>
        <time>2018-03-23T11:56:18Z</time>
      </trkpt>
      <trkpt lat="45.8675" lon="1.23771">
        <ele>340.92</ele>
        <time>2018-03-23T11:56:32Z</time>
      </trkpt>
      <trkpt lat="45.86727" lon="1.23744">
        <ele>340.44</ele>
        <time>2018-03-23T11:56:42Z</time>
      </trkpt>
      <trkpt lat="45.86708" lon="1.23732">
        <ele>339.96</ele>
        <time>2018-03-23T11:56:47Z</time>
      </trkpt>
      <trkpt lat="45.86704" lon="1.23729">
        <ele>339.96</ele>
        <time>2018-03-23T11:56:48Z</time>
      </trkpt>
      <trkpt lat="45.86702" lon="1.23725">
        <ele>339.96</ele>
        <time>2018-03-23T11:56:49Z</time>
      </trkpt>
      <trkpt lat="45.86702" lon="1.23721">
        <ele>339.48</ele>
        <time>2018-03-23T11:56:50Z</time>
      </trkpt>
      <trkpt lat="45.86704" lon="1.23715">
        <ele>339</ele>
        <time>2018-03-23T11:56:51Z</time>
      </trkpt>
      <trkpt lat="45.86705" lon="1.23709">
        <ele>339</ele>
        <time>2018-03-23T11:56:52Z</time>
      </trkpt>
      <trkpt lat="45.86707" lon="1.23704">
        <ele>338.52</ele>
        <time>2018-03-23T11:56:53Z</time>
      </trkpt>
      <trkpt lat="45.86713" lon="1.23686">
        <ele>337.56</ele>
        <time>2018-03-23T11:56:56Z</time>
      </trkpt>
      <trkpt lat="45.86715" lon="1.23679">
        <ele>337.08</ele>
        <time>2018-03-23T11:56:57Z</time>
      </trkpt>
      <trkpt lat="45.86717" lon="1.23671">
        <ele>337.08</ele>
        <time>2018-03-23T11:56:58Z</time>
      </trkpt>
      <trkpt lat="45.86717" lon="1.23663">
        <ele>337.08</ele>
        <time>2018-03-23T11:56:59Z</time>
      </trkpt>
      <trkpt lat="45.86718" lon="1.23655">
        <ele>336.12</ele>
        <time>2018-03-23T11:57:00Z</time>
      </trkpt>
      <trkpt lat="45.86717" lon="1.23646">
        <ele>336.12</ele>
        <time>2018-03-23T11:57:01Z</time>
      </trkpt>
      <trkpt lat="45.86716" lon="1.23637">
        <ele>335.64</ele>
        <time>2018-03-23T11:57:02Z</time>
      </trkpt>
      <trkpt lat="45.86715" lon="1.23629">
        <ele>335.64</ele>
        <time>2018-03-23T11:57:03Z</time>
      </trkpt>
      <trkpt lat="45.86714" lon="1.23621">
        <ele>334.68</ele>
        <time>2018-03-23T11:57:04Z</time>
      </trkpt>
      <trkpt lat="45.86711" lon="1.23606">
        <ele>334.2</ele>
        <time>2018-03-23T11:57:06Z</time>
      </trkpt>
      <trkpt lat="45.86708" lon="1.23599">
        <ele>333.71</ele>
        <time>2018-03-23T11:57:07Z</time>
      </trkpt>
      <trkpt lat="45.86705" lon="1.23593">
        <ele>333.71</ele>
        <time>2018-03-23T11:57:08Z</time>
      </trkpt>
      <trkpt lat="45.86701" lon="1.23587">
        <ele>332.27</ele>
        <time>2018-03-23T11:57:09Z</time>
      </trkpt>
      <trkpt lat="45.86696" lon="1.23581">
        <ele>332.27</ele>
        <time>2018-03-23T11:57:10Z</time>
      </trkpt>
      <trkpt lat="45.86689" lon="1.23569">
        <ele>331.31</ele>
        <time>2018-03-23T11:57:12Z</time>
      </trkpt>
      <trkpt lat="45.86678" lon="1.23541">
        <ele>329.87</ele>
        <time>2018-03-23T11:57:16Z</time>
      </trkpt>
      <trkpt lat="45.86676" lon="1.23532">
        <ele>329.87</ele>
        <time>2018-03-23T11:57:17Z</time>
      </trkpt>
      <trkpt lat="45.86675" lon="1.23524">
        <ele>329.39</ele>
        <time>2018-03-23T11:57:18Z</time>
      </trkpt>
      <trkpt lat="45.86673" lon="1.23501">
        <ele>328.91</ele>
        <time>2018-03-23T11:57:21Z</time>
      </trkpt>
      <trkpt lat="45.86671" lon="1.23493">
        <ele>328.91</ele>
        <time>2018-03-23T11:57:22Z</time>
      </trkpt>
      <trkpt lat="45.86667" lon="1.2348">
        <ele>328.43</ele>
        <time>2018-03-23T11:57:24Z</time>
      </trkpt>
      <trkpt lat="45.86666" lon="1.23474">
        <ele>328.43</ele>
        <time>2018-03-23T11:57:25Z</time>
      </trkpt>
      <trkpt lat="45.86665" lon="1.23468">
        <ele>328.43</ele>
        <time>2018-03-23T11:57:26Z</time>
      </trkpt>
      <trkpt lat="45.86665" lon="1.23463">
        <ele>327.95</ele>
        <time>2018-03-23T11:57:27Z</time>
      </trkpt>
      <trkpt lat="45.86664" lon="1.23459">
        <ele>327.95</ele>
        <time>2018-03-23T11:57:28Z</time>
      </trkpt>
      <trkpt lat="45.86663" lon="1.23456">
        <ele>327.95</ele>
        <time>2018-03-23T11:57:29Z</time>
      </trkpt>
      <trkpt lat="45.8666" lon="1.23454">
        <ele>327.95</ele>
        <time>2018-03-23T11:57:30Z</time>
      </trkpt>
      <trkpt lat="45.86658" lon="1.23452">
        <ele>327.95</ele>
        <time>2018-03-23T11:57:31Z</time>
      </trkpt>
      <trkpt lat="45.86656" lon="1.23451">
        <ele>327.95</ele>
        <time>2018-03-23T11:57:32Z</time>
      </trkpt>
      <trkpt lat="45.86653" lon="1.23451">
        <ele>327.95</ele>
        <time>2018-03-23T11:57:33Z</time>
      </trkpt>
      <trkpt lat="45.86651" lon="1.23452">
        <ele>327.95</ele>
        <time>2018-03-23T11:57:34Z</time>
      </trkpt>
      <trkpt lat="45.86617" lon="1.23497">
        <ele>329.39</ele>
        <time>2018-03-23T11:57:48Z</time>
      </trkpt>
      <trkpt lat="45.86615" lon="1.23501">
        <ele>329.39</ele>
        <time>2018-03-23T11:57:49Z</time>
      </trkpt>
      <trkpt lat="45.86572" lon="1.23552">
        <ele>331.31</ele>
        <time>2018-03-23T11:58:05Z</time>
      </trkpt>
      <trkpt lat="45.86533" lon="1.23596">
        <ele>330.83</ele>
        <time>2018-03-23T11:58:18Z</time>
      </trkpt>
      <trkpt lat="45.86488" lon="1.23646">
        <ele>327.95</ele>
        <time>2018-03-23T11:58:28Z</time>
      </trkpt>
      <trkpt lat="45.86445" lon="1.23693">
        <ele>327.47</ele>
        <time>2018-03-23T11:58:38Z</time>
      </trkpt>
      <trkpt lat="45.86414" lon="1.23727">
        <ele>327.47</ele>
        <time>2018-03-23T11:58:46Z</time>
      </trkpt>
      <trkpt lat="45.86411" lon="1.23731">
        <ele>328.91</ele>
        <time>2018-03-23T11:58:47Z</time>
      </trkpt>
      <trkpt lat="45.86407" lon="1.23734">
        <ele>328.91</ele>
        <time>2018-03-23T11:58:48Z</time>
      </trkpt>
      <trkpt lat="45.86366" lon="1.23763">
        <ele>329.39</ele>
        <time>2018-03-23T11:59:02Z</time>
      </trkpt>
      <trkpt lat="45.86361" lon="1.23761">
        <ele>329.39</ele>
        <time>2018-03-23T11:59:04Z</time>
      </trkpt>
      <trkpt lat="45.86351" lon="1.23754">
        <ele>329.39</ele>
        <time>2018-03-23T11:59:10Z</time>
      </trkpt>
      <trkpt lat="45.86349" lon="1.23755">
        <ele>329.39</ele>
        <time>2018-03-23T11:59:11Z</time>
      </trkpt>
      <trkpt lat="45.86347" lon="1.23757">
        <ele>329.39</ele>
        <time>2018-03-23T11:59:12Z</time>
      </trkpt>
      <trkpt lat="45.86345" lon="1.23761">
        <ele>329.39</ele>
        <time>2018-03-23T11:59:13Z</time>
      </trkpt>
      <trkpt lat="45.86343" lon="1.23764">
        <ele>329.39</ele>
        <time>2018-03-23T11:59:14Z</time>
      </trkpt>
      <trkpt lat="45.86341" lon="1.23765">
        <ele>329.39</ele>
        <time>2018-03-23T11:59:15Z</time>
      </trkpt>
      <trkpt lat="45.86338" lon="1.23766">
        <ele>329.87</ele>
        <time>2018-03-23T11:59:16Z</time>
      </trkpt>
      <trkpt lat="45.86334" lon="1.23765">
        <ele>329.87</ele>
        <time>2018-03-23T11:59:17Z</time>
      </trkpt>
      <trkpt lat="45.86331" lon="1.23764">
        <ele>329.87</ele>
        <time>2018-03-23T11:59:18Z</time>
      </trkpt>
      <trkpt lat="45.86327" lon="1.23763">
        <ele>329.87</ele>
        <time>2018-03-23T11:59:19Z</time>
      </trkpt>
      <trkpt lat="45.86252" lon="1.23727">
        <ele>330.35</ele>
        <time>2018-03-23T11:59:39Z</time>
      </trkpt>
      <trkpt lat="45.86223" lon="1.23712">
        <ele>328.91</ele>
        <time>2018-03-23T11:59:48Z</time>
      </trkpt>
      <trkpt lat="45.86195" lon="1.23698">
        <ele>327.95</ele>
        <time>2018-03-23T11:59:59Z</time>
      </trkpt>
      <trkpt lat="45.86122" lon="1.23663">
        <ele>324.58</ele>
        <time>2018-03-23T12:00:15Z</time>
      </trkpt>
      <trkpt lat="45.86041" lon="1.23623">
        <ele>322.66</ele>
        <time>2018-03-23T12:00:30Z</time>
      </trkpt>
      <trkpt lat="45.85946" lon="1.23576">
        <ele>320.26</ele>
        <time>2018-03-23T12:00:48Z</time>
      </trkpt>
      <trkpt lat="45.85921" lon="1.23561">
        <ele>319.78</ele>
        <time>2018-03-23T12:00:55Z</time>
      </trkpt>
      <trkpt lat="45.85917" lon="1.23558">
        <ele>319.78</ele>
        <time>2018-03-23T12:00:56Z</time>
      </trkpt>
      <trkpt lat="45.85913" lon="1.23556">
        <ele>319.78</ele>
        <time>2018-03-23T12:00:57Z</time>
      </trkpt>
      <trkpt lat="45.85909" lon="1.23554">
        <ele>319.78</ele>
        <time>2018-03-23T12:00:58Z</time>
      </trkpt>
      <trkpt lat="45.85904" lon="1.23552">
        <ele>319.3</ele>
        <time>2018-03-23T12:00:59Z</time>
      </trkpt>
      <trkpt lat="45.85899" lon="1.23551">
        <ele>319.3</ele>
        <time>2018-03-23T12:01:00Z</time>
      </trkpt>
      <trkpt lat="45.8589" lon="1.23548">
        <ele>319.3</ele>
        <time>2018-03-23T12:01:02Z</time>
      </trkpt>
      <trkpt lat="45.85885" lon="1.23547">
        <ele>319.3</ele>
        <time>2018-03-23T12:01:03Z</time>
      </trkpt>
      <trkpt lat="45.85875" lon="1.23549">
        <ele>319.3</ele>
        <time>2018-03-23T12:01:05Z</time>
      </trkpt>
      <trkpt lat="45.85871" lon="1.23551">
        <ele>319.3</ele>
        <time>2018-03-23T12:01:06Z</time>
      </trkpt>
      <trkpt lat="45.85862" lon="1.23556">
        <ele>318.33</ele>
        <time>2018-03-23T12:01:08Z</time>
      </trkpt>
      <trkpt lat="45.85811" lon="1.23592">
        <ele>314.97</ele>
        <time>2018-03-23T12:01:17Z</time>
      </trkpt>
      <trkpt lat="45.85791" lon="1.23606">
        <ele>313.53</ele>
        <time>2018-03-23T12:01:20Z</time>
      </trkpt>
      <trkpt lat="45.85722" lon="1.23646">
        <ele>309.68</ele>
        <time>2018-03-23T12:01:30Z</time>
      </trkpt>
      <trkpt lat="45.85716" lon="1.2365">
        <ele>308.24</ele>
        <time>2018-03-23T12:01:31Z</time>
      </trkpt>
      <trkpt lat="45.85705" lon="1.23657">
        <ele>307.28</ele>
        <time>2018-03-23T12:01:33Z</time>
      </trkpt>
      <trkpt lat="45.85692" lon="1.23666">
        <ele>305.84</ele>
        <time>2018-03-23T12:01:36Z</time>
      </trkpt>
      <trkpt lat="45.85667" lon="1.23684">
        <ele>304.39</ele>
        <time>2018-03-23T12:01:49Z</time>
      </trkpt>
      <trkpt lat="45.85623" lon="1.23712">
        <ele>302.95</ele>
        <time>2018-03-23T12:02:00Z</time>
      </trkpt>
      <trkpt lat="45.85576" lon="1.2373">
        <ele>300.07</ele>
        <time>2018-03-23T12:02:09Z</time>
      </trkpt>
      <trkpt lat="45.85508" lon="1.2378">
        <ele>296.22</ele>
        <time>2018-03-23T12:02:23Z</time>
      </trkpt>
      <trkpt lat="45.85502" lon="1.23782">
        <ele>296.22</ele>
        <time>2018-03-23T12:02:24Z</time>
      </trkpt>
      <trkpt lat="45.85496" lon="1.23784">
        <ele>295.74</ele>
        <time>2018-03-23T12:02:25Z</time>
      </trkpt>
      <trkpt lat="45.85428" lon="1.23793">
        <ele>292.86</ele>
        <time>2018-03-23T12:02:36Z</time>
      </trkpt>
      <trkpt lat="45.85423" lon="1.23792">
        <ele>292.86</ele>
        <time>2018-03-23T12:02:37Z</time>
      </trkpt>
      <trkpt lat="45.85417" lon="1.23789">
        <ele>292.86</ele>
        <time>2018-03-23T12:02:38Z</time>
      </trkpt>
      <trkpt lat="45.85413" lon="1.23785">
        <ele>292.86</ele>
        <time>2018-03-23T12:02:39Z</time>
      </trkpt>
      <trkpt lat="45.85409" lon="1.2378">
        <ele>293.34</ele>
        <time>2018-03-23T12:02:40Z</time>
      </trkpt>
      <trkpt lat="45.85406" lon="1.23775">
        <ele>293.34</ele>
        <time>2018-03-23T12:02:41Z</time>
      </trkpt>
      <trkpt lat="45.85404" lon="1.2377">
        <ele>293.34</ele>
        <time>2018-03-23T12:02:42Z</time>
      </trkpt>
      <trkpt lat="45.8539" lon="1.23737">
        <ele>296.7</ele>
        <time>2018-03-23T12:02:50Z</time>
      </trkpt>
      <trkpt lat="45.85383" lon="1.23718">
        <ele>294.78</ele>
        <time>2018-03-23T12:02:54Z</time>
      </trkpt>
      <trkpt lat="45.8536" lon="1.23663">
        <ele>291.42</ele>
        <time>2018-03-23T12:03:02Z</time>
      </trkpt>
      <trkpt lat="45.85357" lon="1.23655">
        <ele>291.42</ele>
        <time>2018-03-23T12:03:03Z</time>
      </trkpt>
      <trkpt lat="45.85349" lon="1.23638">
        <ele>289.97</ele>
        <time>2018-03-23T12:03:05Z</time>
      </trkpt>
      <trkpt lat="45.85343" lon="1.2362">
        <ele>289.49</ele>
        <time>2018-03-23T12:03:07Z</time>
      </trkpt>
      <trkpt lat="45.85321" lon="1.23569">
        <ele>288.05</ele>
        <time>2018-03-23T12:03:14Z</time>
      </trkpt>
      <trkpt lat="45.85292" lon="1.23493">
        <ele>287.09</ele>
        <time>2018-03-23T12:03:28Z</time>
      </trkpt>
      <trkpt lat="45.85289" lon="1.2349">
        <ele>286.61</ele>
        <time>2018-03-23T12:03:29Z</time>
      </trkpt>
      <trkpt lat="45.85285" lon="1.23488">
        <ele>286.13</ele>
        <time>2018-03-23T12:03:30Z</time>
      </trkpt>
      <trkpt lat="45.85281" lon="1.23487">
        <ele>286.13</ele>
        <time>2018-03-23T12:03:31Z</time>
      </trkpt>
      <trkpt lat="45.85276" lon="1.23486">
        <ele>286.13</ele>
        <time>2018-03-23T12:03:32Z</time>
      </trkpt>
      <trkpt lat="45.85271" lon="1.23484">
        <ele>285.65</ele>
        <time>2018-03-23T12:03:33Z</time>
      </trkpt>
      <trkpt lat="45.85248" lon="1.23479">
        <ele>284.69</ele>
        <time>2018-03-23T12:03:38Z</time>
      </trkpt>
      <trkpt lat="45.8521" lon="1.23479">
        <ele>281.8</ele>
        <time>2018-03-23T12:03:46Z</time>
      </trkpt>
      <trkpt lat="45.85205" lon="1.23481">
        <ele>281.8</ele>
        <time>2018-03-23T12:03:47Z</time>
      </trkpt>
      <trkpt lat="45.85189" lon="1.23489">
        <ele>280.84</ele>
        <time>2018-03-23T12:03:50Z</time>
      </trkpt>
      <trkpt lat="45.85183" lon="1.23494">
        <ele>279.88</ele>
        <time>2018-03-23T12:03:51Z</time>
      </trkpt>
      <trkpt lat="45.85178" lon="1.23498">
        <ele>279.88</ele>
        <time>2018-03-23T12:03:52Z</time>
      </trkpt>
      <trkpt lat="45.85169" lon="1.23506">
        <ele>279.4</ele>
        <time>2018-03-23T12:03:54Z</time>
      </trkpt>
      <trkpt lat="45.85164" lon="1.2351">
        <ele>278.92</ele>
        <time>2018-03-23T12:03:55Z</time>
      </trkpt>
      <trkpt lat="45.85159" lon="1.23512">
        <ele>278.92</ele>
        <time>2018-03-23T12:03:56Z</time>
      </trkpt>
      <trkpt lat="45.85154" lon="1.23513">
        <ele>278.92</ele>
        <time>2018-03-23T12:03:57Z</time>
      </trkpt>
      <trkpt lat="45.85149" lon="1.23512">
        <ele>278.92</ele>
        <time>2018-03-23T12:03:58Z</time>
      </trkpt>
      <trkpt lat="45.85144" lon="1.23509">
        <ele>277.96</ele>
        <time>2018-03-23T12:03:59Z</time>
      </trkpt>
      <trkpt lat="45.85139" lon="1.23505">
        <ele>277.96</ele>
        <time>2018-03-23T12:04:00Z</time>
      </trkpt>
      <trkpt lat="45.85133" lon="1.23501">
        <ele>277.96</ele>
        <time>2018-03-23T12:04:01Z</time>
      </trkpt>
      <trkpt lat="45.85071" lon="1.23443">
        <ele>275.56</ele>
        <time>2018-03-23T12:04:14Z</time>
      </trkpt>
      <trkpt lat="45.85034" lon="1.23393">
        <ele>274.11</ele>
        <time>2018-03-23T12:04:23Z</time>
      </trkpt>
      <trkpt lat="45.84988" lon="1.23332">
        <ele>271.71</ele>
        <time>2018-03-23T12:04:35Z</time>
      </trkpt>
      <trkpt lat="45.84983" lon="1.23328">
        <ele>271.71</ele>
        <time>2018-03-23T12:04:36Z</time>
      </trkpt>
      <trkpt lat="45.84977" lon="1.23325">
        <ele>271.23</ele>
        <time>2018-03-23T12:04:37Z</time>
      </trkpt>
      <trkpt lat="45.84971" lon="1.23324">
        <ele>270.75</ele>
        <time>2018-03-23T12:04:38Z</time>
      </trkpt>
      <trkpt lat="45.84965" lon="1.23322">
        <ele>270.75</ele>
        <time>2018-03-23T12:04:39Z</time>
      </trkpt>
      <trkpt lat="45.84922" lon="1.23311">
        <ele>266.9</ele>
        <time>2018-03-23T12:04:45Z</time>
      </trkpt>
      <trkpt lat="45.84916" lon="1.23307">
        <ele>266.42</ele>
        <time>2018-03-23T12:04:46Z</time>
      </trkpt>
      <trkpt lat="45.84908" lon="1.23303">
        <ele>265.46</ele>
        <time>2018-03-23T12:04:47Z</time>
      </trkpt>
      <trkpt lat="45.84884" lon="1.23284">
        <ele>261.14</ele>
        <time>2018-03-23T12:04:50Z</time>
      </trkpt>
      <trkpt lat="45.84868" lon="1.23273">
        <ele>257.77</ele>
        <time>2018-03-23T12:04:52Z</time>
      </trkpt>
      <trkpt lat="45.84861" lon="1.23267">
        <ele>257.77</ele>
        <time>2018-03-23T12:04:53Z</time>
      </trkpt>
      <trkpt lat="45.84838" lon="1.2325">
        <ele>254.41</ele>
        <time>2018-03-23T12:04:57Z</time>
      </trkpt>
      <trkpt lat="45.84835" lon="1.23248">
        <ele>253.93</ele>
        <time>2018-03-23T12:04:58Z</time>
      </trkpt>
      <trkpt lat="45.84831" lon="1.23248">
        <ele>253.93</ele>
        <time>2018-03-23T12:04:59Z</time>
      </trkpt>
      <trkpt lat="45.84828" lon="1.23248">
        <ele>253.93</ele>
        <time>2018-03-23T12:05:00Z</time>
      </trkpt>
      <trkpt lat="45.84826" lon="1.23249">
        <ele>253.93</ele>
        <time>2018-03-23T12:05:01Z</time>
      </trkpt>
      <trkpt lat="45.84811" lon="1.23262">
        <ele>253.44</ele>
        <time>2018-03-23T12:05:09Z</time>
      </trkpt>
      <trkpt lat="45.84809" lon="1.23269">
        <ele>252.48</ele>
        <time>2018-03-23T12:05:10Z</time>
      </trkpt>
      <trkpt lat="45.84809" lon="1.23276">
        <ele>252.48</ele>
        <time>2018-03-23T12:05:11Z</time>
      </trkpt>
      <trkpt lat="45.8481" lon="1.23282">
        <ele>252</ele>
        <time>2018-03-23T12:05:12Z</time>
      </trkpt>
      <trkpt lat="45.84811" lon="1.23286">
        <ele>252</ele>
        <time>2018-03-23T12:05:13Z</time>
      </trkpt>
      <trkpt lat="45.84813" lon="1.23291">
        <ele>252.48</ele>
        <time>2018-03-23T12:05:14Z</time>
      </trkpt>
      <trkpt lat="45.84839" lon="1.23347">
        <ele>252.48</ele>
        <time>2018-03-23T12:05:27Z</time>
      </trkpt>
      <trkpt lat="45.84865" lon="1.23405">
        <ele>253.93</ele>
        <time>2018-03-23T12:05:42Z</time>
      </trkpt>
      <trkpt lat="45.84893" lon="1.2347">
        <ele>254.41</ele>
        <time>2018-03-23T12:05:57Z</time>
      </trkpt>
      <trkpt lat="45.84921" lon="1.23527">
        <ele>254.41</ele>
        <time>2018-03-23T12:06:10Z</time>
      </trkpt>
      <trkpt lat="45.84923" lon="1.2353">
        <ele>254.89</ele>
        <time>2018-03-23T12:06:11Z</time>
      </trkpt>
      <trkpt lat="45.84925" lon="1.23533">
        <ele>254.89</ele>
        <time>2018-03-23T12:06:12Z</time>
      </trkpt>
      <trkpt lat="45.84927" lon="1.23536">
        <ele>254.89</ele>
        <time>2018-03-23T12:06:13Z</time>
      </trkpt>
      <trkpt lat="45.84929" lon="1.23539">
        <ele>254.89</ele>
        <time>2018-03-23T12:06:14Z</time>
      </trkpt>
      <trkpt lat="45.84931" lon="1.23542">
        <ele>254.89</ele>
        <time>2018-03-23T12:06:15Z</time>
      </trkpt>
      <trkpt lat="45.84934" lon="1.23545">
        <ele>254.89</ele>
        <time>2018-03-23T12:06:16Z</time>
      </trkpt>
      <trkpt lat="45.84957" lon="1.2357">
        <ele>254.89</ele>
        <time>2018-03-23T12:06:24Z</time>
      </trkpt>
      <trkpt lat="45.84959" lon="1.23573">
        <ele>254.89</ele>
        <time>2018-03-23T12:06:25Z</time>
      </trkpt>
      <trkpt lat="45.84963" lon="1.23584">
        <ele>254.89</ele>
        <time>2018-03-23T12:06:30Z</time>
      </trkpt>
      <trkpt lat="45.84965" lon="1.23585">
        <ele>254.89</ele>
        <time>2018-03-23T12:06:31Z</time>
      </trkpt>
      <trkpt lat="45.84967" lon="1.23587">
        <ele>254.89</ele>
        <time>2018-03-23T12:06:32Z</time>
      </trkpt>
      <trkpt lat="45.84971" lon="1.23592">
        <ele>254.89</ele>
        <time>2018-03-23T12:06:34Z</time>
      </trkpt>
      <trkpt lat="45.84972" lon="1.23594">
        <ele>254.89</ele>
        <time>2018-03-23T12:06:35Z</time>
      </trkpt>
      <trkpt lat="45.84974" lon="1.23596">
        <ele>254.89</ele>
        <time>2018-03-23T12:06:36Z</time>
      </trkpt>
      <trkpt lat="45.84975" lon="1.23598">
        <ele>255.37</ele>
        <time>2018-03-23T12:06:37Z</time>
      </trkpt>
      <trkpt lat="45.84977" lon="1.23601">
        <ele>255.37</ele>
        <time>2018-03-23T12:06:38Z</time>
      </trkpt>
      <trkpt lat="45.84979" lon="1.23604">
        <ele>255.37</ele>
        <time>2018-03-23T12:06:39Z</time>
      </trkpt>
      <trkpt lat="45.8498" lon="1.23608">
        <ele>255.37</ele>
        <time>2018-03-23T12:06:40Z</time>
      </trkpt>
      <trkpt lat="45.84989" lon="1.23619">
        <ele>255.37</ele>
        <time>2018-03-23T12:06:44Z</time>
      </trkpt>
      <trkpt lat="45.8499" lon="1.23622">
        <ele>255.37</ele>
        <time>2018-03-23T12:06:45Z</time>
      </trkpt>
      <trkpt lat="45.84991" lon="1.23626">
        <ele>255.37</ele>
        <time>2018-03-23T12:06:46Z</time>
      </trkpt>
      <trkpt lat="45.84993" lon="1.2363">
        <ele>255.37</ele>
        <time>2018-03-23T12:06:47Z</time>
      </trkpt>
      <trkpt lat="45.84995" lon="1.23634">
        <ele>255.37</ele>
        <time>2018-03-23T12:06:48Z</time>
      </trkpt>
      <trkpt lat="45.84997" lon="1.23637">
        <ele>255.37</ele>
        <time>2018-03-23T12:06:49Z</time>
      </trkpt>
      <trkpt lat="45.84998" lon="1.23641">
        <ele>255.37</ele>
        <time>2018-03-23T12:06:50Z</time>
      </trkpt>
      <trkpt lat="45.85" lon="1.23645">
        <ele>255.37</ele>
        <time>2018-03-23T12:06:51Z</time>
      </trkpt>
      <trkpt lat="45.85002" lon="1.23649">
        <ele>255.37</ele>
        <time>2018-03-23T12:06:52Z</time>
      </trkpt>
      <trkpt lat="45.85004" lon="1.23653">
        <ele>255.37</ele>
        <time>2018-03-23T12:06:53Z</time>
      </trkpt>
      <trkpt lat="45.85005" lon="1.23656">
        <ele>256.33</ele>
        <time>2018-03-23T12:06:54Z</time>
      </trkpt>
      <trkpt lat="45.85007" lon="1.2366">
        <ele>256.33</ele>
        <time>2018-03-23T12:06:55Z</time>
      </trkpt>
      <trkpt lat="45.85008" lon="1.23663">
        <ele>256.33</ele>
        <time>2018-03-23T12:06:56Z</time>
      </trkpt>
      <trkpt lat="45.85028" lon="1.23698">
        <ele>255.85</ele>
        <time>2018-03-23T12:07:06Z</time>
      </trkpt>
      <trkpt lat="45.85029" lon="1.23701">
        <ele>255.85</ele>
        <time>2018-03-23T12:07:07Z</time>
      </trkpt>
      <trkpt lat="45.8503" lon="1.23704">
        <ele>255.85</ele>
        <time>2018-03-23T12:07:08Z</time>
      </trkpt>
      <trkpt lat="45.85031" lon="1.23707">
        <ele>255.85</ele>
        <time>2018-03-23T12:07:09Z</time>
      </trkpt>
      <trkpt lat="45.85032" lon="1.23711">
        <ele>255.85</ele>
        <time>2018-03-23T12:07:10Z</time>
      </trkpt>
      <trkpt lat="45.85034" lon="1.23715">
        <ele>255.85</ele>
        <time>2018-03-23T12:07:11Z</time>
      </trkpt>
      <trkpt lat="45.85035" lon="1.2372">
        <ele>255.85</ele>
        <time>2018-03-23T12:07:12Z</time>
      </trkpt>
      <trkpt lat="45.85038" lon="1.23748">
        <ele>256.33</ele>
        <time>2018-03-23T12:07:19Z</time>
      </trkpt>
      <trkpt lat="45.8505" lon="1.23792">
        <ele>256.33</ele>
        <time>2018-03-23T12:07:32Z</time>
      </trkpt>
      <trkpt lat="45.85074" lon="1.23847">
        <ele>256.33</ele>
        <time>2018-03-23T12:07:46Z</time>
      </trkpt>
      <trkpt lat="45.85082" lon="1.23858">
        <ele>256.33</ele>
        <time>2018-03-23T12:07:50Z</time>
      </trkpt>
      <trkpt lat="45.85084" lon="1.23859">
        <ele>256.33</ele>
        <time>2018-03-23T12:07:51Z</time>
      </trkpt>
      <trkpt lat="45.85085" lon="1.23861">
        <ele>257.29</ele>
        <time>2018-03-23T12:07:52Z</time>
      </trkpt>
      <trkpt lat="45.85087" lon="1.23862">
        <ele>257.29</ele>
        <time>2018-03-23T12:07:53Z</time>
      </trkpt>
      <trkpt lat="45.8509" lon="1.23864">
        <ele>257.29</ele>
        <time>2018-03-23T12:07:54Z</time>
      </trkpt>
      <trkpt lat="45.85093" lon="1.23867">
        <ele>257.29</ele>
        <time>2018-03-23T12:07:55Z</time>
      </trkpt>
      <trkpt lat="45.85097" lon="1.2387">
        <ele>257.29</ele>
        <time>2018-03-23T12:07:56Z</time>
      </trkpt>
      <trkpt lat="45.85144" lon="1.23898">
        <ele>256.81</ele>
        <time>2018-03-23T12:08:09Z</time>
      </trkpt>
      <trkpt lat="45.85168" lon="1.23926">
        <ele>256.81</ele>
        <time>2018-03-23T12:08:19Z</time>
      </trkpt>
      <trkpt lat="45.85196" lon="1.23964">
        <ele>256.81</ele>
        <time>2018-03-23T12:08:32Z</time>
      </trkpt>
      <trkpt lat="45.85224" lon="1.24004">
        <ele>256.81</ele>
        <time>2018-03-23T12:08:44Z</time>
      </trkpt>
      <trkpt lat="45.85262" lon="1.24049">
        <ele>256.81</ele>
        <time>2018-03-23T12:08:57Z</time>
      </trkpt>
      <trkpt lat="45.85292" lon="1.24088">
        <ele>256.81</ele>
        <time>2018-03-23T12:09:08Z</time>
      </trkpt>
      <trkpt lat="45.85329" lon="1.24121">
        <ele>257.29</ele>
        <time>2018-03-23T12:09:21Z</time>
      </trkpt>
      <trkpt lat="45.85371" lon="1.24155">
        <ele>257.29</ele>
        <time>2018-03-23T12:09:36Z</time>
      </trkpt>
      <trkpt lat="45.8541" lon="1.24178">
        <ele>257.77</ele>
        <time>2018-03-23T12:09:52Z</time>
      </trkpt>
      <trkpt lat="45.8545" lon="1.24191">
        <ele>258.25</ele>
        <time>2018-03-23T12:10:05Z</time>
      </trkpt>
      <trkpt lat="45.85481" lon="1.24215">
        <ele>258.25</ele>
        <time>2018-03-23T12:10:17Z</time>
      </trkpt>
      <trkpt lat="45.85505" lon="1.24242">
        <ele>258.25</ele>
        <time>2018-03-23T12:10:27Z</time>
      </trkpt>
      <trkpt lat="45.85508" lon="1.24246">
        <ele>258.73</ele>
        <time>2018-03-23T12:10:30Z</time>
      </trkpt>
      <trkpt lat="45.85499" lon="1.24262">
        <ele>261.14</ele>
        <time>2018-03-23T12:10:44Z</time>
      </trkpt>
      <trkpt lat="45.85467" lon="1.24228">
        <ele>260.65</ele>
        <time>2018-03-23T12:11:00Z</time>
      </trkpt>
      <trkpt lat="45.85445" lon="1.24213">
        <ele>259.21</ele>
        <time>2018-03-23T12:11:07Z</time>
      </trkpt>
      <trkpt lat="45.85409" lon="1.24207">
        <ele>259.21</ele>
        <time>2018-03-23T12:11:19Z</time>
      </trkpt>
      <trkpt lat="45.85382" lon="1.24197">
        <ele>261.62</ele>
        <time>2018-03-23T12:11:32Z</time>
      </trkpt>
      <trkpt lat="45.85353" lon="1.24182">
        <ele>262.1</ele>
        <time>2018-03-23T12:11:47Z</time>
      </trkpt>
      <trkpt lat="45.85322" lon="1.24175">
        <ele>262.1</ele>
        <time>2018-03-23T12:12:00Z</time>
      </trkpt>
      <trkpt lat="45.85321" lon="1.24175">
        <ele>262.1</ele>
        <time>2018-03-23T12:12:01Z</time>
      </trkpt>
      <trkpt lat="45.85301" lon="1.24167">
        <ele>265.46</ele>
        <time>2018-03-23T12:12:17Z</time>
      </trkpt>
      <trkpt lat="45.85282" lon="1.24153">
        <ele>266.42</ele>
        <time>2018-03-23T12:12:34Z</time>
      </trkpt>
      <trkpt lat="45.8528" lon="1.24151">
        <ele>264.98</ele>
        <time>2018-03-23T12:12:36Z</time>
      </trkpt>
      <trkpt lat="45.85271" lon="1.24149">
        <ele>266.42</ele>
        <time>2018-03-23T12:12:41Z</time>
      </trkpt>
      <trkpt lat="45.85261" lon="1.24143">
        <ele>268.83</ele>
        <time>2018-03-23T12:12:51Z</time>
      </trkpt>
      <trkpt lat="45.8526" lon="1.24141">
        <ele>268.83</ele>
        <time>2018-03-23T12:12:52Z</time>
      </trkpt>
      <trkpt lat="45.85259" lon="1.2414">
        <ele>269.31</ele>
        <time>2018-03-23T12:12:53Z</time>
      </trkpt>
      <trkpt lat="45.85258" lon="1.24139">
        <ele>269.31</ele>
        <time>2018-03-23T12:12:54Z</time>
      </trkpt>
      <trkpt lat="45.85257" lon="1.24137">
        <ele>269.31</ele>
        <time>2018-03-23T12:12:55Z</time>
      </trkpt>
      <trkpt lat="45.85256" lon="1.24135">
        <ele>269.31</ele>
        <time>2018-03-23T12:12:56Z</time>
      </trkpt>
      <trkpt lat="45.85255" lon="1.24134">
        <ele>269.31</ele>
        <time>2018-03-23T12:12:57Z</time>
      </trkpt>
      <trkpt lat="45.85242" lon="1.24104">
        <ele>267.38</ele>
        <time>2018-03-23T12:13:13Z</time>
      </trkpt>
      <trkpt lat="45.85241" lon="1.24101">
        <ele>267.38</ele>
        <time>2018-03-23T12:13:14Z</time>
      </trkpt>
      <trkpt lat="45.85238" lon="1.24095">
        <ele>265.46</ele>
        <time>2018-03-23T12:13:16Z</time>
      </trkpt>
      <trkpt lat="45.85236" lon="1.24093">
        <ele>264.5</ele>
        <time>2018-03-23T12:13:17Z</time>
      </trkpt>
      <trkpt lat="45.85234" lon="1.24091">
        <ele>264.02</ele>
        <time>2018-03-23T12:13:18Z</time>
      </trkpt>
      <trkpt lat="45.8523" lon="1.24089">
        <ele>263.54</ele>
        <time>2018-03-23T12:13:19Z</time>
      </trkpt>
      <trkpt lat="45.85225" lon="1.24088">
        <ele>262.58</ele>
        <time>2018-03-23T12:13:20Z</time>
      </trkpt>
      <trkpt lat="45.85221" lon="1.24088">
        <ele>262.58</ele>
        <time>2018-03-23T12:13:21Z</time>
      </trkpt>
      <trkpt lat="45.85217" lon="1.24088">
        <ele>262.58</ele>
        <time>2018-03-23T12:13:22Z</time>
      </trkpt>
      <trkpt lat="45.85214" lon="1.24089">
        <ele>262.58</ele>
        <time>2018-03-23T12:13:23Z</time>
      </trkpt>
      <trkpt lat="45.85206" lon="1.2409">
        <ele>264.02</ele>
        <time>2018-03-23T12:13:27Z</time>
      </trkpt>
      <trkpt lat="45.85193" lon="1.24092">
        <ele>265.94</ele>
        <time>2018-03-23T12:13:36Z</time>
      </trkpt>
      <trkpt lat="45.85187" lon="1.24091">
        <ele>266.42</ele>
        <time>2018-03-23T12:13:40Z</time>
      </trkpt>
      <trkpt lat="45.85184" lon="1.24091">
        <ele>266.42</ele>
        <time>2018-03-23T12:13:42Z</time>
      </trkpt>
      <trkpt lat="45.85151" lon="1.24091">
        <ele>268.83</ele>
        <time>2018-03-23T12:14:03Z</time>
      </trkpt>
      <trkpt lat="45.8513" lon="1.24099">
        <ele>270.75</ele>
        <time>2018-03-23T12:14:19Z</time>
      </trkpt>
      <trkpt lat="45.85126" lon="1.24101">
        <ele>270.75</ele>
        <time>2018-03-23T12:14:22Z</time>
      </trkpt>
      <trkpt lat="45.85109" lon="1.24116">
        <ele>273.63</ele>
        <time>2018-03-23T12:14:35Z</time>
      </trkpt>
      <trkpt lat="45.85096" lon="1.24126">
        <ele>276.04</ele>
        <time>2018-03-23T12:14:52Z</time>
      </trkpt>
      <trkpt lat="45.85081" lon="1.24133">
        <ele>278.44</ele>
        <time>2018-03-23T12:15:10Z</time>
      </trkpt>
      <trkpt lat="45.8507" lon="1.24134">
        <ele>280.36</ele>
        <time>2018-03-23T12:15:25Z</time>
      </trkpt>
      <trkpt lat="45.8507" lon="1.24133">
        <ele>280.36</ele>
        <time>2018-03-23T12:15:26Z</time>
      </trkpt>
      <trkpt lat="45.85064" lon="1.24119">
        <ele>281.32</ele>
        <time>2018-03-23T12:15:40Z</time>
      </trkpt>
      <trkpt lat="45.8506" lon="1.24114">
        <ele>280.84</ele>
        <time>2018-03-23T12:15:54Z</time>
      </trkpt>
      <trkpt lat="45.85058" lon="1.24112">
        <ele>282.28</ele>
        <time>2018-03-23T12:15:58Z</time>
      </trkpt>
      <trkpt lat="45.85053" lon="1.241">
        <ele>281.8</ele>
        <time>2018-03-23T12:16:05Z</time>
      </trkpt>
      <trkpt lat="45.85053" lon="1.24097">
        <ele>281.8</ele>
        <time>2018-03-23T12:16:06Z</time>
      </trkpt>
      <trkpt lat="45.85053" lon="1.24094">
        <ele>280.84</ele>
        <time>2018-03-23T12:16:07Z</time>
      </trkpt>
      <trkpt lat="45.85053" lon="1.24091">
        <ele>280.84</ele>
        <time>2018-03-23T12:16:08Z</time>
      </trkpt>
      <trkpt lat="45.85054" lon="1.24088">
        <ele>280.84</ele>
        <time>2018-03-23T12:16:09Z</time>
      </trkpt>
      <trkpt lat="45.85055" lon="1.24086">
        <ele>280.84</ele>
        <time>2018-03-23T12:16:10Z</time>
      </trkpt>
      <trkpt lat="45.85056" lon="1.24084">
        <ele>280.84</ele>
        <time>2018-03-23T12:16:11Z</time>
      </trkpt>
      <trkpt lat="45.85057" lon="1.24082">
        <ele>280.84</ele>
        <time>2018-03-23T12:16:12Z</time>
      </trkpt>
      <trkpt lat="45.85058" lon="1.2408">
        <ele>280.84</ele>
        <time>2018-03-23T12:16:13Z</time>
      </trkpt>
      <trkpt lat="45.8506" lon="1.24069">
        <ele>280.84</ele>
        <time>2018-03-23T12:16:18Z</time>
      </trkpt>
      <trkpt lat="45.8506" lon="1.24065">
        <ele>280.36</ele>
        <time>2018-03-23T12:16:19Z</time>
      </trkpt>
      <trkpt lat="45.85063" lon="1.24025">
        <ele>278.92</ele>
        <time>2018-03-23T12:16:31Z</time>
      </trkpt>
      <trkpt lat="45.85061" lon="1.23994">
        <ele>275.07</ele>
        <time>2018-03-23T12:16:39Z</time>
      </trkpt>
      <trkpt lat="45.85061" lon="1.2398">
        <ele>273.15</ele>
        <time>2018-03-23T12:16:42Z</time>
      </trkpt>
      <trkpt lat="45.85057" lon="1.23954">
        <ele>269.79</ele>
        <time>2018-03-23T12:16:45Z</time>
      </trkpt>
      <trkpt lat="45.85052" lon="1.23935">
        <ele>268.83</ele>
        <time>2018-03-23T12:16:47Z</time>
      </trkpt>
      <trkpt lat="45.85047" lon="1.23918">
        <ele>267.86</ele>
        <time>2018-03-23T12:16:49Z</time>
      </trkpt>
      <trkpt lat="45.8504" lon="1.23903">
        <ele>267.86</ele>
        <time>2018-03-23T12:16:51Z</time>
      </trkpt>
      <trkpt lat="45.85037" lon="1.23897">
        <ele>267.86</ele>
        <time>2018-03-23T12:16:52Z</time>
      </trkpt>
      <trkpt lat="45.85034" lon="1.23892">
        <ele>267.86</ele>
        <time>2018-03-23T12:16:53Z</time>
      </trkpt>
      <trkpt lat="45.85009" lon="1.23849">
        <ele>267.38</ele>
        <time>2018-03-23T12:17:03Z</time>
      </trkpt>
      <trkpt lat="45.85002" lon="1.23836">
        <ele>268.83</ele>
        <time>2018-03-23T12:17:07Z</time>
      </trkpt>
      <trkpt lat="45.84977" lon="1.23801">
        <ele>269.31</ele>
        <time>2018-03-23T12:17:21Z</time>
      </trkpt>
      <trkpt lat="45.84967" lon="1.23793">
        <ele>266.9</ele>
        <time>2018-03-23T12:17:25Z</time>
      </trkpt>
      <trkpt lat="45.84958" lon="1.23783">
        <ele>265.46</ele>
        <time>2018-03-23T12:17:27Z</time>
      </trkpt>
      <trkpt lat="45.84944" lon="1.23761">
        <ele>266.9</ele>
        <time>2018-03-23T12:17:33Z</time>
      </trkpt>
      <trkpt lat="45.84928" lon="1.2374">
        <ele>268.83</ele>
        <time>2018-03-23T12:17:45Z</time>
      </trkpt>
      <trkpt lat="45.84913" lon="1.23733">
        <ele>271.23</ele>
        <time>2018-03-23T12:18:00Z</time>
      </trkpt>
      <trkpt lat="45.84899" lon="1.23728">
        <ele>274.11</ele>
        <time>2018-03-23T12:18:16Z</time>
      </trkpt>
      <trkpt lat="45.84887" lon="1.23722">
        <ele>276.52</ele>
        <time>2018-03-23T12:18:33Z</time>
      </trkpt>
      <trkpt lat="45.84877" lon="1.23719">
        <ele>278.44</ele>
        <time>2018-03-23T12:18:50Z</time>
      </trkpt>
      <trkpt lat="45.84866" lon="1.2371">
        <ele>280.36</ele>
        <time>2018-03-23T12:19:07Z</time>
      </trkpt>
      <trkpt lat="45.84853" lon="1.23702">
        <ele>282.28</ele>
        <time>2018-03-23T12:19:22Z</time>
      </trkpt>
      <trkpt lat="45.84839" lon="1.23697">
        <ele>283.73</ele>
        <time>2018-03-23T12:19:36Z</time>
      </trkpt>
      <trkpt lat="45.84824" lon="1.2369">
        <ele>285.65</ele>
        <time>2018-03-23T12:19:54Z</time>
      </trkpt>
      <trkpt lat="45.84823" lon="1.23689">
        <ele>285.65</ele>
        <time>2018-03-23T12:19:55Z</time>
      </trkpt>
      <trkpt lat="45.84822" lon="1.23688">
        <ele>285.65</ele>
        <time>2018-03-23T12:19:56Z</time>
      </trkpt>
      <trkpt lat="45.84813" lon="1.23685">
        <ele>285.65</ele>
        <time>2018-03-23T12:20:04Z</time>
      </trkpt>
      <trkpt lat="45.84813" lon="1.23726">
        <ele>287.57</ele>
        <time>2018-03-23T12:20:24Z</time>
      </trkpt>
      <trkpt lat="45.84803" lon="1.23726">
        <ele>287.57</ele>
        <time>2018-03-23T12:20:30Z</time>
      </trkpt>
      <trkpt lat="45.8477" lon="1.23667">
        <ele>286.13</ele>
        <time>2018-03-23T12:20:47Z</time>
      </trkpt>
      <trkpt lat="45.84743" lon="1.23678">
        <ele>286.13</ele>
        <time>2018-03-23T12:20:57Z</time>
      </trkpt>
      <trkpt lat="45.84722" lon="1.23691">
        <ele>287.57</ele>
        <time>2018-03-23T12:21:04Z</time>
      </trkpt>
      <trkpt lat="45.84674" lon="1.23741">
        <ele>288.53</ele>
        <time>2018-03-23T12:21:23Z</time>
      </trkpt>
      <trkpt lat="45.84631" lon="1.23802">
        <ele>290.94</ele>
        <time>2018-03-23T12:21:43Z</time>
      </trkpt>
      <trkpt lat="45.84603" lon="1.23829">
        <ele>292.38</ele>
        <time>2018-03-23T12:21:57Z</time>
      </trkpt>
      <trkpt lat="45.84599" lon="1.23835">
        <ele>292.38</ele>
        <time>2018-03-23T12:22:10Z</time>
      </trkpt>
      <trkpt lat="45.846" lon="1.23834">
        <ele>292.38</ele>
        <time>2018-03-23T12:22:34Z</time>
      </trkpt>
    </trkseg>
  </trk>
</gpx>